[[{"header":{"parameterUnit":"m.s-1","parameterCategory":1,"la1":30.6,"la2":29.2853,"lo1":-89.7004,"lo2":-87.6739,"dy":0.0162,"dx":0.0183,"nx":112,"ny":82,"refTime":"2023-04-14T00:00:00:Z","depth":0,"parameterNumber":2,"parameterNumberName":"U-component_of_WINDS"},"data":[0.0,0.0,0.0,0.0,0.0,0.0,0.0,0.0,0.0,0.0,0.0,0.0,0.0,0.0,0.0,0.0,0.0,0.0,0.0,0.0,0.0,0.0,0.0,0.0,0.0,0.0,0.0,0.0,0.0,0.0,0.0,0.0,0.0,0.0,0.0,0.0,0.0,0.0,0.0,0.0,0.0,0.0,0.0,0.0,0.0,0.0,0.0,0.0,0.0,0.0,0.0,0.0,0.0,0.0,0.0,0.0,0.0,0.0,0.0,0.0,0.0,0.0,0.0,0.0,0.0,0.0,0.0,0.0,0.0,0.0,0.0,0.0,0.0,0.0,0.0,0.0,0.0,0.0,0.0,0.0,0.0,0.0,0.0,0.0,0.0,0.0,0.0,0.0,0.0,0.0,-3.9646,-3.9646,-3.9646,-3.9589,-3.9409,-3.9553,-3.9646,-3.9646,0.0,0.0,0.0,0.0,0.0,0.0,0.0,0.0,0.0,0.0,0.0,0.0,0.0,0.0,0.0,0.0,0.0,0.0,0.0,0.0,0.0,0.0,0.0,0.0,0.0,0.0,0.0,0.0,0.0,0.0,0.0,0.0,0.0,0.0,0.0,0.0,0.0,0.0,0.0,0.0,0.0,0.0,0.0,0.0,0.0,0.0,0.0,0.0,0.0,0.0,0.0,0.0,0.0,0.0,0.0,0.0,0.0,0.0,0.0,0.0,0.0,0.0,0.0,0.0,0.0,0.0,0.0,0.0,0.0,0.0,0.0,0.0,0.0,0.0,0.0,0.0,0.0,0.0,0.0,0.0,0.0,0.0,0.0,0.0,0.0,0.0,0.0,0.0,0.0,0.0,0.0,0.0,0.0,0.0,0.0,0.0,0.0,0.0,0.0,0.0,0.0,0.0,0.0,0.0,-3.946,-3.946,-3.946,-3.9424,-3.9388,-3.9424,-3.946,-3.946,0.0,0.0,0.0,0.0,0.0,0.0,0.0,0.0,0.0,0.0,0.0,0.0,0.0,0.0,0.0,0.0,0.0,0.0,0.0,0.0,0.0,0.0,0.0,0.0,0.0,0.0,0.0,0.0,0.0,0.0,0.0,0.0,0.0,0.0,0.0,0.0,0.0,0.0,0.0,0.0,0.0,0.0,0.0,0.0,0.0,0.0,0.0,0.0,0.0,0.0,0.0,0.0,0.0,0.0,0.0,0.0,0.0,0.0,0.0,0.0,0.0,0.0,0.0,0.0,0.0,0.0,0.0,0.0,0.0,0.0,0.0,0.0,0.0,0.0,0.0,0.0,0.0,0.0,0.0,0.0,0.0,0.0,0.0,0.0,0.0,0.0,0.0,0.0,0.0,0.0,0.0,0.0,0.0,0.0,0.0,0.0,0.0,0.0,0.0,0.0,0.0,0.0,0.0,-3.9388,-3.9388,-3.9388,-3.9388,-3.9388,-3.9388,-3.9388,-3.9388,-3.9388,-3.9481,0.0,0.0,0.0,0.0,0.0,0.0,0.0,0.0,0.0,0.0,0.0,0.0,0.0,0.0,0.0,0.0,0.0,0.0,0.0,0.0,0.0,0.0,0.0,0.0,0.0,0.0,0.0,0.0,0.0,0.0,0.0,0.0,0.0,0.0,0.0,0.0,0.0,0.0,0.0,0.0,0.0,0.0,0.0,0.0,0.0,0.0,0.0,0.0,0.0,0.0,0.0,0.0,0.0,0.0,0.0,0.0,0.0,0.0,0.0,0.0,0.0,0.0,0.0,0.0,0.0,0.0,0.0,0.0,0.0,0.0,0.0,0.0,0.0,0.0,0.0,0.0,0.0,0.0,0.0,0.0,0.0,0.0,0.0,0.0,0.0,0.0,0.0,0.0,0.0,0.0,0.0,0.0,0.0,0.0,0.0,0.0,0.0,0.0,0.0,0.0,0.0,0.0,-3.9327,-3.9268,-3.9134,-3.9301,-3.9388,-3.9388,-3.9228,-3.9192,-3.9388,-3.9228,0.0,0.0,0.0,0.0,0.0,0.0,0.0,0.0,0.0,0.0,0.0,0.0,0.0,0.0,0.0,0.0,0.0,0.0,0.0,0.0,0.0,0.0,0.0,0.0,0.0,0.0,0.0,0.0,0.0,0.0,0.0,0.0,0.0,0.0,0.0,0.0,0.0,0.0,0.0,0.0,0.0,0.0,0.0,0.0,0.0,0.0,0.0,0.0,0.0,0.0,0.0,0.0,0.0,0.0,0.0,0.0,0.0,0.0,0.0,0.0,0.0,0.0,0.0,0.0,0.0,0.0,0.0,0.0,0.0,0.0,0.0,0.0,0.0,0.0,0.0,0.0,0.0,0.0,0.0,0.0,0.0,0.0,0.0,0.0,0.0,0.0,0.0,0.0,0.0,0.0,0.0,0.0,0.0,0.0,0.0,0.0,0.0,0.0,0.0,0.0,0.0,0.0,-3.9068,-3.8864,-3.8335,-3.8958,-3.9388,-3.9388,-3.8701,-3.8612,-3.9337,-3.8701,0.0,0.0,0.0,0.0,0.0,0.0,0.0,0.0,0.0,0.0,0.0,0.0,0.0,0.0,0.0,0.0,0.0,0.0,0.0,0.0,0.0,0.0,0.0,0.0,0.0,0.0,0.0,0.0,0.0,0.0,0.0,0.0,0.0,0.0,0.0,0.0,0.0,0.0,0.0,0.0,0.0,0.0,0.0,0.0,0.0,0.0,0.0,0.0,0.0,0.0,0.0,0.0,0.0,0.0,0.0,0.0,0.0,0.0,0.0,0.0,0.0,0.0,0.0,0.0,0.0,0.0,0.0,0.0,0.0,0.0,0.0,0.0,0.0,0.0,0.0,0.0,0.0,0.0,0.0,0.0,0.0,0.0,0.0,0.0,0.0,0.0,0.0,0.0,0.0,0.0,0.0,0.0,0.0,0.0,0.0,0.0,0.0,0.0,0.0,0.0,0.0,0.0,-3.9132,-3.8689,0.0,-3.871,-3.8921,-3.8921,-3.8328,-3.8061,-3.8371,0.0,0.0,0.0,0.0,0.0,0.0,0.0,0.0,0.0,0.0,0.0,0.0,0.0,0.0,0.0,0.0,0.0,0.0,0.0,0.0,0.0,0.0,0.0,0.0,0.0,0.0,0.0,0.0,0.0,0.0,0.0,0.0,0.0,0.0,0.0,0.0,0.0,0.0,0.0,0.0,0.0,0.0,0.0,0.0,0.0,0.0,0.0,0.0,0.0,0.0,0.0,0.0,0.0,0.0,0.0,0.0,0.0,0.0,0.0,0.0,0.0,0.0,0.0,0.0,0.0,0.0,0.0,0.0,0.0,0.0,0.0,0.0,0.0,0.0,0.0,0.0,0.0,0.0,0.0,0.0,0.0,0.0,0.0,0.0,0.0,0.0,0.0,0.0,0.0,0.0,0.0,0.0,0.0,0.0,0.0,0.0,0.0,0.0,0.0,0.0,0.0,0.0,-3.9522,-3.8838,-3.8325,0.0,-3.8449,-3.8599,-3.8599,-3.8018,-3.7781,-3.8064,0.0,0.0,0.0,0.0,0.0,0.0,0.0,0.0,0.0,0.0,0.0,0.0,0.0,0.0,0.0,0.0,0.0,0.0,0.0,0.0,0.0,0.0,0.0,0.0,0.0,0.0,0.0,0.0,0.0,0.0,0.0,0.0,0.0,0.0,0.0,0.0,0.0,0.0,0.0,0.0,0.0,0.0,0.0,0.0,0.0,0.0,0.0,0.0,0.0,0.0,0.0,0.0,0.0,0.0,0.0,0.0,0.0,0.0,0.0,0.0,0.0,0.0,0.0,0.0,0.0,0.0,0.0,0.0,0.0,0.0,0.0,0.0,0.0,0.0,0.0,0.0,0.0,0.0,0.0,0.0,0.0,0.0,0.0,0.0,0.0,0.0,0.0,0.0,0.0,0.0,0.0,0.0,0.0,0.0,0.0,0.0,0.0,0.0,0.0,0.0,0.0,0.0,-3.845,-3.8095,-3.7779,-3.7441,-3.8103,-3.8572,-3.8572,-3.7853,-3.7727,0.0,0.0,0.0,0.0,0.0,0.0,0.0,0.0,0.0,0.0,0.0,0.0,0.0,0.0,0.0,0.0,0.0,0.0,0.0,0.0,0.0,0.0,0.0,0.0,0.0,0.0,0.0,0.0,0.0,0.0,0.0,0.0,0.0,0.0,0.0,0.0,0.0,0.0,0.0,0.0,0.0,0.0,0.0,0.0,0.0,0.0,0.0,0.0,0.0,0.0,0.0,0.0,0.0,0.0,0.0,0.0,0.0,0.0,0.0,0.0,0.0,0.0,0.0,0.0,0.0,0.0,0.0,0.0,0.0,0.0,0.0,0.0,0.0,0.0,0.0,0.0,0.0,0.0,0.0,0.0,0.0,0.0,0.0,0.0,0.0,0.0,0.0,0.0,0.0,0.0,0.0,0.0,0.0,0.0,0.0,0.0,0.0,0.0,0.0,0.0,0.0,0.0,0.0,-3.8755,-3.7923,-3.728,-3.7202,-3.7402,-3.7524,-3.7524,-3.6991,-3.6799,-3.7171,0.0,0.0,0.0,0.0,0.0,0.0,0.0,0.0,0.0,0.0,0.0,0.0,0.0,0.0,0.0,0.0,0.0,0.0,0.0,0.0,0.0,0.0,0.0,0.0,0.0,0.0,0.0,0.0,0.0,0.0,0.0,0.0,0.0,0.0,0.0,0.0,0.0,0.0,0.0,0.0,0.0,0.0,0.0,0.0,0.0,0.0,0.0,0.0,0.0,0.0,0.0,0.0,0.0,0.0,0.0,0.0,0.0,0.0,0.0,0.0,0.0,0.0,0.0,0.0,0.0,0.0,0.0,0.0,0.0,0.0,0.0,0.0,0.0,0.0,0.0,0.0,0.0,0.0,0.0,0.0,0.0,0.0,0.0,0.0,0.0,0.0,0.0,0.0,0.0,0.0,0.0,0.0,0.0,0.0,0.0,0.0,0.0,0.0,0.0,0.0,0.0,0.0,-3.8141,-3.7466,-3.6968,-3.7108,-3.7108,-3.7108,-3.7108,-3.6801,-3.6654,-3.6779,0.0,0.0,0.0,0.0,0.0,0.0,0.0,0.0,0.0,0.0,0.0,0.0,0.0,0.0,0.0,0.0,0.0,0.0,0.0,0.0,0.0,0.0,0.0,0.0,0.0,0.0,0.0,0.0,0.0,0.0,0.0,0.0,0.0,0.0,0.0,0.0,0.0,0.0,0.0,0.0,0.0,0.0,0.0,0.0,0.0,0.0,0.0,0.0,0.0,0.0,0.0,0.0,0.0,0.0,0.0,0.0,0.0,0.0,0.0,0.0,0.0,0.0,0.0,0.0,0.0,0.0,0.0,0.0,0.0,0.0,0.0,0.0,0.0,0.0,0.0,0.0,0.0,0.0,0.0,0.0,0.0,0.0,0.0,0.0,0.0,0.0,0.0,0.0,0.0,0.0,0.0,0.0,0.0,0.0,0.0,0.0,0.0,0.0,0.0,0.0,0.0,0.0,-3.7015,-3.6815,-3.6769,-3.7015,-3.7015,-3.7015,-3.7015,-3.7015,-3.7062,-3.7062,0.0,0.0,0.0,0.0,0.0,0.0,0.0,0.0,0.0,0.0,0.0,0.0,0.0,0.0,0.0,0.0,0.0,0.0,0.0,0.0,0.0,0.0,0.0,0.0,0.0,0.0,0.0,0.0,0.0,0.0,0.0,0.0,0.0,0.0,0.0,0.0,0.0,0.0,0.0,0.0,0.0,0.0,0.0,0.0,0.0,0.0,0.0,0.0,0.0,0.0,0.0,0.0,0.0,0.0,0.0,0.0,0.0,0.0,0.0,0.0,-3.4088,0.0,0.0,0.0,0.0,0.0,0.0,0.0,0.0,0.0,0.0,0.0,0.0,0.0,0.0,0.0,0.0,0.0,0.0,0.0,0.0,0.0,0.0,0.0,0.0,0.0,0.0,0.0,0.0,0.0,0.0,0.0,0.0,0.0,0.0,0.0,0.0,0.0,0.0,0.0,0.0,0.0,-3.6769,-3.6581,-3.6499,-3.6546,-3.6546,-3.6546,-3.6546,-3.6546,-3.664,-3.6769,-3.664,0.0,0.0,0.0,0.0,0.0,0.0,0.0,0.0,0.0,0.0,0.0,0.0,0.0,0.0,0.0,0.0,0.0,0.0,0.0,0.0,0.0,0.0,0.0,0.0,0.0,0.0,0.0,0.0,0.0,0.0,0.0,0.0,0.0,0.0,0.0,0.0,0.0,0.0,0.0,0.0,0.0,0.0,0.0,0.0,0.0,0.0,0.0,0.0,0.0,0.0,0.0,0.0,0.0,0.0,0.0,0.0,0.0,0.0,0.0,0.0,-3.3464,0.0,0.0,0.0,0.0,0.0,0.0,0.0,0.0,0.0,0.0,0.0,0.0,0.0,0.0,0.0,0.0,0.0,0.0,0.0,0.0,0.0,0.0,0.0,0.0,0.0,0.0,0.0,0.0,0.0,0.0,0.0,0.0,0.0,0.0,0.0,0.0,0.0,0.0,0.0,0.0,-3.6534,-3.6452,-3.6405,-3.6405,-3.6405,-3.6405,-3.6405,-3.6405,-3.6452,-3.6534,-3.6452,0.0,0.0,0.0,0.0,0.0,0.0,0.0,0.0,0.0,0.0,0.0,0.0,0.0,0.0,0.0,0.0,0.0,0.0,0.0,0.0,0.0,0.0,0.0,0.0,0.0,0.0,0.0,0.0,0.0,0.0,0.0,0.0,0.0,0.0,0.0,0.0,0.0,0.0,0.0,0.0,0.0,0.0,0.0,0.0,0.0,0.0,0.0,0.0,0.0,0.0,0.0,0.0,0.0,0.0,-3.0774,-3.0774,-3.14,-3.1184,-3.0421,-3.1593,-3.1542,-3.0865,0.0,0.0,0.0,0.0,0.0,0.0,0.0,0.0,0.0,0.0,0.0,0.0,0.0,0.0,0.0,0.0,0.0,0.0,0.0,0.0,0.0,0.0,0.0,0.0,0.0,-3.2191,-3.2443,0.0,0.0,0.0,0.0,0.0,0.0,0.0,0.0,0.0,0.0,0.0,0.0,-3.6405,-3.6405,-3.6405,-3.6405,-3.6405,-3.6405,-3.6405,-3.6405,-3.6405,-3.6405,-3.6405,-3.6405,0.0,0.0,0.0,0.0,0.0,0.0,0.0,0.0,0.0,0.0,0.0,0.0,0.0,0.0,0.0,0.0,0.0,0.0,0.0,0.0,0.0,0.0,0.0,0.0,0.0,0.0,0.0,0.0,0.0,0.0,0.0,0.0,-2.9185,-2.9185,0.0,0.0,0.0,0.0,0.0,0.0,0.0,0.0,0.0,0.0,0.0,0.0,0.0,0.0,-2.9533,-2.9438,-2.9237,-2.9046,-2.9046,-2.9046,-2.9036,-2.9132,-2.9079,-2.8983,-2.9185,0.0,-3.071,-3.1071,0.0,0.0,0.0,0.0,0.0,0.0,0.0,0.0,0.0,0.0,0.0,0.0,0.0,0.0,0.0,0.0,0.0,0.0,0.0,0.0,0.0,0.0,-3.2392,-3.1819,-3.1869,-3.1768,0.0,-3.1644,-3.2694,-3.2593,0.0,0.0,0.0,0.0,0.0,0.0,0.0,0.0,-3.6405,-3.6405,-3.6405,-3.6405,-3.6405,-3.6405,-3.6405,-3.6405,-3.6405,-3.6405,-3.6405,-3.6405,-3.6405,-3.6405,0.0,0.0,0.0,0.0,0.0,0.0,0.0,0.0,0.0,0.0,0.0,0.0,0.0,0.0,0.0,0.0,0.0,0.0,0.0,0.0,0.0,0.0,0.0,0.0,0.0,0.0,0.0,0.0,0.0,-2.9089,-2.9026,-2.8877,-2.9036,-2.9185,0.0,0.0,0.0,0.0,0.0,0.0,0.0,0.0,0.0,-2.8877,-2.8887,-2.8824,-2.8654,-2.8824,-2.8834,-2.8684,-2.8684,-2.8684,-2.8674,-2.8514,-2.8461,-2.8461,-2.8461,-2.8804,-2.9398,-3.0162,-3.0824,-3.1491,0.0,0.0,0.0,0.0,0.0,-3.2392,-3.148,0.0,0.0,0.0,0.0,0.0,0.0,0.0,0.0,0.0,0.0,0.0,0.0,0.0,0.0,-2.9932,-2.9828,-2.9723,-2.9112,-2.9565,-3.0266,0.0,-3.1684,-3.2605,-3.4129,0.0,0.0,0.0,0.0,0.0,-3.6038,-3.5775,-3.5715,-3.6358,-3.6405,-3.6405,-3.6405,-3.6405,-3.6156,-3.5523,-3.5511,-3.5162,-3.441,-3.4362,-3.4617,0.0,0.0,0.0,0.0,0.0,0.0,0.0,0.0,0.0,0.0,0.0,0.0,0.0,0.0,0.0,0.0,0.0,0.0,0.0,0.0,0.0,0.0,0.0,0.0,0.0,0.0,0.0,0.0,-2.8824,-2.8814,-2.8621,-2.8771,-2.892,0.0,0.0,0.0,0.0,0.0,0.0,-2.8973,-2.8983,-2.8877,-2.8631,-2.8676,-2.8672,-2.8457,-2.879,-2.8957,-2.8957,-2.8957,-2.8957,-2.8903,-2.8731,-2.8613,-2.8613,-2.8613,-2.8613,-2.8702,-2.9447,-2.9817,-2.9974,-3.0979,-3.1429,0.0,-3.1389,-3.1389,-3.1235,-3.0162,-2.9817,-2.9817,-2.9817,0.0,-3.013,-3.1327,0.0,0.0,0.0,0.0,-3.1206,-3.0068,0.0,-2.9313,-2.8495,-2.8291,-2.8291,-2.8291,-2.8291,-2.8601,0.0,-3.0484,-3.1553,-3.3116,0.0,0.0,0.0,0.0,-3.3266,-3.4836,-3.4532,-3.4459,-3.5259,-3.5343,-3.5343,-3.5343,-3.5343,-3.5005,-3.4215,-3.4166,-3.3712,-3.2705,-3.2655,-3.2955,-3.3575,0.0,0.0,0.0,0.0,0.0,0.0,0.0,0.0,0.0,0.0,0.0,0.0,0.0,0.0,0.0,0.0,0.0,0.0,0.0,0.0,0.0,0.0,0.0,0.0,0.0,0.0,0.0,0.0,0.0,-2.8291,-2.8344,0.0,0.0,0.0,0.0,-2.9079,-2.9079,-2.8983,-2.8727,-2.8727,-2.8621,-2.8344,-2.8682,-2.8887,-2.8887,-2.9352,-2.9558,-2.9558,-2.9558,-2.9558,-2.9558,-2.9567,-2.9502,-2.9502,-2.9502,-2.9502,-2.9499,-2.8731,-2.8558,-2.8781,-2.8834,-2.9036,-2.9227,-2.8983,-2.8887,-2.8824,-2.8504,-2.8398,-2.8398,-2.8398,-2.8558,-2.893,-2.9775,-3.0235,0.0,0.0,-3.0026,-2.9775,-2.8698,-2.8398,-2.8398,-2.8291,-2.8291,-2.8291,-2.8291,-2.8291,-2.8291,0.0,-2.8451,-2.89,-3.0266,0.0,-3.0876,-3.228,-3.2381,-3.2381,-3.2482,-3.2431,-3.2431,-3.2482,-3.2532,-3.2532,-3.2532,-3.2532,-3.2482,-3.2431,-3.2431,-3.2392,-3.2331,-3.2331,-3.2331,-3.2381,-3.2381,0.0,0.0,0.0,0.0,0.0,0.0,0.0,0.0,0.0,0.0,0.0,0.0,0.0,0.0,0.0,0.0,0.0,0.0,0.0,0.0,0.0,0.0,0.0,0.0,0.0,0.0,0.0,0.0,-2.8291,-2.8291,0.0,-2.8451,-2.8461,-2.8569,-2.8942,-2.8962,-2.9036,-2.9276,-2.9286,-2.9231,-2.9111,-2.9258,-2.9336,-2.9336,-2.9492,-2.9626,-2.9626,-2.9626,-2.9626,-2.9626,-2.9626,-2.9626,-2.9626,-2.9626,-2.9626,-2.9607,-2.9238,-2.901,-2.8809,-2.8809,-2.8741,-2.8558,-2.8451,-2.8461,-2.8408,-2.8344,-2.8291,-2.8291,-2.8291,-2.8344,-2.8504,-2.8804,-2.8963,-2.9016,-2.891,-2.8857,-2.8804,-2.8398,-2.8291,-2.8291,-2.8291,-2.8291,-2.8291,-2.8291,-2.8291,-2.8291,-2.8291,-2.8291,-2.8751,-3.0068,-2.9555,-2.9713,-3.1807,-3.0897,-3.0494,-3.1909,-3.1633,-3.152,-3.223,-3.228,-3.228,-3.228,-3.228,-3.2028,-3.1316,-3.1276,-3.0876,-3.0037,-2.9984,-3.0235,-3.0732,-3.0773,-3.1655,0.0,0.0,0.0,0.0,0.0,0.0,0.0,0.0,0.0,0.0,0.0,0.0,0.0,0.0,0.0,0.0,0.0,0.0,0.0,0.0,0.0,0.0,0.0,0.0,0.0,0.0,-2.8291,-2.8291,-2.8418,-2.8506,-2.8506,-2.8643,-2.8838,-2.9121,-2.9141,-2.9258,-2.9551,-2.9626,-2.9626,-2.9626,-2.9707,-2.9785,-2.9785,-2.9941,-3.0019,-3.0019,-3.0019,-3.0019,-3.0019,-3.0019,-3.0019,-3.0019,-3.0019,-3.0019,-3.0019,-3.0019,-2.9756,-2.9336,-2.9199,-2.8965,-2.8721,-2.8721,-2.8633,-2.8486,-2.834,-2.8291,-2.8291,-2.8291,-2.8291,-2.8291,-2.8291,-2.8291,-2.8291,-2.8291,-2.8291,-2.8291,-2.8291,-2.8291,-2.8291,-2.8291,-2.8291,-2.8291,-2.8291,-2.8291,-2.8291,-2.8291,-2.8291,-2.8601,-2.946,-2.89,-2.8857,-3.0494,-2.9481,-2.9079,-3.0546,-3.0276,-3.0162,-3.0876,-3.0968,-3.0968,-3.0968,-3.0968,-3.0669,-2.9964,-2.9901,-2.9513,-2.8621,-2.8568,-2.8814,-2.9365,-2.9723,-3.0639,-3.2072,0.0,0.0,0.0,0.0,0.0,0.0,0.0,0.0,0.0,0.0,0.0,0.0,0.0,0.0,0.0,0.0,0.0,0.0,0.0,0.0,0.0,0.0,0.0,-2.831,-2.831,-2.831,-2.833,-2.8691,-2.8935,-2.8935,-2.9316,-2.9636,-2.9646,-2.9646,-2.9655,-2.9665,-2.9665,-2.9665,-2.9665,-3.0,-3.0215,-3.0215,-3.0664,-3.0889,-3.0889,-3.0889,-3.0889,-3.0889,-3.0889,-3.0889,-3.0889,-3.0889,-3.0889,-3.0889,-3.0889,-3.0625,-3.0176,-2.9756,-2.9636,-2.9626,-2.9626,-2.9307,-2.8877,-2.8457,-2.831,-2.831,-2.8301,-2.8291,-2.8291,-2.8291,-2.8291,-2.8291,-2.8291,-2.8291,-2.8291,-2.8291,-2.8291,-2.8291,-2.8291,-2.8291,-2.8291,-2.8291,-2.8291,-2.8291,-2.8291,-2.8291,-2.8291,-2.8291,-2.8291,-2.8291,-2.8291,-2.8291,0.0,-2.8291,-2.8291,-2.8291,-2.8291,-2.8291,-2.8291,-2.8291,-2.8291,-2.8291,-2.8291,-2.8291,-2.8291,-2.8291,-2.8291,-2.8291,-2.8291,-2.9365,-2.9922,-2.9922,0.0,0.0,0.0,0.0,0.0,0.0,0.0,0.0,0.0,0.0,0.0,0.0,0.0,0.0,0.0,0.0,0.0,0.0,0.0,0.0,0.0,0.0,-2.875,-2.875,-2.875,-2.8867,-2.918,-2.9316,-2.9394,-2.9394,-2.9502,-2.9697,-3.0,-3.0029,-3.0166,-3.0508,-3.0527,-3.0527,-3.0527,-3.0635,-3.0703,-3.0703,-3.083,-3.0889,-3.0889,-3.0889,-3.0889,-3.0889,-3.0889,-3.0889,-3.0889,-3.0889,-3.0889,-3.0889,-3.0889,-3.081,-3.0654,-3.0195,-2.9834,-2.9626,-2.9626,-2.9492,-2.9326,-2.8896,-2.875,-2.8701,-2.8389,-2.8291,-2.8291,-2.8291,-2.8291,-2.8291,-2.8291,-2.8291,-2.8291,-2.8291,-2.8291,-2.8291,-2.8291,-2.8291,-2.8291,-2.8291,-2.8291,-2.8291,-2.8291,-2.8291,-2.8291,-2.8291,-2.8291,-2.8291,-2.8291,0.0,0.0,-2.8291,-2.8291,-2.8291,-2.8291,-2.8291,-2.8291,-2.8291,-2.8291,-2.8291,-2.8291,-2.8291,-2.8291,-2.8291,-2.8291,-2.8291,-2.8291,-2.9365,-2.9922,0.0,0.0,0.0,0.0,0.0,0.0,0.0,0.0,0.0,0.0,0.0,0.0,0.0,0.0,0.0,0.0,0.0,0.0,0.0,0.0,0.0,0.0,-2.9189,-2.9258,-2.9434,-2.9307,-2.9287,-2.9597,-2.9726,-2.9834,-2.9834,-3.001,-3.0225,-3.0469,-3.0488,-3.0605,-3.0879,-3.0889,-3.0889,-3.0889,-3.0889,-3.0889,-3.0889,-3.0889,-3.0889,-3.0889,-3.0889,-3.0889,-3.0889,-3.0889,-3.0889,0.0,-3.0889,-3.0889,-3.0889,-3.0889,-3.0889,0.0,0.0,0.0,0.0,0.0,-2.9834,-2.9775,-2.9346,-2.9189,-2.9121,-2.8691,-2.8555,-2.8525,-2.834,-2.8291,-2.8291,-2.8291,-2.8291,-2.8291,-2.8291,-2.8291,-2.8291,-2.8291,-2.8291,-2.8291,-2.8291,-2.8291,-2.8291,-2.8291,0.0,0.0,-2.8291,-2.8291,-2.8291,-2.8291,-2.8291,-2.8291,-2.8291,-2.8291,-2.8291,-2.8291,-2.8291,-2.8291,-2.8291,-2.8291,0.0,0.0,0.0,-2.8291,-2.8291,-2.8291,0.0,0.0,0.0,-2.9207,0.0,0.0,0.0,0.0,-3.1165,-3.1575,0.0,0.0,0.0,0.0,0.0,0.0,0.0,0.0,0.0,0.0,0.0,0.0,0.0,0.0,0.0,0.0,-2.9695,-2.9785,-3.0215,-2.9951,-2.9773,-2.9773,-3.0049,-3.0273,-3.0273,-3.0644,-3.0889,-3.0889,-3.0889,-3.0918,-3.0957,0.0,0.0,0.0,0.0,-3.0957,-3.0957,-3.0918,-3.0889,-3.0889,-3.0889,-3.0889,-3.0889,-3.0889,-3.0889,-3.0889,-3.0889,-3.0889,-3.0889,-3.0889,-3.0889,-3.0889,-3.0889,-3.0889,-3.084,-3.043,-3.0273,0.0,0.0,0.0,0.0,-2.9131,-2.8955,-2.8848,-2.8476,-2.833,-2.8291,-2.8291,-2.8291,-2.8291,-2.8291,-2.8291,-2.8291,-2.8291,-2.8291,-2.8291,-2.8291,-2.8291,-2.8291,-2.8291,-2.8291,-2.8291,-2.8291,-2.8291,-2.8291,-2.8291,-2.8291,-2.8291,-2.8291,-2.8291,-2.8291,-2.8291,0.0,0.0,-2.8291,-2.8291,-2.8291,-2.8291,-2.8291,-2.8291,-2.8291,-2.8291,-2.8291,-2.8291,-2.8291,-2.8291,-2.8291,-2.8291,-2.8291,-2.8344,-3.0297,-3.1216,0.0,0.0,0.0,0.0,0.0,0.0,0.0,0.0,0.0,0.0,0.0,0.0,0.0,0.0,0.0,-3.0019,-3.0078,-3.0234,-3.0693,-3.0693,-3.0635,-3.0635,-3.0703,-3.0752,-3.0752,-3.084,-3.0889,-3.0889,-3.0889,-3.1035,-3.1377,-3.1396,0.0,-3.1914,-3.1582,-3.1396,-3.1396,-3.1064,-3.0889,-3.0889,0.0,0.0,-3.0889,-3.0889,-3.0889,-3.0889,-3.0889,-3.0889,-3.0889,-3.0889,-3.0889,-3.0889,-3.0889,-3.0889,-3.0879,-3.0791,-3.0752,-3.0693,-3.0234,-3.0078,-3.001,-2.958,-2.9209,-2.8906,-2.8818,-2.8564,0.0,-2.8291,-2.8291,-2.8291,-2.8291,-2.8291,-2.8291,-2.8291,-2.8291,-2.8291,-2.8291,-2.8291,-2.8291,-2.8291,-2.8291,-2.8291,-2.8291,-2.8291,-2.8291,-2.8291,-2.8291,-2.8291,-2.8291,-2.8291,-2.8291,-2.8291,-2.8291,-2.8291,-2.8291,-2.8291,-2.8291,-2.8291,-2.8291,-2.8291,-2.8291,-2.8291,-2.8291,-2.8291,-2.8291,-2.8291,-2.8291,-2.8291,-2.8291,-2.8291,-2.8761,-2.8963,0.0,0.0,0.0,0.0,0.0,0.0,0.0,0.0,0.0,0.0,0.0,-2.956,0.0,0.0,-3.0303,-3.0508,-3.0547,-3.0625,-3.0859,-3.0889,-3.0889,-3.0889,-3.0889,-3.0889,-3.0889,-3.1074,-3.1201,-3.1201,-3.1406,-3.1621,-3.1836,-3.1846,-3.1943,-3.2158,-3.1953,-3.1846,-3.1846,-3.1641,-3.1533,-3.1533,-3.1309,-3.1201,-3.1201,-3.0986,-3.0889,-3.0889,-3.0889,-3.0889,-3.0889,-3.0889,-3.0889,-3.0889,-3.0889,-3.0889,-3.0889,-3.0889,-3.0889,-3.0859,-3.0625,-3.0547,-3.0469,-3.0029,-2.9736,-2.9521,-2.9307,-2.8945,-2.8603,-2.8603,-2.8457,-2.8291,-2.8291,-2.8291,-2.8291,-2.8291,-2.8291,-2.8291,-2.8291,-2.8291,-2.8291,-2.8291,-2.8291,-2.8291,-2.8291,-2.8291,-2.8291,-2.8291,-2.8291,-2.8291,-2.8291,-2.8291,-2.8291,-2.8291,-2.8291,-2.8291,-2.8291,-2.8291,-2.8291,-2.8291,-2.8291,-2.8291,-2.8291,-2.8291,-2.8291,-2.8291,-2.8291,-2.8291,-2.8291,-2.8291,-2.8291,-2.8291,-2.8291,-2.8291,0.0,0.0,0.0,0.0,0.0,0.0,0.0,0.0,-3.0195,-3.0195,-3.0195,-3.0195,-3.0195,-3.0576,-3.0889,-3.0889,-3.0889,-3.0889,-3.0889,-3.0889,-3.0918,-3.1006,-3.1016,-3.1016,-3.1016,-3.1396,-3.1641,-3.1641,-3.1973,-3.2207,-3.2285,-3.2285,-3.2324,-3.2412,-3.2334,-3.2285,-3.2285,-3.2268,-3.2229,-3.2229,-3.1816,-3.1601,-3.1504,-3.1162,-3.0967,-3.0889,-3.0889,-3.0889,-3.0889,-3.0889,-3.0889,-3.0889,-3.0889,-3.0889,-3.0889,-3.0889,-3.0889,-3.0889,-3.0889,-3.0889,-3.083,-3.0449,-3.0273,-3.0137,-2.9795,-2.9394,-2.9043,-2.9043,-2.8799,-2.8516,-2.8437,-2.8418,-2.8398,-2.831,-2.8291,-2.8291,-2.8291,-2.8291,-2.8291,-2.8291,-2.8291,-2.8291,-2.8291,-2.8291,-2.8291,-2.8291,-2.8291,-2.8291,-2.8291,-2.8291,-2.8291,-2.8291,-2.8291,-2.8291,-2.8291,-2.8291,-2.8291,-2.8291,-2.8291,-2.8291,-2.8291,-2.8291,-2.8291,-2.8291,-2.8291,-2.8291,-2.8291,-2.8291,-2.8291,-2.8291,-2.8291,-2.8291,-3.0889,-3.0889,-3.0889,-3.0889,-3.0889,-3.0889,0.0,0.0,-3.0195,-3.0195,-3.0195,-3.0195,-3.0195,-3.0576,-3.0889,-3.0889,-3.0889,-3.0889,-3.0889,-3.0889,-3.1025,-3.1406,-3.1445,-3.1445,-3.1445,-3.1836,-3.21,-3.21,-3.2139,-3.2334,-3.2705,-3.2725,-3.29,-3.3271,-3.292,-3.2725,-3.2725,-3.2353,-3.2229,-3.2229,-3.2119,-3.1894,-3.1514,-3.1465,-3.124,-3.0889,-3.0889,-3.0889,-3.0889,-3.0889,-3.0889,-3.0889,-3.0889,-3.0889,-3.0889,-3.0889,-3.0889,-3.0889,-3.0889,-3.0889,-3.0889,-3.083,-3.0537,-3.0185,-3.0137,-2.9834,-2.9502,-2.9502,-2.9463,-2.9336,-2.8955,-2.8848,-2.875,-2.8379,-2.8291,-2.8291,-2.8291,-2.8291,-2.8291,-2.8291,-2.8291,-2.8291,-2.8291,-2.8291,-2.8291,-2.8291,-2.8291,-2.8291,-2.8291,-2.8291,-2.8291,-2.8291,-2.8291,-2.8291,-2.8291,-2.8291,-2.8291,-2.8291,-2.8291,-2.8291,-2.8291,-2.8291,-2.8291,-2.8291,-2.8291,-2.8291,-2.8291,-2.8291,-2.8291,-2.8291,-2.8291,-2.8291,-3.0889,-3.0889,-3.0889,-3.0889,-3.0889,-3.0889,-3.0889,-3.0742,-3.0605,-3.0605,-3.0605,-3.0605,-3.0605,-3.0762,-3.0889,0.0,-3.0889,-3.0889,-3.0889,-3.1103,-3.1318,-3.1494,-3.1963,-3.2168,-3.1924,-3.2285,-3.2529,-3.2529,-3.2764,-3.2969,-3.3144,-3.3164,-3.3242,-3.3418,-3.3252,-3.3164,-3.3164,-3.2978,-3.29,-3.29,-3.2656,-3.2441,-3.2256,-3.2012,-3.166,-3.124,-3.0996,-3.0889,-3.0889,-3.0889,-3.0889,-3.0889,-3.0889,-3.0889,-3.0889,-3.0889,-3.0889,-3.0889,-3.0889,-3.0889,-3.0889,-3.0889,-3.0762,-3.0605,-3.0605,-3.0293,-2.9932,-2.9932,-2.9756,-2.9531,-2.9346,-2.9297,-2.9248,-2.9082,-2.8838,-2.8662,-2.8662,-2.8467,-2.8291,-2.8291,-2.8291,-2.8291,-2.8291,-2.8291,-2.8291,-2.8291,-2.8291,-2.8291,-2.8291,-2.8291,-2.8291,-2.8291,-2.8291,-2.8291,-2.8291,-2.8291,-2.8291,-2.8291,-2.8291,-2.8291,-2.8291,-2.8291,-2.8291,-2.8291,-2.813,-2.8077,-2.8077,-2.7853,-2.7755,-2.7755,-2.7755,-2.7862,-3.0889,-3.0889,-3.0889,-3.0889,-3.0889,-3.0889,-3.0889,-3.0889,-3.0889,-3.0889,-3.0889,-3.0889,-3.0889,-3.0889,-3.0889,-3.0889,-3.0889,-3.0928,-3.1045,-3.1328,-3.1601,-3.1846,-3.2422,-3.2725,-3.2529,-3.2793,-3.2969,-3.2969,-3.3252,-3.3418,-3.3418,-3.3418,-3.3418,-3.3418,-3.3418,-3.3418,-3.3418,-3.3418,-3.3418,-3.3418,-3.3115,-3.291,-3.2783,-3.2363,-3.1992,-3.167,-3.125,-3.1064,-3.1055,-3.0937,-3.0889,-3.0889,-3.0889,-3.0889,-3.0889,-3.0889,-3.0889,-3.0889,-3.0889,-3.0889,-3.0889,-3.0889,-3.0889,-3.0889,-3.0889,-3.0654,-3.0391,-3.0391,-3.0166,-2.9902,-2.9775,-2.9746,-2.9717,-2.9655,-2.9326,-2.9092,-2.9092,-2.8857,-2.8613,-2.8486,-2.8467,-2.8428,-2.831,-2.8291,-2.8291,-2.8184,-2.8184,-2.8237,-2.8291,-2.8291,-2.8291,-2.8291,-2.8291,-2.8291,-2.8184,-2.8237,-2.8291,-2.8184,-2.8237,-2.8291,-2.8291,-2.8237,-2.8184,-2.8184,-2.7916,-2.7745,-2.7745,-2.7539,-2.7377,-2.7377,-2.7377,-2.753,-3.0889,-3.0889,-3.0889,-3.0889,-3.0889,-3.0889,-3.0889,-3.0889,-3.0889,-3.0889,-3.0889,-3.0889,-3.0889,-3.0889,-3.0889,-3.0889,-3.0889,-3.1035,-3.1445,-3.1514,-3.1826,-3.2656,-3.2773,-3.2949,0.0,-3.3389,-3.3408,-3.3408,-3.3418,-3.3418,-3.3418,-3.3418,-3.3418,-3.3418,-3.3418,-3.3418,-3.3418,-3.3418,-3.3418,-3.3418,-3.3408,-3.3193,-3.2783,-3.2363,-3.2158,-3.2129,-3.1689,-3.1504,-3.1465,-3.1055,-3.0889,-3.0889,-3.0889,-3.0889,-3.0889,-3.0889,-3.0889,-3.0889,-3.0889,-3.0889,-3.0889,-3.0889,-3.0889,-3.0889,-3.0889,-3.0879,-3.0869,-3.0869,-3.0859,-3.0752,-3.0293,-3.0176,-3.0078,-2.9668,-2.9616,-2.9551,-2.9551,-2.9597,-2.9404,-2.8984,-2.8896,-2.8769,-2.8359,-2.8291,-2.8237,-2.796,-2.7906,-2.8014,-2.8291,-2.8291,-2.8291,-2.8291,-2.8291,-2.8184,-2.7906,-2.8121,-2.8184,-2.7906,-2.8184,-2.8291,-2.8291,-2.8067,-2.7906,-2.7906,-2.7584,-2.7431,-2.7431,-2.7377,-2.7377,-2.7377,-2.7377,-2.7431,-3.0889,-3.0889,-3.0889,-3.0889,-3.0889,-3.0889,-3.0889,-3.0889,-3.0889,-3.0889,-3.0889,-3.0889,-3.0889,-3.0889,-3.0889,-3.0889,-3.0889,-3.1035,-3.1455,-3.1768,-3.2158,-3.2725,-3.3037,0.0,0.0,0.0,0.0,-3.3418,-3.3418,-3.3418,-3.3418,-3.3418,-3.3418,-3.3418,-3.3418,-3.3418,-3.3418,-3.3418,-3.3418,-3.3418,-3.3418,-3.335,-3.3193,-3.2773,-3.2588,-3.2559,-3.2139,-3.1787,-3.1504,-3.1367,-3.1015,-3.0577,-3.082,-3.0762,-3.0577,-3.083,-3.0889,-3.0889,-3.0889,-3.0889,-3.0889,-3.0889,-3.0889,-3.0889,-3.0889,-3.0889,-3.0889,-3.0889,-3.0889,-3.0859,-3.0703,-3.0654,-3.0625,-3.0478,-3.0215,-2.999,-2.999,-2.9766,-2.9531,-2.9385,-2.9189,-2.8974,-2.8839,-2.8404,-2.7962,-2.7631,-2.7593,-2.7584,-2.7701,-2.7701,-2.7701,-2.7701,-2.7701,-2.7647,-2.7593,-2.7647,-2.7647,-2.7593,-2.7647,-2.7701,-2.7701,-2.7647,-2.7593,-2.7593,-2.726,-2.7152,-2.7152,-2.6954,-2.6854,-2.6854,-2.6854,-2.6954,-3.0762,-3.0704,-3.0704,-3.0587,-3.0528,-3.0528,-3.0528,-3.0645,-3.0704,-3.0587,-3.0704,-3.0889,-3.0762,-3.083,-3.0889,-3.0889,-3.1016,-3.126,-3.1689,-3.2119,-3.2549,-3.2969,-3.3252,-3.3418,0.0,0.0,0.0,-3.3418,-3.3418,-3.3418,-3.3418,-3.3418,-3.3418,-3.3418,-3.3418,-3.3418,-3.3418,-3.3418,-3.3418,-3.3418,-3.3418,-3.3418,-3.3408,-3.3144,-3.3018,-3.2998,-3.2578,-3.2226,-3.1953,-3.1641,-3.117,-3.0594,-3.0694,-3.0518,-3.0274,-3.046,-3.0645,-3.0762,-3.083,-3.0889,-3.0889,-3.0889,-3.0889,-3.0889,-3.0889,-3.0889,-3.0889,-3.0889,-3.0889,-3.0889,-3.0889,-3.0889,-3.0889,-3.0889,-3.0664,-3.0449,-3.0449,-3.0234,-3.0,-2.9721,-2.9523,-2.9248,-2.8992,-2.8454,-2.7901,-2.7552,-2.7386,-2.733,-2.7396,-2.7377,-2.7377,-2.7377,-2.7377,-2.7377,-2.7269,-2.7323,-2.7377,-2.726,-2.7377,-2.7377,-2.7377,-2.7323,-2.726,-2.726,-2.6999,-2.6836,-2.6836,-2.6691,-2.6591,-2.6591,-2.6591,-2.6691,-3.0509,-3.0382,-3.0333,-2.9981,-2.9922,-2.9922,-2.9922,-3.0157,-3.0274,-2.9981,-3.0411,-3.0762,0.0,0.0,-3.0889,-3.0889,-3.123,-3.1641,-3.21,-3.251,-3.293,0.0,0.0,0.0,0.0,0.0,0.0,-3.3418,0.0,-3.3418,-3.3418,-3.3418,-3.3418,-3.3418,-3.3418,-3.3418,-3.3418,-3.3418,-3.3418,-3.3418,-3.3418,-3.3418,-3.3418,-3.3418,-3.3418,-3.3398,-3.2998,-3.2812,-3.2734,-3.1914,-3.1304,-3.0959,-3.0565,-3.0176,-2.9863,-2.9863,-3.0098,-3.0392,-3.0762,-3.0889,-3.0889,-3.0889,-3.0889,-3.0889,-3.0889,-3.0889,-3.0889,-3.0889,-3.0889,-3.0889,-3.0889,-3.0889,-3.0889,-3.0889,-3.0889,-3.0889,-3.0889,-3.0889,-3.0645,-2.994,-2.9805,-2.9546,-2.8729,-2.838,-2.806,-2.766,-2.7364,-2.7253,-2.7326,-2.7377,-2.7377,-2.7377,-2.7377,-2.7269,-2.6989,-2.7215,-2.7269,-2.6989,-2.7215,-2.7377,-2.7377,-2.7098,-2.6989,-2.6989,-2.6736,-2.6591,-2.6591,-2.6591,-2.6591,-2.6591,-2.6591,-2.6591,-3.082,-3.0577,-3.0382,-3.0265,-3.0098,-2.9922,-2.9922,-2.9981,-2.9981,-2.9922,-3.0216,-3.0509,0.0,0.0,0.0,-3.0889,-3.0986,0.0,-3.206,-3.2256,0.0,-3.334,0.0,-3.3418,-3.3418,-3.3175,0.0,0.0,-3.3418,-3.3418,-3.3418,-3.3418,-3.3418,-3.3418,-3.3418,-3.3418,-3.3418,-3.3418,-3.3418,-3.3418,-3.3418,-3.3418,-3.3418,-3.3418,-3.3418,-3.3418,-3.331,-3.3086,-3.2773,-3.2559,-3.1786,-3.0717,-3.0832,-3.0365,-2.9627,-2.9804,-2.9922,-3.0039,-3.0108,-3.047,-3.0889,-3.0889,-3.0889,-3.0889,-3.0889,-3.0889,-3.0889,-3.0889,-3.0889,-3.0889,-3.0889,-3.0889,-3.0889,-3.0889,-3.0889,-3.083,-3.0577,-3.0509,-3.0421,-2.9965,-2.9702,-2.9336,-2.8596,-2.8406,-2.821,-2.7796,-2.7427,-2.7087,-2.6855,-2.68,-2.68,-2.68,-2.68,-2.68,-2.6691,-2.6745,-2.6745,-2.6691,-2.6745,-2.68,-2.68,-2.6745,-2.6691,-2.6691,-2.6636,-2.6591,-2.6591,-2.6591,-2.6591,-2.6591,-2.6591,-2.6591,-3.0704,-3.0509,-3.0382,-3.0216,-3.0039,-2.9922,-2.9922,-2.9922,-2.9922,-2.9922,-3.0157,-3.0382,-3.0382,-3.0694,0.0,0.0,0.0,0.0,-3.1898,-3.2141,-3.25,0.0,-3.3418,0.0,-3.3418,-3.3111,-3.3048,0.0,-3.3228,-3.3228,-3.3418,-3.3418,-3.3418,-3.3418,-3.3418,-3.3418,-3.3418,-3.3418,-3.3418,-3.3418,-3.3418,-3.3418,-3.3418,-3.3418,-3.3418,-3.3418,0.0,-3.3165,-3.2806,-3.2622,-3.1894,-3.0875,-3.0689,-3.0156,-2.9513,-2.9515,-2.9627,-2.9745,-2.9745,-3.0049,-3.047,-3.0645,-3.0762,-3.0889,-3.0889,-3.0889,-3.0889,-3.0889,-3.0889,-3.0889,-3.0889,-3.0889,-3.0889,-3.0889,-3.0762,-3.0635,-3.045,-3.0274,-3.0098,-2.9804,-2.9509,-2.9148,-2.875,-2.8654,-2.8517,-2.8104,-2.7847,-2.7563,-2.716,-2.6802,-2.6591,-2.6591,-2.6591,-2.6591,-2.6591,-2.6591,-2.6591,-2.6591,-2.6591,-2.6591,-2.6591,-2.6591,-2.6591,-2.6591,-2.6591,-2.6591,-2.6591,-2.6591,-2.6591,-2.6591,-2.6591,-2.6591,-3.0577,-3.045,-3.0323,-3.0039,-2.9922,-2.9922,-2.9922,-2.9922,-2.9922,-2.9922,-3.0157,-3.0382,-3.0382,-3.0694,-3.0762,-3.045,0.0,-3.1221,-3.1623,-3.2046,-3.2585,-3.3306,-3.3355,-3.3355,-3.3418,-3.3048,-3.2985,-3.3292,-3.3048,-3.2985,-3.3355,-3.3418,-3.3418,-3.3418,-3.3418,-3.3418,-3.3418,-3.3418,-3.3418,-3.3418,-3.3418,-3.3418,-3.3418,-3.3418,-3.3418,-3.3418,0.0,0.0,-3.2892,-3.2474,-3.1907,-3.1211,-3.0512,-2.9985,-2.9586,-2.9186,-2.9259,-2.945,-2.945,-2.9627,-2.9922,-3.0216,-3.0518,-3.0772,-3.0772,-3.0772,-3.0772,-3.083,-3.0772,-3.0772,-3.083,-3.083,-3.083,-3.0772,-3.0577,-3.0382,-3.0333,-3.0039,-2.9686,-2.9509,-2.9213,-2.8984,-2.8984,-2.8984,-2.8865,-2.8526,-2.8425,-2.826,-2.7893,-2.716,-2.6664,-2.6664,-2.6619,-2.6591,-2.6591,-2.6591,-2.6591,-2.6591,-2.6591,-2.6591,-2.6591,-2.6591,-2.6591,-2.6591,-2.6591,-2.6591,-2.6591,-2.6591,-2.6591,-2.6591,-2.6591,-2.6591,-3.083,-3.0635,-3.0392,-3.0323,-3.0098,-2.9922,-2.9922,-2.9922,0.0,-2.9922,-3.0157,-3.0382,-3.0382,-3.0694,-3.0762,-3.045,-3.0984,-3.148,-3.1684,-3.2046,-3.2585,0.0,-3.3175,0.0,0.0,0.0,0.0,0.0,0.0,0.0,-3.3355,-3.3418,-3.3418,-3.3418,-3.3418,-3.3418,-3.3418,-3.3418,-3.3418,-3.3418,-3.3418,-3.3418,-3.3418,-3.3418,-3.3418,-3.3355,0.0,0.0,-3.2848,-3.2537,-3.1973,-3.1267,-3.1127,-3.0476,-2.9562,-2.9498,-2.9319,-2.9103,-2.9103,-2.9272,-2.9627,-2.9922,-3.0039,-3.0049,-3.0049,-3.0049,-3.0108,-3.0392,-3.0284,-3.0157,-3.0392,-3.0509,-3.0392,-3.0157,-3.0216,-3.0265,-2.9736,-2.939,-2.9163,-2.9103,-2.9044,-2.8984,-2.8984,-2.8984,-2.8966,-2.8893,-2.8599,-2.837,-2.8297,-2.7581,-2.7077,-2.7077,-2.6784,-2.6591,-2.6591,-2.6591,-2.6591,-2.6591,-2.6591,-2.6591,-2.6591,-2.6591,-2.6591,-2.6591,-2.6591,-2.6591,-2.6591,-2.6591,-2.6591,-2.6591,-2.6591,-2.6591,-3.0889,-3.0762,-3.0645,-3.0645,-3.0528,-3.0411,-3.0411,0.0,0.0,-3.0401,-3.0401,-3.045,-3.0635,-3.0762,-3.084,-3.0739,-3.1001,-3.1368,-3.1717,-3.2047,-3.2459,-3.281,-3.3048,0.0,0.0,0.0,0.0,0.0,0.0,0.0,-3.3111,-3.3301,-3.3418,-3.3418,-3.3418,-3.3418,-3.3418,-3.3418,-3.3418,-3.3418,-3.3418,-3.3418,-3.3418,-3.3418,-3.3418,-3.3355,0.0,0.0,-3.2603,-3.2294,-3.1853,-3.132,-3.1117,-3.0611,-2.9874,-2.9654,-2.9324,-2.8984,-2.8984,-2.9103,-2.9272,-2.939,-2.9627,-2.9922,-2.9922,-2.9922,-2.9922,-3.0098,-3.0039,-2.9922,-3.0098,-3.0157,-3.0098,-2.9922,-2.9922,-2.9795,-2.9331,-2.9094,-2.8984,-2.8984,-2.8984,-2.8984,-2.8984,-2.8984,-2.8984,-2.8984,-2.8819,-2.87,-2.87,-2.8177,-2.7646,-2.7224,-2.7004,-2.6811,-2.6609,-2.6591,-2.6591,-2.6591,-2.6591,-2.6591,-2.6591,-2.6591,-2.6591,-2.6591,-2.6591,-2.6591,-2.6591,-2.6591,-2.6591,-2.6591,-2.6591,-2.6591,-3.0889,-3.0889,-3.0889,-3.0889,-3.0889,-3.0889,-3.0889,-3.0704,-3.0577,-3.083,-3.0694,-3.0577,-3.083,-3.0967,-3.1005,-3.1009,-3.1161,-3.1456,-3.187,-3.2123,-3.2377,0.0,-3.2921,0.0,0.0,0.0,0.0,0.0,0.0,0.0,-3.2858,-3.3238,-3.3418,-3.3418,-3.3418,-3.3418,-3.3418,-3.3418,-3.3418,-3.3418,-3.3418,-3.3355,-3.3292,-3.3355,-3.3301,-3.3175,0.0,0.0,0.0,-3.191,-3.1644,-3.135,-3.1038,-3.0671,-3.0277,-2.9865,-2.9452,-2.9094,-2.9012,-2.8984,-2.8984,-2.8984,-2.9331,-2.9695,-2.9695,-2.9695,-2.9745,-2.9804,-2.9745,-2.9745,-2.9804,-2.9804,-2.9804,-2.9804,-2.9627,-2.9331,-2.9044,-2.8984,-2.8984,-2.8984,-2.8984,-2.8984,-2.8984,-2.8984,-2.8984,-2.8984,-2.8984,-2.8984,-2.8984,-2.8709,-2.8242,-2.7517,-2.7279,-2.705,-2.6738,-2.6637,-2.6591,-2.6591,-2.6591,-2.6591,-2.6591,-2.6591,-2.6591,-2.6591,-2.6591,-2.6591,-2.6591,-2.6591,-2.6591,-2.6591,-2.6591,-2.6591,-3.0889,-3.0889,-3.0889,-3.0889,-3.0889,-3.0889,-3.0889,0.0,-3.0889,-3.0889,-3.0889,-3.0889,-3.0889,-3.1201,-3.1346,-3.1067,-3.1661,-3.2209,-3.2234,-3.2318,-3.2502,-3.2794,0.0,0.0,0.0,0.0,0.0,0.0,0.0,0.0,0.0,-3.3238,-3.3418,-3.3418,-3.3418,-3.3418,-3.3418,-3.3418,-3.3418,-3.3418,-3.3418,-3.3238,-3.2985,-3.3228,-3.3048,-3.2485,0.0,0.0,0.0,-3.158,-3.1442,-3.1377,-3.1341,-3.1084,-3.069,-3.0286,-2.9874,-2.9461,-2.9104,-2.8984,-2.8984,-2.8984,-2.9044,-2.9103,-2.9103,-2.9103,-2.9163,-2.945,-2.9331,-2.9153,-2.945,-2.9568,-2.9568,-2.9568,-2.9272,-2.9044,-2.8984,-2.8984,-2.8984,-2.8984,-2.8984,-2.8984,-2.8984,-2.8984,-2.8984,-2.8984,-2.8984,-2.8984,-2.8984,-2.8948,-2.8764,-2.8333,-2.7618,-2.716,-2.7123,-2.6793,-2.6591,-2.6591,-2.6591,-2.6591,-2.6591,-2.6591,-2.6591,-2.6591,-2.6591,-2.6591,-2.6591,-2.6591,-2.6591,-2.6591,-2.6591,-2.6591,-3.0889,-3.0889,-3.0889,-3.0889,-3.0889,-3.0889,-3.0889,0.0,-3.0889,-3.0889,-3.0889,-3.0967,-3.1221,-3.1406,-3.156,-3.1761,-3.2075,0.0,-3.2084,-3.2254,-3.2294,-3.2019,-3.2221,0.0,0.0,0.0,0.0,0.0,0.0,0.0,0.0,-3.2794,-3.3111,-3.3111,-3.3111,-3.3111,-3.3111,-3.3292,-3.3418,-3.3418,-3.3418,-3.3238,-3.2921,-3.3048,-3.2858,-3.2358,0.0,0.0,0.0,-3.1515,-3.1377,-3.1377,-3.1377,-3.1139,-3.0745,-3.0341,-2.9938,-2.9516,-2.9122,-2.8984,-2.8984,-2.8984,-2.8984,-2.8984,-2.8984,-2.8984,-2.9044,-2.9153,-2.9103,-2.9044,-2.9153,-2.9213,-2.9213,-2.9213,-2.9103,-2.8984,-2.8984,-2.8984,-2.8984,-2.8984,-2.8984,-2.8984,-2.8984,-2.8984,-2.8984,-2.8984,-2.8984,-2.8984,-2.8984,-2.8984,-2.892,-2.8764,-2.8251,-2.771,-2.7215,-2.7031,-2.6839,-2.6609,-2.6591,-2.6591,-2.6591,-2.6591,-2.6591,-2.6591,-2.6591,-2.6591,-2.6591,-2.6591,-2.6591,-2.6591,-2.6591,-2.6591,-3.0889,-3.0889,-3.0889,-3.0889,-3.0889,-3.0889,-3.0889,0.0,-3.0889,-3.0889,-3.0889,-3.1025,-3.1435,-3.1621,-3.1832,-3.2252,0.0,-3.2279,-3.2065,-3.2166,-3.2102,0.0,0.0,0.0,0.0,0.0,0.0,0.0,0.0,0.0,0.0,-3.2358,-3.2667,-3.2731,-3.2858,-3.2921,-3.2921,-3.3228,-3.3418,-3.3418,-3.3292,-3.3111,-3.2731,-3.2731,-3.254,0.0,0.0,0.0,0.0,-3.1515,-3.1377,-3.1377,-3.1377,-3.1139,-3.0745,-3.0341,-2.9674,-2.8952,-2.8565,-2.843,-2.837,-2.7933,-2.837,-2.8925,-2.8549,-2.8677,-2.8984,-2.8984,-2.8984,-2.8984,-2.8984,-2.8984,-2.8984,-2.8984,-2.8984,-2.8984,-2.8984,-2.8984,-2.8984,-2.8984,-2.8984,-2.8984,-2.8984,-2.8984,-2.8984,-2.8984,-2.8984,-2.8984,-2.8984,-2.8984,-2.8984,-2.8984,-2.8737,-2.8287,-2.7591,-2.7315,-2.7059,-2.6784,-2.6655,-2.6591,-2.6591,-2.6591,-2.6591,-2.6591,-2.6591,-2.6591,-2.6591,-2.6591,-2.6591,-2.6591,-2.6591,-2.6591,-3.0889,-3.0889,-3.0889,-3.0889,-3.0889,-3.0889,-3.0889,-3.0889,-3.0889,-3.0889,-3.0889,-3.1025,-3.1435,-3.1875,-3.2244,-3.23,-3.2337,0.0,-3.2422,-3.2102,-3.1919,0.0,0.0,0.0,0.0,0.0,0.0,0.0,0.0,0.0,0.0,-3.1919,-3.2038,-3.2422,-3.2731,-3.2921,-3.2921,-3.3228,-3.3418,-3.3418,-3.3048,-3.2731,-3.2422,-3.2422,0.0,0.0,0.0,0.0,0.0,-3.1377,-3.1377,-3.1377,-3.1377,-3.1139,-3.0745,-3.0341,-2.911,-2.758,-2.715,-2.7013,-2.6771,-2.5485,-2.6831,-2.8737,-2.7444,-2.7933,-2.8984,-2.8984,-2.8984,-2.8984,-2.8984,-2.8984,-2.8984,-2.8984,-2.8984,-2.8984,-2.8984,-2.8984,-2.8984,-2.8984,-2.8984,-2.8984,-2.8984,-2.8984,-2.8984,-2.8984,-2.8984,-2.8984,-2.8984,-2.8984,-2.8984,-2.8984,-2.8975,-2.8819,-2.8416,-2.7646,-2.7178,-2.7169,-2.6802,-2.6591,-2.6591,-2.6591,-2.6591,-2.6591,-2.6591,-2.6591,-2.6591,-2.6591,-2.6591,-2.6591,-2.6591,-2.6591,-3.0889,-3.0889,-3.0889,-3.0889,-3.0889,-3.0889,-3.0889,-3.0889,-3.0889,-3.0889,-3.1123,-3.1455,-3.1885,-3.2131,-3.23,-3.2346,-3.2209,0.0,0.0,0.0,0.0,-3.158,0.0,0.0,0.0,0.0,0.0,0.0,0.0,0.0,0.0,0.0,-3.1717,-3.2047,-3.2166,-3.2358,-3.2549,-3.2858,-3.3048,-3.3048,-3.2921,-3.2613,-3.2047,-3.2047,0.0,0.0,0.0,0.0,0.0,-3.1377,-3.1377,-3.1377,-3.1377,-3.0609,-2.9505,-3.0021,-2.8543,-2.6397,-2.6837,-2.7013,-2.6952,-2.652,-2.7573,-2.8925,-2.8489,-2.8677,-2.8984,-2.8984,-2.8984,-2.8984,-2.8984,-2.8984,-2.8984,-2.8984,-2.8984,-2.8984,-2.8984,-2.8984,-2.8984,-2.8984,-2.8984,-2.8984,-2.8984,-2.8984,-2.8984,-2.8984,-2.8984,-2.8984,-2.8984,-2.8984,-2.8984,-2.8984,-2.8984,-2.8819,-2.8425,-2.8159,-2.7774,-2.7215,-2.7059,-2.6875,-2.66,-2.6591,-2.6591,-2.6591,-2.6591,-2.6591,-2.6591,-2.6591,-2.6591,-2.6591,-2.6591,-2.6591,-3.0889,-3.0889,-3.0889,-3.0889,-3.0889,0.0,-3.0889,-3.0889,-3.0889,-3.0889,-3.123,-3.159,-3.1898,-3.214,-3.2252,-3.2228,-3.2047,-3.1782,0.0,0.0,0.0,-3.1377,0.0,0.0,0.0,0.0,0.0,0.0,0.0,0.0,0.0,0.0,-3.1515,-3.1717,-3.1855,-3.2038,-3.2422,-3.2613,-3.2794,-3.2921,-3.2667,-3.2294,-3.1919,0.0,0.0,0.0,0.0,0.0,0.0,-3.1377,-3.1377,-3.1377,-3.0852,-2.9795,-2.8596,-2.8616,-2.6989,-2.4789,-2.5365,-2.5851,-2.6156,-2.566,-2.6771,-2.8241,-2.8241,-2.8609,-2.8984,-2.8984,-2.8984,-2.8984,-2.8984,-2.8984,-2.8984,-2.8984,-2.8984,-2.8984,-2.8984,-2.8984,-2.8984,-2.8984,-2.8984,-2.8984,-2.8984,-2.8984,-2.8984,-2.8984,-2.8984,-2.8984,-2.8984,-2.8984,-2.8984,-2.8984,-2.8984,-2.8883,-2.8636,-2.848,-2.8177,-2.7664,-2.7343,-2.7068,-2.682,-2.6664,-2.6591,-2.6591,-2.6591,-2.6591,-2.6591,-2.6591,-2.6591,-2.6591,-2.6591,-2.6591,0.0,-3.0889,-3.0889,-3.0889,-3.0889,-3.0889,-3.0889,-3.0889,0.0,-3.0889,-3.125,-3.156,-3.1594,-3.1975,-3.2228,-3.1918,-3.1855,-3.1782,0.0,-3.1377,0.0,0.0,0.0,0.0,0.0,0.0,0.0,0.0,0.0,0.0,0.0,0.0,-3.1377,-3.1377,-3.1717,-3.2047,-3.2358,-3.2358,-3.2549,-3.2794,-3.2166,-3.1919,-3.1855,0.0,0.0,0.0,0.0,0.0,0.0,-3.1377,-3.1313,-3.1111,-2.9761,-2.8721,-2.7765,-2.6511,-2.4809,-2.3131,-2.3201,-2.4008,-2.481,-2.3752,-2.5048,-2.7013,-2.7142,-2.7993,-2.8984,-2.8856,-2.8925,-2.8984,-2.8984,-2.8984,-2.8984,-2.8984,-2.8984,-2.8984,-2.8984,-2.8984,-2.8984,-2.8984,-2.8984,-2.8984,-2.8984,-2.8984,-2.8984,-2.8984,-2.8984,-2.8984,-2.8984,-2.8984,-2.8984,-2.8984,-2.8984,-2.8984,-2.8984,-2.8645,-2.8425,-2.8397,-2.7682,-2.7233,-2.7178,-2.682,-2.6619,-2.6591,-2.6591,-2.6591,-2.6591,-2.6591,-2.6591,-2.6591,-2.6591,-2.6591,-3.0889,0.0,-3.0889,-3.0889,-3.0889,-3.0889,0.0,-3.0889,-3.0889,-3.0889,-3.1494,-3.192,-3.1642,-3.2028,-3.2244,-3.1965,-3.1653,-3.1506,-3.1377,0.0,0.0,-3.1377,0.0,0.0,0.0,0.0,0.0,0.0,0.0,0.0,0.0,0.0,-3.1377,-3.1377,-3.1515,-3.1708,-3.1983,-3.2047,-3.2047,-3.2102,-3.1983,-3.1782,-3.1506,0.0,0.0,0.0,0.0,0.0,-3.1377,-3.1377,-3.0788,-2.977,-2.9142,-2.7318,-2.5103,-2.5613,-2.4671,-2.3263,-2.4193,-2.4748,-2.5117,-2.5851,-2.652,-2.7203,-2.8241,-2.8737,-2.8797,-2.7753,-2.8182,-2.8984,-2.8984,-2.8984,-2.8984,-2.8984,-2.8984,-2.8984,-2.8984,-2.8984,-2.8984,-2.8984,-2.8984,-2.8984,-2.8984,-2.8984,-2.8984,-2.8984,-2.8984,-2.8984,-2.8984,-2.8984,-2.8984,-2.8984,-2.8984,-2.8984,-2.8984,-2.8893,-2.8718,-2.8416,-2.8214,-2.7829,-2.7205,-2.7086,-2.6894,-2.6591,-2.6591,-2.6591,-2.6591,-2.6591,-2.6591,-2.6591,-2.6591,-2.6591,-3.0889,-3.0889,-3.0889,-3.0889,-3.0889,-3.0889,-3.0889,-3.0889,-3.0947,-3.1133,-3.1579,-3.1851,-3.1736,-3.1932,-3.2038,-3.1717,-3.1515,0.0,0.0,0.0,-3.1377,0.0,0.0,0.0,0.0,0.0,0.0,0.0,0.0,0.0,0.0,0.0,-3.1377,-3.1377,-3.0788,-3.0926,-3.1919,-3.1717,-3.1717,-3.1919,-3.1717,-3.158,-3.1377,0.0,0.0,0.0,0.0,0.0,-3.1377,-3.0714,-2.9991,-2.9165,-2.7475,-2.5758,-2.4078,-2.3875,-2.3109,-2.2404,-2.3698,-2.4502,-2.5117,-2.5851,-2.6095,-2.6095,-2.6277,-2.7134,-2.8062,-2.7933,-2.843,-2.8984,-2.8984,-2.8984,-2.8984,-2.8984,-2.9122,-2.925,-2.925,-2.925,-2.925,-2.925,-2.9104,-2.8984,-2.8984,-2.8984,-2.8984,-2.8984,-2.8984,-2.8984,-2.8984,-2.8984,-2.8984,-2.8984,-2.8984,-2.8984,-2.8984,-2.8984,-2.8893,-2.8682,-2.8498,-2.8113,-2.7528,-2.727,-2.6985,-2.6591,-2.6591,-2.6591,-2.6591,-2.6591,-2.6591,-2.6591,-2.6591,-2.6591,-3.0889,-3.0889,-3.0889,-3.0889,-3.0889,-3.0889,-3.0889,-3.0889,-3.1006,-3.1435,-3.1554,-3.1612,-3.1802,-3.184,-3.1782,-3.1442,0.0,0.0,-3.1377,-3.1377,-3.1377,0.0,0.0,0.0,0.0,0.0,0.0,0.0,0.0,0.0,0.0,0.0,0.0,-3.1377,-3.0056,-3.013,-3.1791,-3.1313,-3.1313,-3.1846,-3.1515,-3.1313,-3.1111,-3.1313,0.0,0.0,0.0,0.0,-3.064,-2.9461,-2.8838,-2.8286,-2.5568,-2.4196,-2.3551,-2.21,-2.1451,-2.1538,-2.2709,-2.3938,-2.4994,-2.4748,-2.4687,-2.4556,-2.3628,-2.5109,-2.7263,-2.837,-2.8856,-2.8993,-2.9058,-2.9076,-2.9094,-2.9149,-2.9424,-2.9663,-2.9663,-2.9663,-2.9663,-2.9663,-2.9342,-2.9076,-2.9076,-2.9021,-2.8984,-2.8984,-2.8984,-2.8984,-2.8984,-2.8984,-2.8984,-2.8984,-2.8984,-2.8984,-2.8984,-2.8984,-2.8984,-2.8984,-2.8663,-2.8269,-2.784,-2.7389,-2.6985,-2.6591,-2.6591,-2.6591,-2.6591,-2.6591,-2.6591,-2.6591,-2.6591,-2.6591,-3.0889,-3.0889,-3.0889,-3.0889,-3.0889,-3.0889,-3.0889,-3.0889,-3.1006,-3.1435,-3.1554,-3.1612,-3.1802,-3.184,-3.1782,-3.1442,0.0,-3.1377,0.0,0.0,0.0,0.0,0.0,0.0,0.0,0.0,0.0,0.0,0.0,0.0,0.0,0.0,0.0,-3.1377,-3.0056,-2.9991,-3.1451,-3.026,-3.026,-3.1515,-3.1442,-3.0788,-2.9665,-3.0852,-3.0039,0.0,0.0,-2.892,-2.771,-2.7511,-2.6624,-2.5231,-2.4509,-2.3285,-2.19,-2.1353,-2.1887,-2.2827,-2.3014,-2.3938,-2.481,-2.3752,-2.3387,-2.3574,-2.444,-2.579,-2.7013,-2.7263,-2.8122,-2.9058,-2.9397,-2.9479,-2.9571,-2.9929,-3.0057,-3.0103,-3.0103,-3.0103,-3.0103,-3.0103,-2.9764,-2.9479,-2.9479,-2.9204,-2.8984,-2.8984,-2.8984,-2.8984,-2.8984,-2.8984,-2.8984,-2.8984,-2.8984,-2.8984,-2.8984,-2.8984,-2.8984,-2.8984,-2.892,-2.8553,-2.7849,-2.7389,-2.6985,-2.6591,-2.6591,-2.6591,-2.6591,-2.6591,-2.6591,-2.6591,-2.6591,-2.6591,-3.0889,-3.0889,-3.0889,-3.0889,-3.0889,-3.0889,-3.0889,-3.0762,-3.082,-3.1419,-3.1344,-3.1247,-3.1771,-3.1725,-3.158,-3.1442,0.0,-3.1377,0.0,0.0,0.0,0.0,0.0,0.0,0.0,0.0,0.0,0.0,0.0,0.0,0.0,0.0,0.0,0.0,-3.0056,-2.96,-3.026,-2.8854,-2.8854,-3.026,-3.026,-2.9518,-2.8122,-2.878,-2.8378,-2.7113,0.0,-2.7718,-2.7031,-2.6129,-2.5321,-2.4488,-2.3212,-2.2305,-2.1645,-2.202,-2.3014,-2.4,-2.3325,-2.3938,-2.4687,-2.2654,-2.2034,-2.2153,-2.2709,-2.4309,-2.5953,-2.6212,-2.7748,-2.9342,-2.9525,-2.9736,-2.9956,-3.0158,-3.036,-3.0516,-3.0516,-3.0516,-3.0516,-3.0516,-3.0185,-2.991,-2.991,-2.9571,-2.9296,-2.9296,-2.9122,-2.8984,-2.8984,-2.8984,-2.8984,-2.8984,-2.8984,-2.8984,-2.8984,-2.8984,-2.8984,-2.8984,-2.8783,-2.8498,-2.8122,-2.7508,-2.7086,-2.6912,-2.6692,-2.6591,-2.6591,-2.6591,-2.6591,-2.6591,-2.6591,-2.6591,-3.0889,-3.0889,-3.0889,-3.0889,-3.0889,-3.0889,-3.082,-3.0577,-3.0603,-3.1242,-3.0983,-3.0903,-3.164,-3.1579,0.0,-3.1377,-3.1377,0.0,0.0,0.0,0.0,0.0,0.0,0.0,0.0,0.0,0.0,0.0,0.0,0.0,0.0,0.0,0.0,0.0,-2.9199,-2.8468,-2.8797,-2.732,-2.732,-2.8797,-2.8797,-2.7998,-2.6655,-2.698,-2.6714,-2.6121,-2.6455,-2.6447,-2.6023,-2.4657,-2.4032,-2.3844,-2.2199,-2.1761,-2.2107,-2.3171,-2.4371,-2.5301,-2.4,-2.4186,-2.4625,-2.2341,-2.1355,-2.1172,-2.1475,-2.3208,-2.5189,-2.5913,-2.7893,-2.9736,-2.9828,-3.0094,-3.036,-3.0451,-3.0708,-3.0928,-3.0928,-3.0928,-3.0928,-3.0928,-3.0607,-3.0341,-3.0341,-2.9993,-2.969,-2.9589,-2.9314,-2.9094,-2.8993,-2.8984,-2.8984,-2.8984,-2.8984,-2.8984,-2.8984,-2.8984,-2.8984,-2.8984,-2.87,-2.8489,-2.8397,-2.7792,-2.737,-2.7178,-2.6885,-2.6683,-2.6591,-2.6591,-2.6591,-2.6591,-2.6591,-2.6591,-3.0889,-3.0889,-3.0889,-3.0889,-3.0889,-3.083,-3.0509,-3.0441,-3.0458,-3.0619,-3.0663,-3.081,-3.1248,-3.1385,-3.1377,-3.1377,-3.1377,0.0,0.0,0.0,0.0,0.0,0.0,0.0,0.0,0.0,0.0,0.0,0.0,0.0,0.0,0.0,0.0,0.0,0.0,-2.5935,-2.7246,-2.5868,-2.586,-2.7246,-2.7246,-2.6522,-2.521,-2.6522,-2.5651,-2.3263,-2.4602,-2.4406,-2.3174,-2.2741,-2.2391,-2.2182,-2.1742,-2.2193,-2.3168,-2.4386,-2.5729,-2.665,-2.5301,-2.4933,-2.4748,-2.3387,-2.209,-2.1355,-2.2584,-2.3876,-2.5312,-2.7027,-2.8774,-3.0241,-3.0607,-3.0726,-3.0837,-3.1203,-3.1313,-3.1332,-3.1332,-3.1332,-3.1332,-3.1332,-3.102,-3.0745,-3.0745,-3.0415,-3.002,-2.9626,-2.9604,-2.9397,-2.903,-2.8984,-2.8984,-2.8984,-2.8984,-2.8984,-2.8984,-2.8984,-2.8984,-2.8984,-2.8957,-2.8773,-2.8416,-2.8333,-2.7948,-2.7187,-2.715,-2.6949,-2.6591,-2.6591,-2.6591,-2.6591,-2.6591,-2.6591,-3.0889,-3.0889,-3.0889,-3.0889,-3.0889,-3.083,-3.045,-3.0216,-3.017,-3.055,-3.0516,-3.0574,0.0,0.0,-3.1377,-3.1377,-3.1377,0.0,0.0,0.0,0.0,0.0,0.0,0.0,0.0,0.0,0.0,0.0,0.0,0.0,0.0,0.0,0.0,0.0,0.0,-2.6128,-2.5801,-2.527,-2.4805,-2.4527,-2.5398,-2.5068,-2.3734,-2.4263,-2.3931,-2.2934,-2.3468,-2.34,-2.2894,-2.2345,-2.2084,-2.1937,-2.1463,-2.152,-2.2097,-2.4193,-2.5301,-2.579,-2.6156,-2.5668,-2.481,-2.3512,-2.2215,-2.1355,-2.2702,-2.4215,-2.5764,-2.7506,-2.9226,-3.0598,-3.0754,-3.0974,-3.1194,-3.1341,-3.1377,-3.1377,-3.1377,-3.1377,-3.1377,-3.1377,-3.1258,-3.1148,-3.1148,-3.0827,-3.0516,-3.0351,-2.9892,-2.9577,-2.9369,-2.9131,-2.8984,-2.8984,-2.8984,-2.8984,-2.8984,-2.8984,-2.8984,-2.8984,-2.8984,-2.8911,-2.8764,-2.8526,-2.8251,-2.7939,-2.7435,-2.7105,-2.6949,-2.671,-2.6591,-2.6591,-2.6591,-2.6591,-3.0889,-3.0889,-3.0889,-3.0889,-3.0889,-3.0762,-3.0333,-3.0039,-2.9974,-3.0116,-3.0205,-3.0442,-3.1231,0.0,0.0,0.0,0.0,0.0,0.0,0.0,0.0,0.0,0.0,0.0,0.0,0.0,0.0,0.0,0.0,0.0,0.0,0.0,0.0,0.0,0.0,0.0,-2.4338,-2.4338,-2.387,-2.2934,-2.387,-2.3802,-2.2928,-2.2928,-2.2928,-2.2928,-2.2928,-2.2812,-2.2686,-2.2191,-2.1877,-2.1735,-2.1701,-2.1727,-2.2034,-2.4687,-2.5607,-2.579,-2.7142,-2.6468,-2.4871,-2.4,-2.2529,-2.1355,-2.2702,-2.4299,-2.6028,-2.7726,-2.9456,-3.0818,-3.0947,-3.1176,-3.1377,-3.1377,-3.1377,-3.1377,-3.1377,-3.1377,-3.1377,-3.1377,-3.1377,-3.1377,-3.1377,-3.1148,-3.0937,-3.0809,-3.0204,-2.9718,-2.965,-2.9232,-2.8984,-2.8984,-2.8984,-2.8984,-2.8984,-2.8984,-2.8984,-2.8984,-2.8984,-2.8984,-2.8984,-2.8728,-2.8526,-2.8397,-2.7847,-2.7435,-2.7178,-2.6903,-2.671,-2.6591,-2.6591,-2.6591,-3.0889,-3.0889,-3.0889,-3.0889,-3.0889,-3.0713,-3.0039,-2.9922,-2.9754,-2.9112,-2.9644,-3.0442,-3.1231,-3.1377,0.0,0.0,0.0,0.0,0.0,0.0,0.0,0.0,0.0,0.0,0.0,0.0,0.0,0.0,0.0,0.0,0.0,0.0,0.0,0.0,0.0,0.0,-2.2928,-2.2928,-2.2928,-2.2928,-2.2928,-2.2928,-2.2928,-2.2928,-2.2928,-2.2928,-2.2928,-2.2692,-2.2398,-2.2104,-2.1637,-2.1229,-2.2584,-2.3076,-2.338,-2.6026,-2.6952,-2.7203,-2.8489,-2.7203,-2.4994,-2.4994,-2.3208,-2.1355,-2.2709,-2.4306,-2.6036,-2.7726,-2.9456,-3.0882,-3.1277,-3.1377,-3.1377,-3.1377,-3.1377,-3.1377,-3.1377,-3.1377,-3.1377,-3.1377,-3.1377,-3.1377,-3.1377,-3.1377,-3.124,-3.0855,-3.0461,-3.0057,-2.9626,-2.9232,-2.8984,-2.8984,-2.8984,-2.8984,-2.8984,-2.8984,-2.8984,-2.8984,-2.8984,-2.8984,-2.8984,-2.8984,-2.8801,-2.8407,-2.8397,-2.7994,-2.7187,-2.7187,-2.6976,-2.6591,-2.6591,-2.6591,-3.0889,-3.0889,-3.0889,-3.0889,-3.0704,-3.045,-2.999,-2.9922,-2.9914,-2.984,-3.025,-3.0772,-3.1277,0.0,0.0,0.0,0.0,0.0,0.0,0.0,0.0,0.0,0.0,0.0,0.0,0.0,0.0,0.0,0.0,0.0,0.0,0.0,0.0,0.0,0.0,0.0,-2.2928,-2.2928,-2.2928,-2.2928,-2.2928,-2.2928,-2.2928,-2.2928,-2.2928,-2.2928,-2.2928,-2.2692,-2.2378,-2.1884,-2.1456,-2.1172,-2.1538,-2.1664,-2.1908,-2.3628,-2.4802,-2.5668,-2.6034,-2.5668,-2.4871,-2.3938,-2.2529,-2.1396,-2.2905,-2.4642,-2.6462,-2.8116,-2.9855,-3.1231,-3.135,-3.1377,-3.1377,-3.1377,-3.1377,-3.1377,-3.1377,-3.1377,-3.1377,-3.1377,-3.1377,-3.1377,-3.1377,-3.1377,-3.1341,-3.1222,-3.0873,-3.036,-2.9663,-2.9232,-2.8984,-2.8984,-2.8984,-2.8984,-2.8984,-2.8984,-2.8984,-2.8984,-2.8984,-2.8984,-2.8984,-2.8984,-2.8929,-2.881,-2.8535,-2.8269,-2.8031,-2.7737,-2.7445,-2.7004,-2.7004,-2.6857,-3.0889,-3.0889,-3.0889,-3.0889,-3.0635,-3.0274,-2.9863,-2.9627,-2.9692,-3.0091,-3.0387,-3.0726,-3.1277,-3.1377,0.0,0.0,0.0,0.0,0.0,0.0,0.0,0.0,0.0,0.0,0.0,0.0,0.0,0.0,0.0,0.0,0.0,0.0,0.0,0.0,0.0,0.0,-2.2928,-2.2928,-2.2928,-2.2928,-2.2928,-2.2928,-2.2928,-2.2928,-2.2928,-2.2914,-2.268,-2.2412,-2.2205,-2.1617,-2.1269,-2.1109,-2.1109,-2.1109,-2.1229,-2.2584,-2.3574,-2.4371,-2.5423,-2.5109,-2.4193,-2.3946,-2.2584,-2.1289,-2.239,-2.3971,-2.5782,-2.7432,-2.9168,-3.0714,-3.1249,-3.1377,-3.1377,-3.1377,-3.1377,-3.1377,-3.1377,-3.1377,-3.1377,-3.1377,-3.1377,-3.1377,-3.1377,-3.1377,-3.1377,-3.1377,-3.1038,-3.0497,-2.9672,-2.936,-2.9159,-2.9003,-2.8984,-2.8984,-2.8984,-2.8984,-2.8984,-2.8984,-2.8984,-2.8984,-2.8984,-2.8984,-2.8984,-2.8984,-2.8746,-2.8553,-2.8397,-2.8141,-2.7801,-2.7416,-2.7416,-2.7196,-3.0889,-3.0889,-3.0889,-3.0889,-3.0635,-3.0216,-2.9558,-2.9213,-2.9214,-3.003,0.0,-3.0442,-3.1231,0.0,0.0,0.0,0.0,0.0,0.0,0.0,0.0,0.0,0.0,0.0,0.0,0.0,0.0,0.0,0.0,0.0,0.0,0.0,0.0,0.0,0.0,0.0,-2.2928,-2.2928,-2.2928,0.0,-2.2928,-2.2928,-2.2928,-2.2928,-2.2846,-2.2792,-2.2231,-2.1971,-2.1904,-2.1343,-2.1109,-2.1109,-2.1109,-2.1109,-2.1229,-2.2459,-2.3014,-2.3442,-2.5843,-2.5109,-2.3263,-2.4432,-2.3146,-2.1169,-2.1561,-2.2797,-2.444,-2.6216,-2.7941,-2.96,-3.1046,-3.1377,-3.1377,-3.1377,-3.1377,-3.1377,-3.1377,-3.1377,-3.1377,-3.1377,-3.1377,-3.1377,-3.1377,-3.1377,-3.1377,-3.1377,-3.1038,-3.0506,-2.9727,-2.9599,-2.9424,-2.9021,-2.8984,-2.8984,-2.8984,-2.8984,-2.8984,-2.8984,-2.8984,-2.8984,-2.8984,-2.8984,-2.8984,-2.8984,-2.8984,-2.881,-2.8443,-2.8443,-2.8232,-2.782,-2.782,-2.7666,-3.0889,-3.0889,-3.0889,-3.0889,-3.047,-2.9863,-2.9281,-2.9044,-2.9214,-3.003,-3.0204,-3.0442,0.0,0.0,0.0,0.0,0.0,0.0,0.0,0.0,0.0,0.0,0.0,0.0,0.0,0.0,0.0,0.0,0.0,0.0,0.0,0.0,0.0,0.0,0.0,-2.2928,-2.2928,-2.2928,-2.2928,0.0,-2.2928,-2.2928,-2.2928,-2.2928,-2.2739,-2.2492,-2.2138,-2.1857,-2.1681,-2.1256,-2.1109,-2.1109,-2.1109,-2.1109,-2.1109,-2.1411,-2.2215,-2.3193,-2.3752,-2.3566,-2.3139,-2.345,-2.2404,-2.1209,-2.1737,-2.2965,-2.4485,-2.644,-2.813,-2.96,-3.1046,-3.1377,-3.1377,-3.1377,-3.1377,-3.1377,-3.1377,-3.1377,-3.1377,-3.1377,-3.1377,-3.1377,-3.1377,-3.1377,-3.1377,-3.1377,-3.1038,-3.0616,-3.013,-2.9773,-2.9424,-2.9021,-2.8984,-2.8984,-2.8984,-2.8984,-2.8984,-2.8984,-2.8984,-2.8984,-2.8984,-2.8984,-2.8984,-2.8984,-2.8984,-2.8938,-2.8856,-2.8856,-2.8654,-2.826,-2.826,-2.804,-3.0889,-3.0889,-3.083,-3.0528,-3.0167,-2.9745,-2.9163,-2.8984,-2.9159,-2.9773,-3.0057,-3.0442,0.0,0.0,0.0,0.0,0.0,0.0,0.0,0.0,0.0,0.0,0.0,0.0,0.0,0.0,0.0,0.0,0.0,0.0,0.0,0.0,0.0,0.0,-2.2928,-2.2928,-2.2928,-2.2928,-2.2928,-2.2928,-2.2928,-2.2928,-2.2928,-2.2928,-2.2699,-2.2405,-2.2111,-2.1817,-2.1594,-2.1229,-2.1109,-2.1109,-2.1109,-2.1109,-2.1109,-2.1109,-2.1538,-2.2215,-2.2889,-2.2709,-2.2278,-2.2889,-2.2215,-2.1216,-2.181,-2.2504,-2.3534,-2.5545,-2.7121,-2.8592,-2.9991,-3.0917,-3.1377,-3.1377,-3.1377,-3.1377,-3.1377,-3.1377,-3.1377,-3.1377,-3.1377,-3.1377,-3.1377,-3.1377,-3.1377,-3.1377,-3.1203,-3.0928,-3.0534,-3.0121,-2.9718,-2.9305,-2.9094,-2.8984,-2.8984,-2.8984,-2.8984,-2.8984,-2.8984,-2.8984,-2.8984,-2.8984,-2.8984,-2.8984,-2.8984,-2.8984,-2.8984,-2.8984,-2.8874,-2.8682,-2.8682,-2.8452,-3.0889,-3.0889,-3.0772,-3.0157,-2.9922,-2.9745,-2.9213,-2.9044,-2.9094,-2.9489,-2.991,0.0,0.0,0.0,0.0,0.0,0.0,0.0,0.0,0.0,0.0,0.0,0.0,0.0,0.0,0.0,0.0,0.0,0.0,0.0,0.0,0.0,-2.2928,-2.2928,-2.2928,-2.2928,-2.2928,-2.2928,-2.2928,-2.2928,-2.2928,-2.2928,-2.2928,-2.2812,-2.2625,-2.2331,-2.2091,-2.179,-2.1521,-2.1209,-2.1109,-2.1109,-2.1109,-2.1109,-2.1109,-2.1109,-2.1109,-2.1292,-2.2647,-2.2215,-2.1292,-2.2647,-2.2251,-2.1283,-2.1824,-2.2024,-2.2496,-2.4444,-2.5994,-2.7445,-2.8937,-3.0325,-3.1377,-3.1377,-3.1377,-3.1377,-3.1377,-3.1377,-3.1377,-3.1377,-3.1377,-3.1377,-3.1377,-3.1377,-3.1377,-3.1377,-3.1377,-3.1167,-3.0511,-3.0372,-3.005,-2.9313,-2.9158,-2.9058,-2.8993,-2.8984,-2.8984,-2.8984,-2.8984,-2.8984,-2.8984,-2.8984,-2.8984,-2.8984,-2.8984,-2.8984,-2.8984,-2.8984,-2.8984,-2.8984,-2.8984,-2.881,-3.0889,-3.0889,-3.083,-3.045,-3.0098,-2.9804,-2.9499,-2.9213,-2.9094,0.0,-2.991,0.0,0.0,0.0,0.0,0.0,0.0,0.0,0.0,0.0,0.0,0.0,0.0,0.0,0.0,0.0,0.0,0.0,0.0,0.0,0.0,-2.2928,-2.2928,-2.2928,-2.2928,-2.2928,-2.2928,-2.2928,-2.2928,-2.2928,-2.2928,-2.2928,-2.2921,-2.2599,-2.2318,-2.2038,-2.2004,-2.1677,-2.1162,-2.1122,-2.1109,-2.1109,-2.1109,-2.1109,-2.1109,-2.1109,-2.1109,-2.1292,-2.2647,-2.2215,-2.1292,-2.2647,-2.2398,-2.1621,-2.1884,-2.2164,-2.2694,-2.4501,-2.5994,-2.7445,-2.8937,-3.0325,-3.1377,-3.1377,-3.1377,-3.1377,-3.1377,-3.1377,-3.1377,-3.1377,-3.1377,-3.1377,-3.1377,-3.1377,-3.1377,-3.1377,-3.1377,-3.0837,-2.9162,-3.0031,-2.9968,-2.7972,-2.8839,-2.9351,-2.9012,-2.8984,-2.8984,-2.8984,-2.8984,-2.8984,-2.8984,-2.8984,-2.8984,-2.8984,-2.8984,-2.8984,-2.8984,-2.8984,-2.8984,-2.8984,-2.8984,-2.8957,-3.0889,-3.0889,-3.083,-3.045,-3.0274,-3.0039,-2.9618,-2.939,-2.9268,-2.9264,0.0,0.0,0.0,0.0,0.0,0.0,0.0,0.0,0.0,0.0,0.0,0.0,0.0,0.0,0.0,0.0,0.0,0.0,0.0,0.0,-2.2928,-2.2928,-2.2928,-2.2928,-2.2928,-2.2928,-2.2928,-2.2928,-2.2928,-2.2928,-2.2928,-2.2928,-2.2921,-2.2552,-2.2258,-2.1977,-2.181,-2.1503,-2.1109,-2.1109,-2.1109,-2.1109,-2.1109,-2.1109,-2.1109,-2.1109,-2.1109,-2.1166,-2.179,-2.1601,-2.1172,-2.1783,-2.1806,-2.1675,-2.1897,-2.2191,-2.2613,-2.3582,-2.5398,-2.7246,-2.7916,-2.9713,-3.1377,-3.1377,-3.1377,-3.1377,-3.1377,-3.1377,-3.1377,-3.1377,-3.1377,-3.1377,-3.1377,-3.1377,-3.1377,-3.1377,-3.1377,-3.0854,-2.9245,-2.9369,-2.9147,-2.7955,-2.821,-2.861,-2.8952,-2.8984,-2.8984,-2.8984,-2.8984,-2.8984,-2.8984,-2.8984,-2.8984,-2.8984,-2.8984,-2.8984,-2.8984,-2.8984,-2.8984,-2.8984,-2.8984,-2.8984,-3.0889,-3.0889,-3.083,-3.0577,-3.045,-3.0265,-2.9736,0.0,-2.939,0.0,0.0,0.0,0.0,0.0,0.0,0.0,0.0,0.0,0.0,0.0,0.0,0.0,0.0,0.0,0.0,0.0,0.0,0.0,0.0,0.0,-2.2928,-2.2928,-2.2928,-2.2928,-2.2928,-2.2928,-2.2928,-2.2928,-2.2928,-2.2928,-2.2928,-2.2928,-2.2921,-2.2478,-2.2191,-2.1971,-2.1742,-2.1383,-2.1109,-2.1109,-2.1109,-2.1109,-2.1109,-2.1109,-2.1109,-2.1109,-2.1109,-2.1109,-2.1109,-2.1109,-2.1109,-2.1109,-2.1356,-2.1769,-2.1924,-2.2238,-2.2579,-2.2799,-2.4926,-2.7113,-2.7113,-2.9239,-3.1377,-3.1377,-3.1377,-3.1377,-3.1377,-3.1377,-3.1377,-3.1377,-3.1377,-3.1377,-3.1377,-3.1377,-3.1377,-3.1377,-3.112,-3.0316,-2.8928,-2.8496,-2.812,-2.7743,-2.7687,-2.807,-2.9048,-2.8732,-2.8489,-2.8489,-2.8489,-2.8489,-2.8489,-2.8797,-2.8984,-2.8984,-2.8984,-2.8984,-2.8984,-2.8984,-2.8984,-2.8984,-2.8984,-2.8984,-3.0889,-3.0889,-3.0889,-3.0889,-3.0645,-3.0323,-2.9981,0.0,-2.939,0.0,0.0,0.0,0.0,0.0,0.0,0.0,0.0,0.0,0.0,0.0,0.0,0.0,0.0,0.0,0.0,0.0,0.0,0.0,0.0,-2.2928,-2.2928,-2.2928,-2.2928,-2.2928,-2.2928,-2.2928,-2.2928,-2.2928,-2.2928,-2.2928,-2.2928,-2.2928,-2.2914,-2.2271,-2.1997,-2.1971,-2.1742,-2.1383,-2.1109,-2.1109,-2.1109,-2.1109,-2.1109,-2.1109,-2.1109,-2.1109,-2.1109,-2.1109,-2.1109,-2.1109,-2.1109,-2.1109,-2.1496,-2.1964,-2.1984,-2.2385,-2.2914,-2.2928,-2.4926,-2.7113,-2.7113,-2.9239,-3.1377,-3.1377,-3.1377,-3.1377,-3.1377,-3.1377,-3.1377,-3.1377,-3.1377,-3.1377,-3.1377,-3.1377,-3.1377,-3.1377,-3.026,-2.8863,-2.7387,-2.723,-2.702,-2.6613,-2.7488,-2.8462,-2.951,-2.8025,-2.7073,-2.7073,-2.7073,-2.7073,-2.7073,-2.8301,-2.8984,-2.8984,-2.8984,-2.8984,-2.8984,-2.8984,-2.8984,-2.8984,-2.8984,-2.8984,-3.0889,-3.0889,-3.0889,-3.0889,-3.083,-3.0635,-3.0274,-2.9981,-2.9686,0.0,0.0,0.0,0.0,0.0,0.0,0.0,0.0,0.0,0.0,0.0,0.0,0.0,0.0,0.0,0.0,0.0,0.0,0.0,0.0,0.0,-2.2928,-2.2928,-2.2928,-2.2928,-2.2928,-2.2928,-2.2928,-2.2928,-2.2928,-2.2928,-2.2928,-2.2766,-2.2565,-2.2164,-2.1884,-2.1755,-2.1396,-2.1209,-2.1109,-2.1109,-2.1109,-2.1109,-2.1109,-2.1109,-2.1109,-2.1109,-2.1109,-2.1109,-2.1109,-2.1109,-2.1109,-2.1109,-2.151,-2.1984,-2.1984,-2.2392,-2.2928,-2.2928,-2.4926,-2.7113,-2.7113,-2.9239,-3.1377,-3.1377,-3.1377,-3.1377,-3.1377,-3.1377,-3.1377,-3.1377,-3.1377,-3.1377,-3.1377,-3.1377,-3.1111,-3.0195,-2.96,-2.8468,-2.6069,-2.5734,-2.5606,-2.5223,-2.6045,-2.7093,-2.8175,-2.7479,-2.7013,-2.7013,-2.6216,-2.6095,-2.6952,-2.7444,-2.8122,-2.8984,-2.8984,-2.8984,-2.8984,-2.8984,-2.8677,-2.8071,-2.8071,-2.7702,-3.0889,-3.0889,-3.0889,-3.0889,-3.0889,-3.083,-3.045,-3.0157,-2.9804,0.0,0.0,0.0,0.0,0.0,0.0,0.0,0.0,0.0,0.0,0.0,0.0,0.0,0.0,0.0,0.0,0.0,0.0,0.0,0.0,0.0,-2.2928,-2.2928,-2.2928,-2.2928,-2.2928,-2.2928,-2.2928,-2.2928,-2.2928,-2.2928,-2.2766,-2.2612,-2.2405,-2.2017,-2.1802,-2.1601,-2.1236,-2.1109,-2.1109,-2.1109,-2.1109,-2.1109,-2.1109,-2.1109,-2.1109,-2.1109,-2.1109,-2.1109,-2.1109,-2.1109,-2.1109,-2.1109,-2.151,-2.1984,-2.1984,-2.2392,-2.2996,-2.3468,-2.5263,-2.7179,-2.7718,-2.9583,-3.1377,-3.1377,-3.1377,-3.1377,-3.1377,-3.1377,-3.1377,-3.1377,-3.1377,-3.1377,-3.1377,-3.0982,-3.039,-2.9469,-2.8468,-2.7137,-2.5278,-2.4609,-2.4395,-2.4589,-2.5509,-2.6512,-2.7614,-2.6985,-2.648,-2.6355,-2.5117,-2.4925,-2.6277,-2.6771,-2.7633,-2.8984,-2.8984,-2.8797,-2.8489,-2.8975,-2.8609,-2.7521,-2.7633,-2.684,0.0,0.0,0.0,-3.0889,-3.0889,-3.082,-3.0509,0.0,-2.9804,0.0,0.0,0.0,0.0,0.0,0.0,0.0,0.0,0.0,0.0,0.0,0.0,0.0,0.0,0.0,0.0,0.0,0.0,0.0,0.0,-2.2928,-2.2928,-2.2928,-2.2928,-2.2928,-2.2928,-2.2928,-2.2928,-2.2928,-2.2928,-2.2846,-2.2559,-2.2412,-2.2372,-2.181,-2.1614,-2.1588,-2.1236,-2.1109,-2.1109,-2.1109,-2.1109,-2.1109,-2.1109,-2.1109,-2.1109,-2.1109,-2.1109,-2.1109,-2.1109,-2.1109,-2.1109,-2.1122,-2.1516,-2.1984,-2.1997,-2.2405,-2.3201,-2.4535,-2.5994,-2.7453,-2.8994,-3.039,-3.1377,-3.1377,-3.1377,-3.1377,-3.1377,-3.1377,-3.1377,-3.1377,-3.1377,-3.1377,-3.1377,-3.0195,-2.9273,-2.9208,-2.6804,-2.5008,-2.494,-2.3734,-2.34,-2.4805,-2.583,-2.6858,-2.7908,-2.6534,-2.5429,-2.4956,-2.376,-2.3636,-2.4871,-2.6225,-2.7573,-2.8925,-2.8984,-2.8489,-2.7521,-2.8838,-2.8719,-2.7401,-2.7744,-2.652,-3.0889,0.0,0.0,0.0,0.0,0.0,0.0,0.0,0.0,0.0,0.0,0.0,0.0,0.0,0.0,0.0,0.0,0.0,0.0,0.0,0.0,0.0,0.0,0.0,0.0,0.0,0.0,0.0,-2.2928,-2.2928,-2.2928,-2.2928,-2.2928,-2.2928,-2.2928,-2.2928,-2.2928,-2.2928,-2.2752,-2.2539,-2.2458,-2.2198,-2.179,-2.1688,-2.1501,-2.1229,-2.1149,-2.1109,-2.1109,-2.1109,-2.1109,-2.1109,-2.1109,-2.1109,-2.1109,-2.1109,-2.1109,-2.1109,-2.1109,-2.1109,-2.1149,-2.1363,-2.1683,-2.2024,-2.2231,-2.2565,-2.2996,-2.34,-2.5256,-2.7643,-3.0178,-3.1111,-3.1377,-3.1377,-3.1377,-3.1377,-3.1377,-3.1377,-3.1377,-3.1377,-3.1377,-3.1111,-3.0065,-2.9535,-2.86,-2.647,-2.554,-2.4609,-2.3597,-2.3133,-2.3065,-2.3468,-2.4388,-2.4992,-2.5115,-2.4509,-2.3981,-2.3651,-2.2404,-2.2278,-2.3566,-2.4871,-2.6277,-2.7855,-2.7933,-2.7882,-2.7864,-2.7993,-2.7151,-2.5394,-2.4764,-2.4085,0.0,0.0,0.0,0.0,0.0,0.0,-3.0889,-3.046,0.0,0.0,0.0,0.0,0.0,0.0,0.0,0.0,0.0,0.0,0.0,0.0,0.0,0.0,0.0,0.0,0.0,0.0,0.0,-2.2996,-2.2928,-2.2928,-2.2928,-2.2928,-2.2928,-2.2928,-2.2739,-2.2679,-2.2679,-2.2559,-2.2412,-2.2238,-2.2118,-2.1884,-2.1614,-2.1487,-2.1269,-2.1109,-2.1109,-2.1109,-2.1109,-2.1109,-2.1109,-2.1109,-2.1109,-2.1109,-2.1109,-2.1109,-2.1109,-2.1109,-2.1109,-2.1109,-2.1156,-2.1521,-2.175,-2.2038,-2.2331,-2.2625,-2.2996,-2.3604,-2.5801,-2.8386,-3.0121,-3.0982,-3.1377,-3.1377,-3.1377,-3.1377,-3.1377,-3.0917,-3.0714,-3.1313,-3.0917,-3.026,-2.9469,-2.8271,-2.6937,-2.5278,-2.4467,-2.3802,-2.2996,-2.2928,-2.2928,-2.2928,-2.3979,-2.4488,-2.4043,-2.3874,-2.3559,-2.3106,-2.1846,-2.1783,-2.3263,-2.4008,-2.517,-2.6892,-2.6909,-2.6788,-2.6598,-2.69,-2.6294,-2.478,-2.3604,-2.3106,0.0,0.0,0.0,0.0,0.0,0.0,-3.0889,-3.0635,-3.0382,0.0,0.0,0.0,0.0,0.0,0.0,0.0,0.0,0.0,0.0,0.0,0.0,0.0,0.0,0.0,0.0,-2.6061,-2.467,-2.3263,-2.2996,-2.2928,-2.2928,-2.2832,-2.2812,-2.2812,-2.2525,-2.2372,-2.2372,-2.2118,-2.1971,-2.1937,-2.1742,-2.1601,-2.1561,-2.1229,-2.1109,-2.1109,-2.1109,-2.1109,-2.1109,-2.1109,-2.1109,-2.1109,-2.1109,-2.1109,-2.1109,-2.1109,-2.1109,-2.1109,-2.1109,-2.1129,-2.1209,-2.1568,-2.1797,-2.2084,-2.2378,-2.2652,-2.3195,-2.4602,-2.6937,-2.9068,-2.9273,-3.0325,-3.1377,-3.1377,-3.1377,-3.1377,-3.1377,-3.026,-2.9665,-3.0917,-2.9991,-2.9003,-2.8871,-2.6671,-2.494,-2.4805,-2.3665,-2.2928,-2.2928,-2.2928,-2.2928,-2.2928,-2.4006,-2.4484,-2.3862,-2.3862,-2.3579,-2.2933,-2.1783,-2.179,-2.3325,-2.3512,-2.4324,-2.5884,-2.5945,-2.5456,-2.4425,-2.5554,-2.5668,-2.4826,-2.3658,-2.3106,0.0,0.0,0.0,0.0,0.0,0.0,-3.0889,-3.0635,-3.0382,0.0,0.0,0.0,0.0,0.0,0.0,0.0,0.0,0.0,0.0,0.0,0.0,0.0,0.0,0.0,0.0,-2.7519,-2.6128,-2.467,-2.3536,-2.2928,-2.2928,-2.2639,-2.2505,-2.2505,-2.2218,-2.2071,-2.2071,-2.2017,-2.1864,-2.1702,-2.1648,-2.1494,-2.1196,-2.1136,-2.1109,-2.1109,-2.1109,-2.1109,-2.1109,-2.1109,-2.1109,-2.1109,-2.1109,-2.1109,-2.1109,-2.1109,-2.1109,-2.1109,-2.1109,-2.1263,-2.1581,-2.1804,-2.2098,-2.2392,-2.2686,-2.2819,-2.3195,-2.4602,-2.6195,-2.7784,-2.9003,-3.0325,-3.1377,-3.1377,-3.1377,-3.1377,-3.1377,-3.026,-2.9404,-2.9665,-2.8518,-2.7187,-2.6002,-2.5345,-2.4602,-2.3468,-2.3065,-2.2928,-2.2928,-2.2928,-2.2928,-2.2928,-2.3133,-2.3093,-2.2427,-2.2372,-2.2121,-2.1515,-2.1229,-2.1355,-2.1978,-2.3021,-2.4008,-2.4887,-2.5133,-2.4649,-2.3417,-2.3658,-2.3658,-2.3479,-2.323,-2.3106,0.0,0.0,0.0,-3.0947,0.0,0.0,0.0,-3.0762,-3.0635,-3.0635,-3.0528,0.0,0.0,0.0,0.0,0.0,0.0,0.0,0.0,0.0,0.0,0.0,0.0,0.0,0.0,-2.7458,-2.5755,-2.3676,-2.2957,-2.2579,-2.2432,-2.2285,-2.2205,-2.2205,-2.1924,-2.177,-2.177,-2.1623,-2.1476,-2.1329,-2.1329,-2.1256,-2.1109,-2.1109,-2.1109,-2.1109,-2.1109,-2.1109,-2.1109,-2.1109,-2.1109,-2.1109,-2.1109,-2.1109,-2.1109,-2.1109,-2.1109,-2.1109,-2.1109,-2.1303,-2.1661,-2.1891,-2.2178,-2.2472,-2.2772,-2.2928,-2.3065,-2.3734,-2.5457,-2.7121,-2.7137,-2.8732,-3.0186,-2.9444,-2.9248,-2.9248,-2.9248,-2.8122,-2.7137,-2.7137,-2.5994,-2.4993,-2.5008,-2.4406,-2.3734,-2.2996,-2.2928,-2.2928,-2.2928,-2.2928,-2.2928,-2.2928,-2.2928,-2.2686,-2.2238,-2.2071,-2.1797,-2.1356,-2.1189,-2.1235,-2.1614,-2.2411,-2.3153,-2.3837,-2.4031,-2.3783,-2.3106,-2.3106,-2.3106,-2.3106,-2.3106,-2.3106,0.0,0.0,0.0,0.0,0.0,-3.1016,0.0,0.0,0.0,-3.0889,-3.0889,0.0,0.0,0.0,0.0,0.0,0.0,0.0,0.0,0.0,0.0,0.0,0.0,0.0,0.0,-2.6861,-2.494,-2.2182,-2.2205,-2.2231,-2.1997,-2.1931,-2.1904,-2.1904,-2.1623,-2.1534,-2.1534,-2.1229,-2.1109,-2.1109,-2.1109,-2.1109,-2.1109,-2.1109,-2.1109,-2.1109,-2.1109,-2.1109,-2.1109,-2.1109,-2.1109,-2.1109,-2.1109,-2.1109,-2.1109,-2.1109,-2.1109,-2.1116,-2.1176,-2.139,-2.1748,-2.1977,-2.2265,-2.2545,-2.2786,-2.3065,-2.3263,-2.2996,-2.4926,-2.6781,-2.5338,-2.6937,-2.86,-2.7379,-2.7113,-2.7113,-2.7113,-2.5994,-2.5008,-2.5008,-2.387,-2.327,-2.4406,-2.3665,-2.2928,-2.2928,-2.2928,-2.2928,-2.2928,-2.2928,-2.2928,-2.2928,-2.2928,-2.2739,-2.2445,-2.2151,-2.1864,-2.1635,-2.1269,-2.1299,-2.167,-2.2111,-2.2543,-2.3106,-2.3106,-2.3106,-2.3106,-2.3106,-2.3106,-2.3106,-2.3106,-2.3106,0.0,0.0,0.0,0.0,-3.1728,0.0,0.0,0.0,-3.0889,-3.0889,0.0,-3.082,-3.045,0.0,0.0,0.0,0.0,0.0,0.0,0.0,0.0,0.0,0.0,0.0,0.0,0.0,-2.494,-2.2182,-2.2017,-2.2024,-2.1984,-2.1737,-2.1668,-2.1668,-2.1316,-2.1162,-2.1162,-2.1129,-2.1109,-2.1109,-2.1109,-2.1109,-2.1109,-2.1109,-2.1109,-2.1109,-2.1109,-2.1109,-2.1109,-2.1109,-2.1109,-2.1109,-2.1109,-2.1109,-2.1109,-2.1109,-2.1109,-2.1149,-2.141,-2.169,-2.1984,-2.2271,-2.2572,-2.2819,-2.2921,-2.3802,-2.4467,-2.3263,-2.4926,-2.6781,-2.5338,-2.6195,-2.732,-2.7113,-2.7113,-2.7113,-2.7113,-2.5994,-2.5008,-2.5008,-2.387,-2.2928,-2.3133,-2.2996,-2.2928,-2.2928,-2.2928,-2.2928,-2.2928,-2.2928,-2.2928,-2.2928,-2.2928,-2.2739,-2.2445,-2.2151,-2.1864,-2.1635,-2.1269,-2.1362,-2.2048,-2.2668,-2.3043,-2.3106,-2.3106,-2.3106,-2.3106,-2.3106,-2.3106,-2.3106,-2.3106,-2.3106,0.0,0.0,0.0,0.0,0.0,0.0,-3.1572,0.0,-3.1182,0.0,0.0,0.0,0.0,0.0,0.0,0.0,0.0,0.0,0.0,0.0,0.0,0.0,0.0,0.0,0.0,0.0,0.0,0.0,0.0,-2.1657,-2.1483,-2.1363,-2.1296,-2.1296,-2.1176,-2.1109,-2.1109,-2.1109,-2.1109,-2.1109,-2.1109,-2.1109,-2.1109,-2.1109,-2.1109,-2.1109,-2.1109,-2.1109,-2.1109,-2.1109,-2.1109,-2.1109,-2.1109,-2.1109,-2.1109,-2.1109,-2.1109,-2.1156,-2.145,-2.1809,-2.2064,-2.2525,-2.2759,-2.2928,-2.2928,-2.3331,-2.3672,-2.3065,-2.4331,-2.5532,-2.4135,-2.4798,-2.5667,-2.4858,-2.4655,-2.4655,-2.4655,-2.4196,-2.3802,-2.3802,-2.3331,-2.2928,-2.2928,-2.2928,-2.2928,-2.2928,-2.2928,-2.2928,-2.2928,-2.2928,-2.2928,-2.2928,-2.2928,-2.2812,-2.2686,-2.2251,-2.1937,-2.181,-2.1363,-2.1425,-2.2048,-2.2355,-2.2668,-2.3106,-2.3106,-2.3106,-2.3106,-2.3106,-2.3106,-2.3106,-2.3106,-2.3106,-3.3047,0.0,0.0,0.0,0.0,0.0,0.0,0.0,0.0,0.0,0.0,0.0,0.0,0.0,-3.0382,0.0,0.0,0.0,0.0,0.0,0.0,0.0,0.0,0.0,0.0,0.0,0.0,0.0,-2.1869,-2.1336,-2.1122,-2.1109,-2.1109,-2.1109,-2.1109,-2.1109,-2.1109,-2.1109,-2.1109,-2.1109,-2.1109,-2.1109,-2.1109,-2.1109,-2.1109,-2.1109,-2.1109,-2.1109,-2.1109,-2.1109,-2.1109,-2.1109,-2.1109,-2.1109,-2.1109,-2.1109,-2.1162,-2.1269,-2.157,-2.1983,-2.2298,-2.2794,-2.2928,-2.2928,-2.2928,-2.3195,-2.34,-2.2996,-2.3938,-2.4677,-2.3263,-2.3665,-2.4135,-2.3133,-2.2928,-2.2928,-2.2928,-2.2928,-2.2928,-2.2928,-2.2928,-2.2928,-2.2928,-2.2928,-2.2928,-2.2928,-2.2928,-2.2928,-2.2928,-2.2928,-2.2928,-2.2928,-2.2928,-2.2928,-2.2928,-2.2325,-2.1917,-2.1757,-2.1535,-2.1607,-2.2111,-2.2299,-2.2606,-2.3106,-2.3106,-2.3106,-2.3106,-2.3106,-2.3106,-2.3106,-2.3106,-2.3106,0.0,0.0,0.0,-3.3389,0.0,0.0,0.0,0.0,-3.2031,0.0,0.0,0.0,0.0,0.0,0.0,0.0,0.0,0.0,0.0,0.0,0.0,0.0,0.0,0.0,0.0,0.0,0.0,-2.1299,-2.1116,-2.1122,-2.1109,-2.1109,-2.1109,-2.1109,-2.1109,-2.1109,-2.1109,-2.1109,-2.1109,-2.1109,-2.1109,-2.1109,-2.1109,-2.1109,-2.1109,-2.1109,-2.1109,-2.1109,-2.1109,-2.1109,-2.1109,-2.1109,-2.1109,-2.1109,-2.1109,-2.1109,-2.1289,-2.1648,-2.1871,-2.2352,-2.2839,-2.2921,-2.2928,-2.2928,-2.2928,-2.387,-2.467,-2.3263,-2.3938,-2.4677,-2.3263,-2.2934,-2.2934,-2.2934,-2.2928,-2.2928,-2.2928,-2.2928,-2.2928,-2.2928,-2.2928,-2.2928,-2.2928,-2.2928,-2.2928,-2.2928,-2.2928,-2.2928,-2.2928,-2.2928,-2.2928,-2.2928,-2.2928,-2.2928,-2.2928,-2.2325,-2.1744,-2.1176,-2.174,-2.2111,-2.2111,-2.2731,-2.3113,-2.3106,-2.3106,-2.3106,-2.3106,-2.3106,-2.3106,-2.3106,-2.3106,-2.3106,0.0,0.0,-3.3418,-3.3418,0.0,0.0,0.0,0.0,0.0,0.0,0.0,0.0,0.0,0.0,0.0,0.0,0.0,0.0,0.0,0.0,0.0,0.0,0.0,0.0,0.0,0.0,0.0,-2.2459,-2.1601,-2.1109,0.0,-2.1109,-2.1109,-2.1109,-2.1109,-2.1109,-2.1109,-2.1109,-2.1109,-2.1109,-2.1109,-2.1109,-2.1109,-2.1109,-2.1109,-2.1109,-2.1109,-2.1109,-2.1109,-2.1109,-2.1109,-2.1109,-2.1109,-2.1109,-2.1109,-2.1109,-2.1296,-2.1688,-2.2104,-2.2532,-2.2928,-2.2928,-2.2928,-2.2928,-2.2928,-2.3201,-2.3536,-2.3065,-2.3263,-2.3536,-2.2996,-2.2928,-2.2928,-2.2928,-2.2928,-2.2928,-2.2928,-2.2928,-2.2928,-2.2928,-2.2928,-2.2928,-2.2928,-2.2928,-2.2928,-2.2928,-2.2928,-2.2928,-2.2928,-2.2928,-2.2928,-2.2928,-2.2928,-2.2928,-2.2928,-2.2325,-2.173,-2.1149,-2.1544,-2.1859,-2.2111,-2.255,-2.2793,-2.2793,-2.2793,-2.2793,-2.2793,-2.2793,-2.2863,-2.3106,-2.3106,-2.3106,-3.3418,-3.3418,0.0,-3.3418,-3.3418,0.0,-3.3076,0.0,0.0,0.0,0.0,0.0,0.0,0.0,0.0,0.0,0.0,0.0,0.0,-2.5835,0.0,0.0,0.0,0.0,0.0,0.0,-2.2404,-2.2404,-2.1601,-2.1109,0.0,0.0,-2.1109,-2.1109,-2.1109,-2.1109,-2.1109,-2.1109,-2.1109,-2.1109,-2.1109,-2.1109,-2.1109,-2.1109,-2.1109,-2.1109,-2.1109,-2.1109,-2.1109,-2.1109,-2.1109,-2.1109,-2.1109,-2.1109,-2.1122,-2.1229,-2.1523,-2.1931,-2.2412,-2.2706,-2.2928,-2.2928,-2.2928,-2.2928,-2.2928,-2.2928,-2.2908,-2.2732,-2.2779,-2.2839,-2.2732,-2.2786,-2.2928,-2.2928,-2.2928,-2.2928,-2.2928,-2.2928,-2.2928,-2.2928,-2.2928,-2.2928,-2.2928,-2.2928,-2.2928,-2.2928,-2.2928,-2.2928,-2.2928,-2.2928,-2.2928,-2.2928,-2.2928,-2.2819,-2.2712,-2.2265,-2.1784,-2.1296,-2.1479,-2.1734,-2.2111,-2.2418,-2.2713,-2.2935,-2.2846,-2.2846,-2.2942,-2.2846,-2.2918,-2.3106,-2.3106,-2.3106]},{"header":{"parameterUnit":"m.s-1","parameterCategory":1,"la1":30.6,"la2":29.2853,"lo1":-89.7004,"lo2":-87.6739,"dy":0.0162,"dx":0.0183,"nx":112,"ny":82,"refTime":"2023-04-14T00:00:00:Z","depth":0,"parameterNumber":3,"parameterNumberName":"V-component_of_WINDS"},"data":[0.0,0.0,0.0,0.0,0.0,0.0,0.0,0.0,0.0,0.0,0.0,0.0,0.0,0.0,0.0,0.0,0.0,0.0,0.0,0.0,0.0,0.0,0.0,0.0,0.0,0.0,0.0,0.0,0.0,0.0,0.0,0.0,0.0,0.0,0.0,0.0,0.0,0.0,0.0,0.0,0.0,0.0,0.0,0.0,0.0,0.0,0.0,0.0,0.0,0.0,0.0,0.0,0.0,0.0,0.0,0.0,0.0,0.0,0.0,0.0,0.0,0.0,0.0,0.0,0.0,0.0,0.0,0.0,0.0,0.0,0.0,0.0,0.0,0.0,0.0,0.0,0.0,0.0,0.0,0.0,0.0,0.0,0.0,0.0,0.0,0.0,0.0,0.0,0.0,0.0,3.2754,3.2754,3.2754,3.2853,3.3068,3.2896,3.2754,3.2754,0.0,0.0,0.0,0.0,0.0,0.0,0.0,0.0,0.0,0.0,0.0,0.0,0.0,0.0,0.0,0.0,0.0,0.0,0.0,0.0,0.0,0.0,0.0,0.0,0.0,0.0,0.0,0.0,0.0,0.0,0.0,0.0,0.0,0.0,0.0,0.0,0.0,0.0,0.0,0.0,0.0,0.0,0.0,0.0,0.0,0.0,0.0,0.0,0.0,0.0,0.0,0.0,0.0,0.0,0.0,0.0,0.0,0.0,0.0,0.0,0.0,0.0,0.0,0.0,0.0,0.0,0.0,0.0,0.0,0.0,0.0,0.0,0.0,0.0,0.0,0.0,0.0,0.0,0.0,0.0,0.0,0.0,0.0,0.0,0.0,0.0,0.0,0.0,0.0,0.0,0.0,0.0,0.0,0.0,0.0,0.0,0.0,0.0,0.0,0.0,0.0,0.0,0.0,0.0,3.3038,3.3038,3.3038,3.3081,3.3124,3.3081,3.3038,3.3038,0.0,0.0,0.0,0.0,0.0,0.0,0.0,0.0,0.0,0.0,0.0,0.0,0.0,0.0,0.0,0.0,0.0,0.0,0.0,0.0,0.0,0.0,0.0,0.0,0.0,0.0,0.0,0.0,0.0,0.0,0.0,0.0,0.0,0.0,0.0,0.0,0.0,0.0,0.0,0.0,0.0,0.0,0.0,0.0,0.0,0.0,0.0,0.0,0.0,0.0,0.0,0.0,0.0,0.0,0.0,0.0,0.0,0.0,0.0,0.0,0.0,0.0,0.0,0.0,0.0,0.0,0.0,0.0,0.0,0.0,0.0,0.0,0.0,0.0,0.0,0.0,0.0,0.0,0.0,0.0,0.0,0.0,0.0,0.0,0.0,0.0,0.0,0.0,0.0,0.0,0.0,0.0,0.0,0.0,0.0,0.0,0.0,0.0,0.0,0.0,0.0,0.0,0.0,3.3124,3.3124,3.3124,3.3124,3.3124,3.3124,3.3124,3.3124,3.3124,3.2982,0.0,0.0,0.0,0.0,0.0,0.0,0.0,0.0,0.0,0.0,0.0,0.0,0.0,0.0,0.0,0.0,0.0,0.0,0.0,0.0,0.0,0.0,0.0,0.0,0.0,0.0,0.0,0.0,0.0,0.0,0.0,0.0,0.0,0.0,0.0,0.0,0.0,0.0,0.0,0.0,0.0,0.0,0.0,0.0,0.0,0.0,0.0,0.0,0.0,0.0,0.0,0.0,0.0,0.0,0.0,0.0,0.0,0.0,0.0,0.0,0.0,0.0,0.0,0.0,0.0,0.0,0.0,0.0,0.0,0.0,0.0,0.0,0.0,0.0,0.0,0.0,0.0,0.0,0.0,0.0,0.0,0.0,0.0,0.0,0.0,0.0,0.0,0.0,0.0,0.0,0.0,0.0,0.0,0.0,0.0,0.0,0.0,0.0,0.0,0.0,0.0,0.0,3.3589,3.3538,3.3424,3.3197,3.3124,3.3124,3.3283,3.3326,3.3124,3.3283,0.0,0.0,0.0,0.0,0.0,0.0,0.0,0.0,0.0,0.0,0.0,0.0,0.0,0.0,0.0,0.0,0.0,0.0,0.0,0.0,0.0,0.0,0.0,0.0,0.0,0.0,0.0,0.0,0.0,0.0,0.0,0.0,0.0,0.0,0.0,0.0,0.0,0.0,0.0,0.0,0.0,0.0,0.0,0.0,0.0,0.0,0.0,0.0,0.0,0.0,0.0,0.0,0.0,0.0,0.0,0.0,0.0,0.0,0.0,0.0,0.0,0.0,0.0,0.0,0.0,0.0,0.0,0.0,0.0,0.0,0.0,0.0,0.0,0.0,0.0,0.0,0.0,0.0,0.0,0.0,0.0,0.0,0.0,0.0,0.0,0.0,0.0,0.0,0.0,0.0,0.0,0.0,0.0,0.0,0.0,0.0,0.0,0.0,0.0,0.0,0.0,0.0,3.51,3.4917,3.4366,3.3569,3.3124,3.3124,3.3865,3.3937,3.3154,3.3865,0.0,0.0,0.0,0.0,0.0,0.0,0.0,0.0,0.0,0.0,0.0,0.0,0.0,0.0,0.0,0.0,0.0,0.0,0.0,0.0,0.0,0.0,0.0,0.0,0.0,0.0,0.0,0.0,0.0,0.0,0.0,0.0,0.0,0.0,0.0,0.0,0.0,0.0,0.0,0.0,0.0,0.0,0.0,0.0,0.0,0.0,0.0,0.0,0.0,0.0,0.0,0.0,0.0,0.0,0.0,0.0,0.0,0.0,0.0,0.0,0.0,0.0,0.0,0.0,0.0,0.0,0.0,0.0,0.0,0.0,0.0,0.0,0.0,0.0,0.0,0.0,0.0,0.0,0.0,0.0,0.0,0.0,0.0,0.0,0.0,0.0,0.0,0.0,0.0,0.0,0.0,0.0,0.0,0.0,0.0,0.0,0.0,0.0,0.0,0.0,0.0,0.0,3.6332,3.6634,0.0,3.6098,3.5899,3.5899,3.582,3.5648,3.5315,0.0,0.0,0.0,0.0,0.0,0.0,0.0,0.0,0.0,0.0,0.0,0.0,0.0,0.0,0.0,0.0,0.0,0.0,0.0,0.0,0.0,0.0,0.0,0.0,0.0,0.0,0.0,0.0,0.0,0.0,0.0,0.0,0.0,0.0,0.0,0.0,0.0,0.0,0.0,0.0,0.0,0.0,0.0,0.0,0.0,0.0,0.0,0.0,0.0,0.0,0.0,0.0,0.0,0.0,0.0,0.0,0.0,0.0,0.0,0.0,0.0,0.0,0.0,0.0,0.0,0.0,0.0,0.0,0.0,0.0,0.0,0.0,0.0,0.0,0.0,0.0,0.0,0.0,0.0,0.0,0.0,0.0,0.0,0.0,0.0,0.0,0.0,0.0,0.0,0.0,0.0,0.0,0.0,0.0,0.0,0.0,0.0,0.0,0.0,0.0,0.0,0.0,3.726,3.7917,3.8325,0.0,3.7783,3.7602,3.7602,3.7441,3.7209,3.6919,0.0,0.0,0.0,0.0,0.0,0.0,0.0,0.0,0.0,0.0,0.0,0.0,0.0,0.0,0.0,0.0,0.0,0.0,0.0,0.0,0.0,0.0,0.0,0.0,0.0,0.0,0.0,0.0,0.0,0.0,0.0,0.0,0.0,0.0,0.0,0.0,0.0,0.0,0.0,0.0,0.0,0.0,0.0,0.0,0.0,0.0,0.0,0.0,0.0,0.0,0.0,0.0,0.0,0.0,0.0,0.0,0.0,0.0,0.0,0.0,0.0,0.0,0.0,0.0,0.0,0.0,0.0,0.0,0.0,0.0,0.0,0.0,0.0,0.0,0.0,0.0,0.0,0.0,0.0,0.0,0.0,0.0,0.0,0.0,0.0,0.0,0.0,0.0,0.0,0.0,0.0,0.0,0.0,0.0,0.0,0.0,0.0,0.0,0.0,0.0,0.0,0.0,3.9816,3.9968,3.981,3.9026,3.8187,3.7657,3.7657,3.8435,3.8559,0.0,0.0,0.0,0.0,0.0,0.0,0.0,0.0,0.0,0.0,0.0,0.0,0.0,0.0,0.0,0.0,0.0,0.0,0.0,0.0,0.0,0.0,0.0,0.0,0.0,0.0,0.0,0.0,0.0,0.0,0.0,0.0,0.0,0.0,0.0,0.0,0.0,0.0,0.0,0.0,0.0,0.0,0.0,0.0,0.0,0.0,0.0,0.0,0.0,0.0,0.0,0.0,0.0,0.0,0.0,0.0,0.0,0.0,0.0,0.0,0.0,0.0,0.0,0.0,0.0,0.0,0.0,0.0,0.0,0.0,0.0,0.0,0.0,0.0,0.0,0.0,0.0,0.0,0.0,0.0,0.0,0.0,0.0,0.0,0.0,0.0,0.0,0.0,0.0,0.0,0.0,0.0,0.0,0.0,0.0,0.0,0.0,0.0,0.0,0.0,0.0,0.0,0.0,4.0661,4.1385,4.1861,4.159,4.1357,4.122,4.122,4.0992,4.0691,4.0299,0.0,0.0,0.0,0.0,0.0,0.0,0.0,0.0,0.0,0.0,0.0,0.0,0.0,0.0,0.0,0.0,0.0,0.0,0.0,0.0,0.0,0.0,0.0,0.0,0.0,0.0,0.0,0.0,0.0,0.0,0.0,0.0,0.0,0.0,0.0,0.0,0.0,0.0,0.0,0.0,0.0,0.0,0.0,0.0,0.0,0.0,0.0,0.0,0.0,0.0,0.0,0.0,0.0,0.0,0.0,0.0,0.0,0.0,0.0,0.0,0.0,0.0,0.0,0.0,0.0,0.0,0.0,0.0,0.0,0.0,0.0,0.0,0.0,0.0,0.0,0.0,0.0,0.0,0.0,0.0,0.0,0.0,0.0,0.0,0.0,0.0,0.0,0.0,0.0,0.0,0.0,0.0,0.0,0.0,0.0,0.0,0.0,0.0,0.0,0.0,0.0,0.0,4.1715,4.2348,4.2809,4.2688,4.2688,4.2688,4.2688,4.2334,4.2073,4.1938,0.0,0.0,0.0,0.0,0.0,0.0,0.0,0.0,0.0,0.0,0.0,0.0,0.0,0.0,0.0,0.0,0.0,0.0,0.0,0.0,0.0,0.0,0.0,0.0,0.0,0.0,0.0,0.0,0.0,0.0,0.0,0.0,0.0,0.0,0.0,0.0,0.0,0.0,0.0,0.0,0.0,0.0,0.0,0.0,0.0,0.0,0.0,0.0,0.0,0.0,0.0,0.0,0.0,0.0,0.0,0.0,0.0,0.0,0.0,0.0,0.0,0.0,0.0,0.0,0.0,0.0,0.0,0.0,0.0,0.0,0.0,0.0,0.0,0.0,0.0,0.0,0.0,0.0,0.0,0.0,0.0,0.0,0.0,0.0,0.0,0.0,0.0,0.0,0.0,0.0,0.0,0.0,0.0,0.0,0.0,0.0,0.0,0.0,0.0,0.0,0.0,0.0,4.2769,4.2915,4.2955,4.2769,4.2769,4.2769,4.2769,4.2769,4.2729,4.2729,0.0,0.0,0.0,0.0,0.0,0.0,0.0,0.0,0.0,0.0,0.0,0.0,0.0,0.0,0.0,0.0,0.0,0.0,0.0,0.0,0.0,0.0,0.0,0.0,0.0,0.0,0.0,0.0,0.0,0.0,0.0,0.0,0.0,0.0,0.0,0.0,0.0,0.0,0.0,0.0,0.0,0.0,0.0,0.0,0.0,0.0,0.0,0.0,0.0,0.0,0.0,0.0,0.0,0.0,0.0,0.0,0.0,0.0,0.0,0.0,4.5649,0.0,0.0,0.0,0.0,0.0,0.0,0.0,0.0,0.0,0.0,0.0,0.0,0.0,0.0,0.0,0.0,0.0,0.0,0.0,0.0,0.0,0.0,0.0,0.0,0.0,0.0,0.0,0.0,0.0,0.0,0.0,0.0,0.0,0.0,0.0,0.0,0.0,0.0,0.0,0.0,0.0,4.2955,4.3115,4.321,4.317,4.317,4.317,4.317,4.317,4.309,4.2955,4.309,0.0,0.0,0.0,0.0,0.0,0.0,0.0,0.0,0.0,0.0,0.0,0.0,0.0,0.0,0.0,0.0,0.0,0.0,0.0,0.0,0.0,0.0,0.0,0.0,0.0,0.0,0.0,0.0,0.0,0.0,0.0,0.0,0.0,0.0,0.0,0.0,0.0,0.0,0.0,0.0,0.0,0.0,0.0,0.0,0.0,0.0,0.0,0.0,0.0,0.0,0.0,0.0,0.0,0.0,0.0,0.0,0.0,0.0,0.0,0.0,4.5431,0.0,0.0,0.0,0.0,0.0,0.0,0.0,0.0,0.0,0.0,0.0,0.0,0.0,0.0,0.0,0.0,0.0,0.0,0.0,0.0,0.0,0.0,0.0,0.0,0.0,0.0,0.0,0.0,0.0,0.0,0.0,0.0,0.0,0.0,0.0,0.0,0.0,0.0,0.0,0.0,4.3155,4.325,4.329,4.329,4.329,4.329,4.329,4.329,4.325,4.3155,4.325,0.0,0.0,0.0,0.0,0.0,0.0,0.0,0.0,0.0,0.0,0.0,0.0,0.0,0.0,0.0,0.0,0.0,0.0,0.0,0.0,0.0,0.0,0.0,0.0,0.0,0.0,0.0,0.0,0.0,0.0,0.0,0.0,0.0,0.0,0.0,0.0,0.0,0.0,0.0,0.0,0.0,0.0,0.0,0.0,0.0,0.0,0.0,0.0,0.0,0.0,0.0,0.0,0.0,0.0,4.7388,4.7388,4.6882,4.7002,4.7523,4.6728,4.6763,4.7189,0.0,0.0,0.0,0.0,0.0,0.0,0.0,0.0,0.0,0.0,0.0,0.0,0.0,0.0,0.0,0.0,0.0,0.0,0.0,0.0,0.0,0.0,0.0,0.0,0.0,4.6295,4.6119,0.0,0.0,0.0,0.0,0.0,0.0,0.0,0.0,0.0,0.0,0.0,0.0,4.329,4.329,4.329,4.329,4.329,4.329,4.329,4.329,4.329,4.329,4.329,4.329,0.0,0.0,0.0,0.0,0.0,0.0,0.0,0.0,0.0,0.0,0.0,0.0,0.0,0.0,0.0,0.0,0.0,0.0,0.0,0.0,0.0,0.0,0.0,0.0,0.0,0.0,0.0,0.0,0.0,0.0,0.0,0.0,4.8452,4.8452,0.0,0.0,0.0,0.0,0.0,0.0,0.0,0.0,0.0,0.0,0.0,0.0,0.0,0.0,4.8194,4.8275,4.842,4.858,4.858,4.858,4.8564,4.8483,4.8515,4.8595,4.8452,0.0,4.729,4.7054,0.0,0.0,0.0,0.0,0.0,0.0,0.0,0.0,0.0,0.0,0.0,0.0,0.0,0.0,0.0,0.0,0.0,0.0,0.0,0.0,0.0,0.0,4.6154,4.6622,4.6588,4.6657,0.0,4.6694,4.5941,4.6012,0.0,0.0,0.0,0.0,0.0,0.0,0.0,0.0,4.329,4.329,4.329,4.329,4.329,4.329,4.329,4.329,4.329,4.329,4.329,4.329,4.329,4.329,0.0,0.0,0.0,0.0,0.0,0.0,0.0,0.0,0.0,0.0,0.0,0.0,0.0,0.0,0.0,0.0,0.0,0.0,0.0,0.0,0.0,0.0,0.0,0.0,0.0,0.0,0.0,0.0,0.0,4.8532,4.8547,4.8658,4.8564,4.8452,0.0,0.0,0.0,0.0,0.0,0.0,0.0,0.0,0.0,4.8658,4.8675,4.869,4.8767,4.869,4.8707,4.8818,4.8818,4.8818,4.8801,4.8894,4.8925,4.8925,4.8925,4.8656,4.8208,4.7688,4.7239,4.6797,0.0,0.0,0.0,0.0,0.0,4.6154,4.6781,0.0,0.0,0.0,0.0,0.0,0.0,0.0,0.0,0.0,0.0,0.0,0.0,0.0,0.0,4.7901,4.7967,4.8032,4.845,4.8129,4.7622,0.0,4.6643,4.6028,4.4983,0.0,0.0,0.0,0.0,0.0,4.3621,4.3786,4.381,4.3329,4.329,4.329,4.329,4.329,4.3472,4.3966,4.395,4.4205,4.4743,4.4781,4.4608,0.0,0.0,0.0,0.0,0.0,0.0,0.0,0.0,0.0,0.0,0.0,0.0,0.0,0.0,0.0,0.0,0.0,0.0,0.0,0.0,0.0,0.0,0.0,0.0,0.0,0.0,0.0,0.0,4.869,4.8673,4.8832,4.8721,4.861,0.0,0.0,0.0,0.0,0.0,0.0,4.8578,4.8595,4.8658,4.8849,4.9049,4.9164,4.9289,4.9367,4.9405,4.9405,4.9405,4.9405,4.9436,4.9514,4.956,4.956,4.956,4.956,4.9463,4.8407,4.795,4.7852,4.7138,4.6815,0.0,4.6866,4.6866,4.6968,4.7688,4.795,4.795,4.795,0.0,4.7754,4.6884,0.0,0.0,0.0,0.0,4.7035,4.777,0.0,4.8306,4.8861,4.9001,4.9001,4.9001,4.9001,4.8798,0.0,4.7506,4.6779,4.5685,0.0,0.0,0.0,0.0,4.5577,4.4488,4.4699,4.4706,4.4128,4.4036,4.4036,4.4036,4.4036,4.4305,4.4893,4.493,4.5248,4.5957,4.5992,4.5778,4.5374,0.0,0.0,0.0,0.0,0.0,0.0,0.0,0.0,0.0,0.0,0.0,0.0,0.0,0.0,0.0,0.0,0.0,0.0,0.0,0.0,0.0,0.0,0.0,0.0,0.0,0.0,0.0,0.0,0.0,4.9001,4.897,0.0,0.0,0.0,0.0,4.8515,4.8515,4.8595,4.8769,4.8769,4.8832,4.897,4.9678,5.0033,5.0033,5.0712,5.1067,5.1067,5.1067,5.1067,5.1067,5.1083,5.1099,5.1099,5.1099,5.1099,5.0965,4.9514,4.8846,4.8738,4.8707,4.8564,4.8403,4.8595,4.8675,4.869,4.8877,4.894,4.894,4.894,4.8846,4.8627,4.7999,4.7688,0.0,0.0,4.7819,4.7999,4.8719,4.894,4.894,4.9001,4.9001,4.9001,4.9001,4.9001,4.9001,0.0,4.8909,4.8576,4.7622,0.0,4.7205,4.6208,4.6138,4.6138,4.6067,4.6103,4.6103,4.6067,4.6032,4.6032,4.6032,4.6032,4.6067,4.6103,4.6103,4.6154,4.6173,4.6173,4.6173,4.6138,4.6138,0.0,0.0,0.0,0.0,0.0,0.0,0.0,0.0,0.0,0.0,0.0,0.0,0.0,0.0,0.0,0.0,0.0,0.0,0.0,0.0,0.0,0.0,0.0,0.0,0.0,0.0,0.0,0.0,4.9001,4.9001,0.0,4.8909,4.8925,4.9111,4.9504,4.9538,4.9789,5.0327,5.0344,5.0375,5.0422,5.0676,5.0811,5.0811,5.1082,5.1185,5.1185,5.1185,5.1185,5.1185,5.1185,5.1185,5.1185,5.1185,5.1185,5.1151,5.0642,5.012,4.9649,4.9649,4.9282,4.8846,4.8909,4.8925,4.8956,4.897,4.9001,4.9001,4.9001,4.897,4.8877,4.8656,4.8562,4.853,4.8593,4.8625,4.8656,4.894,4.9001,4.9001,4.9001,4.9001,4.9001,4.9001,4.9001,4.9001,4.9001,4.9001,4.8688,4.777,4.8112,4.8015,4.6606,4.7238,4.7522,4.6537,4.6678,4.673,4.6244,4.6208,4.6208,4.6208,4.6208,4.6384,4.6867,4.6918,4.7205,4.7836,4.7869,4.7688,4.7323,4.7273,4.671,0.0,0.0,0.0,0.0,0.0,0.0,0.0,0.0,0.0,0.0,0.0,0.0,0.0,0.0,0.0,0.0,0.0,0.0,0.0,0.0,0.0,0.0,0.0,0.0,0.0,0.0,4.9001,4.9001,4.9221,4.9373,4.9373,4.961,4.9949,5.0439,5.0473,5.0676,5.1183,5.1185,5.1185,5.1185,5.1454,5.1589,5.1589,5.186,5.1995,5.1995,5.1995,5.1995,5.1995,5.1995,5.1995,5.1995,5.1995,5.1995,5.1995,5.1995,5.1539,5.0811,5.0574,5.0168,4.9746,4.9746,4.9593,4.934,4.9086,4.9001,4.9001,4.9001,4.9001,4.9001,4.9001,4.9001,4.9001,4.9001,4.9001,4.9001,4.9001,4.9001,4.9001,4.9001,4.9001,4.9001,4.9001,4.9001,4.9001,4.9001,4.9001,4.8798,4.8193,4.8576,4.8625,4.7522,4.8226,4.8515,4.7489,4.7638,4.7688,4.7205,4.7122,4.7122,4.7122,4.7122,4.734,4.7836,4.7852,4.8161,4.8832,4.8863,4.8673,4.8274,4.8032,4.7406,4.6448,0.0,0.0,0.0,0.0,0.0,0.0,0.0,0.0,0.0,0.0,0.0,0.0,0.0,0.0,0.0,0.0,0.0,0.0,0.0,0.0,0.0,0.0,0.0,4.9035,4.9035,4.9035,4.9069,4.9695,5.0118,5.0118,5.0777,5.1202,5.1219,5.1219,5.1236,5.1252,5.1252,5.1252,5.1252,5.1961,5.2334,5.2334,5.3112,5.3501,5.3501,5.3501,5.3501,5.3501,5.3501,5.3501,5.3501,5.3501,5.3501,5.3501,5.3501,5.3044,5.2266,5.1539,5.1202,5.1185,5.1185,5.076,5.0016,4.9289,4.9035,4.9035,4.9018,4.9001,4.9001,4.9001,4.9001,4.9001,4.9001,4.9001,4.9001,4.9001,4.9001,4.9001,4.9001,4.9001,4.9001,4.9001,4.9001,4.9001,4.9001,4.9001,4.9001,4.9001,4.9001,4.9001,4.9001,4.9001,0.0,4.9001,4.9001,4.9001,4.9001,4.9001,4.9001,4.9001,4.9001,4.9001,4.9001,4.9001,4.9001,4.9001,4.9001,4.9001,4.9001,4.8274,4.7885,4.7885,0.0,0.0,0.0,0.0,0.0,0.0,0.0,0.0,0.0,0.0,0.0,0.0,0.0,0.0,0.0,0.0,0.0,0.0,0.0,0.0,0.0,0.0,4.9796,4.9796,4.9796,4.9999,5.0541,5.0777,5.0913,5.0913,5.1099,5.1437,5.1961,5.2012,5.2249,5.2841,5.2875,5.2875,5.2875,5.3061,5.3179,5.3179,5.3399,5.3501,5.3501,5.3501,5.3501,5.3501,5.3501,5.3501,5.3501,5.3501,5.3501,5.3501,5.3501,5.3365,5.3095,5.23,5.1674,5.1185,5.1185,5.1082,5.0794,5.005,4.9796,4.9712,4.9171,4.9001,4.9001,4.9001,4.9001,4.9001,4.9001,4.9001,4.9001,4.9001,4.9001,4.9001,4.9001,4.9001,4.9001,4.9001,4.9001,4.9001,4.9001,4.9001,4.9001,4.9001,4.9001,4.9001,4.9001,0.0,0.0,4.9001,4.9001,4.9001,4.9001,4.9001,4.9001,4.9001,4.9001,4.9001,4.9001,4.9001,4.9001,4.9001,4.9001,4.9001,4.9001,4.8274,4.7885,0.0,0.0,0.0,0.0,0.0,0.0,0.0,0.0,0.0,0.0,0.0,0.0,0.0,0.0,0.0,0.0,0.0,0.0,0.0,0.0,0.0,0.0,5.0557,5.0676,5.098,5.076,5.0727,5.1134,5.1488,5.1674,5.1674,5.1978,5.235,5.2773,5.2807,5.301,5.3484,5.3501,5.3501,5.3501,5.3501,5.3501,5.3501,5.3501,5.3501,5.3501,5.3501,5.3501,5.3501,5.3501,5.3501,0.0,5.3501,5.3501,5.3501,5.3501,5.3501,0.0,0.0,0.0,0.0,0.0,5.1674,5.1572,5.0828,5.0557,5.0439,4.9695,4.9458,4.9407,4.9086,4.9001,4.9001,4.9001,4.9001,4.9001,4.9001,4.9001,4.9001,4.9001,4.9001,4.9001,4.9001,4.9001,4.9001,4.9001,0.0,0.0,4.9001,4.9001,4.9001,4.9001,4.9001,4.9001,4.9001,4.9001,4.9001,4.9001,4.9001,4.9001,4.9001,4.9001,0.0,0.0,0.0,4.9001,4.9001,4.9001,0.0,0.0,0.0,4.837,0.0,0.0,0.0,0.0,4.7085,4.6811,0.0,0.0,0.0,0.0,0.0,0.0,0.0,0.0,0.0,0.0,0.0,0.0,0.0,0.0,0.0,0.0,5.1303,5.1589,5.2334,5.1877,5.1438,5.1438,5.2046,5.2435,5.2435,5.3078,5.3501,5.3501,5.3501,5.3551,5.3619,0.0,0.0,0.0,0.0,5.3619,5.3619,5.3551,5.3501,5.3501,5.3501,5.3501,5.3501,5.3501,5.3501,5.3501,5.3501,5.3501,5.3501,5.3501,5.3501,5.3501,5.3501,5.3501,5.3416,5.2706,5.2435,0.0,0.0,0.0,0.0,5.0456,5.0152,4.9965,4.9323,4.9069,4.9001,4.9001,4.9001,4.9001,4.9001,4.9001,4.9001,4.9001,4.9001,4.9001,4.9001,4.9001,4.9001,4.9001,4.9001,4.9001,4.9001,4.9001,4.9001,4.9001,4.9001,4.9001,4.9001,4.9001,4.9001,4.9001,0.0,0.0,4.9001,4.9001,4.9001,4.9001,4.9001,4.9001,4.9001,4.9001,4.9001,4.9001,4.9001,4.9001,4.9001,4.9001,4.9001,4.897,4.7671,4.7051,0.0,0.0,0.0,0.0,0.0,0.0,0.0,0.0,0.0,0.0,0.0,0.0,0.0,0.0,0.0,5.1995,5.2097,5.2367,5.3162,5.3162,5.3061,5.3061,5.3179,5.3264,5.3264,5.3416,5.3501,5.3501,5.3501,5.3754,5.4346,5.438,0.0,5.5277,5.4702,5.438,5.438,5.3805,5.3501,5.3501,0.0,0.0,5.3501,5.3501,5.3501,5.3501,5.3501,5.3501,5.3501,5.3501,5.3501,5.3501,5.3501,5.3501,5.3484,5.3331,5.3264,5.3162,5.2367,5.2097,5.1978,5.1234,5.0591,5.0067,4.9915,4.9475,0.0,4.9001,4.9001,4.9001,4.9001,4.9001,4.9001,4.9001,4.9001,4.9001,4.9001,4.9001,4.9001,4.9001,4.9001,4.9001,4.9001,4.9001,4.9001,4.9001,4.9001,4.9001,4.9001,4.9001,4.9001,4.9001,4.9001,4.9001,4.9001,4.9001,4.9001,4.9001,4.9001,4.9001,4.9001,4.9001,4.9001,4.9001,4.9001,4.9001,4.9001,4.9001,4.9001,4.9001,4.8704,4.8562,0.0,0.0,0.0,0.0,0.0,0.0,0.0,0.0,0.0,0.0,0.0,5.12,0.0,0.0,5.2486,5.2841,5.2909,5.3044,5.345,5.3501,5.3501,5.3501,5.3501,5.3501,5.3501,5.3822,5.4042,5.4042,5.4397,5.4769,5.5141,5.5158,5.5327,5.57,5.5344,5.5158,5.5158,5.4803,5.4617,5.4617,5.4228,5.4042,5.4042,5.367,5.3501,5.3501,5.3501,5.3501,5.3501,5.3501,5.3501,5.3501,5.3501,5.3501,5.3501,5.3501,5.3501,5.345,5.3044,5.2909,5.2773,5.2012,5.1505,5.1133,5.076,5.0135,4.9543,4.9543,4.9289,4.9001,4.9001,4.9001,4.9001,4.9001,4.9001,4.9001,4.9001,4.9001,4.9001,4.9001,4.9001,4.9001,4.9001,4.9001,4.9001,4.9001,4.9001,4.9001,4.9001,4.9001,4.9001,4.9001,4.9001,4.9001,4.9001,4.9001,4.9001,4.9001,4.9001,4.9001,4.9001,4.9001,4.9001,4.9001,4.9001,4.9001,4.9001,4.9001,4.9001,4.9001,4.9001,4.9001,0.0,0.0,0.0,0.0,0.0,0.0,0.0,0.0,5.23,5.23,5.23,5.23,5.23,5.2959,5.3501,5.3501,5.3501,5.3501,5.3501,5.3501,5.3551,5.3704,5.3721,5.3721,5.3721,5.438,5.4803,5.4803,5.5378,5.5784,5.5919,5.5919,5.5987,5.6139,5.6004,5.5919,5.5919,5.5749,5.5681,5.5681,5.5108,5.4735,5.4566,5.3974,5.3636,5.3501,5.3501,5.3501,5.3501,5.3501,5.3501,5.3501,5.3501,5.3501,5.3501,5.3501,5.3501,5.3501,5.3501,5.3501,5.3399,5.2739,5.2435,5.2198,5.1606,5.0913,5.0304,5.0304,4.9881,4.939,4.9255,4.9221,4.9187,4.9035,4.9001,4.9001,4.9001,4.9001,4.9001,4.9001,4.9001,4.9001,4.9001,4.9001,4.9001,4.9001,4.9001,4.9001,4.9001,4.9001,4.9001,4.9001,4.9001,4.9001,4.9001,4.9001,4.9001,4.9001,4.9001,4.9001,4.9001,4.9001,4.9001,4.9001,4.9001,4.9001,4.9001,4.9001,4.9001,4.9001,4.9001,4.9001,5.3501,5.3501,5.3501,5.3501,5.3501,5.3501,0.0,0.0,5.23,5.23,5.23,5.23,5.23,5.2959,5.3501,5.3501,5.3501,5.3501,5.3501,5.3501,5.3737,5.4397,5.4465,5.4465,5.4465,5.5141,5.5598,5.5598,5.5666,5.6004,5.6647,5.6681,5.6985,5.7628,5.7019,5.6681,5.6681,5.6038,5.5681,5.5681,5.5632,5.5243,5.4583,5.4499,5.411,5.3501,5.3501,5.3501,5.3501,5.3501,5.3501,5.3501,5.3501,5.3501,5.3501,5.3501,5.3501,5.3501,5.3501,5.3501,5.3501,5.3399,5.2892,5.2283,5.2198,5.1674,5.1099,5.1099,5.1031,5.0811,5.0152,4.9965,4.9796,4.9154,4.9001,4.9001,4.9001,4.9001,4.9001,4.9001,4.9001,4.9001,4.9001,4.9001,4.9001,4.9001,4.9001,4.9001,4.9001,4.9001,4.9001,4.9001,4.9001,4.9001,4.9001,4.9001,4.9001,4.9001,4.9001,4.9001,4.9001,4.9001,4.9001,4.9001,4.9001,4.9001,4.9001,4.9001,4.9001,4.9001,4.9001,4.9001,5.3501,5.3501,5.3501,5.3501,5.3501,5.3501,5.3501,5.3247,5.301,5.301,5.301,5.301,5.301,5.3281,5.3501,0.0,5.3501,5.3501,5.3501,5.3873,5.4245,5.4549,5.5361,5.5716,5.5294,5.5919,5.6342,5.6342,5.6748,5.7103,5.7408,5.7442,5.7577,5.7881,5.7594,5.7442,5.7442,5.712,5.6985,5.6985,5.6562,5.619,5.5869,5.5446,5.4837,5.411,5.3687,5.3501,5.3501,5.3501,5.3501,5.3501,5.3501,5.3501,5.3501,5.3501,5.3501,5.3501,5.3501,5.3501,5.3501,5.3501,5.3281,5.301,5.301,5.2469,5.1843,5.1843,5.1539,5.115,5.0828,5.0744,5.0659,5.0371,4.9949,4.9644,4.9644,4.9306,4.9001,4.9001,4.9001,4.9001,4.9001,4.9001,4.9001,4.9001,4.9001,4.9001,4.9001,4.9001,4.9001,4.9001,4.9001,4.9001,4.9001,4.9001,4.9001,4.9001,4.9001,4.9001,4.9001,4.9001,4.9001,4.9001,4.9094,4.9124,4.9124,4.9229,4.9307,4.9307,4.9307,4.9246,5.3501,5.3501,5.3501,5.3501,5.3501,5.3501,5.3501,5.3501,5.3501,5.3501,5.3501,5.3501,5.3501,5.3501,5.3501,5.3501,5.3501,5.3568,5.3771,5.4262,5.4735,5.5158,5.6156,5.6681,5.6342,5.6799,5.7103,5.7103,5.7594,5.7881,5.7881,5.7881,5.7881,5.7881,5.7881,5.7881,5.7881,5.7881,5.7881,5.7881,5.7357,5.7002,5.6782,5.6055,5.5412,5.4854,5.4126,5.3805,5.3788,5.3585,5.3501,5.3501,5.3501,5.3501,5.3501,5.3501,5.3501,5.3501,5.3501,5.3501,5.3501,5.3501,5.3501,5.3501,5.3501,5.3095,5.2638,5.2638,5.2249,5.1792,5.1572,5.1522,5.1471,5.1236,5.0794,5.0388,5.0388,4.9982,4.956,4.934,4.9306,4.9238,4.9035,4.9001,4.9001,4.9063,4.9063,4.9032,4.9001,4.9001,4.9001,4.9001,4.9001,4.9001,4.9063,4.9032,4.9001,4.9063,4.9032,4.9001,4.9001,4.9032,4.9063,4.9063,4.9216,4.929,4.929,4.9428,4.9518,4.9518,4.9518,4.9411,5.3501,5.3501,5.3501,5.3501,5.3501,5.3501,5.3501,5.3501,5.3501,5.3501,5.3501,5.3501,5.3501,5.3501,5.3501,5.3501,5.3501,5.3754,5.4465,5.4583,5.5124,5.6562,5.6765,5.707,0.0,5.7831,5.7865,5.7865,5.7881,5.7881,5.7881,5.7881,5.7881,5.7881,5.7881,5.7881,5.7881,5.7881,5.7881,5.7881,5.7865,5.7492,5.6782,5.6055,5.57,5.5649,5.4888,5.4566,5.4499,5.3788,5.3501,5.3501,5.3501,5.3501,5.3501,5.3501,5.3501,5.3501,5.3501,5.3501,5.3501,5.3501,5.3501,5.3501,5.3501,5.3484,5.3467,5.3467,5.345,5.3264,5.2469,5.2266,5.2097,5.1386,5.1168,5.1183,5.1183,5.1134,5.093,5.0202,5.005,4.983,4.912,4.9001,4.9032,4.9168,4.9199,4.9138,4.9001,4.9001,4.9001,4.9001,4.9001,4.9063,4.9199,4.9077,4.9063,4.9199,4.9063,4.9001,4.9001,4.9107,4.9199,4.9199,4.9381,4.9488,4.9488,4.9518,4.9518,4.9518,4.9518,4.9488,5.3501,5.3501,5.3501,5.3501,5.3501,5.3501,5.3501,5.3501,5.3501,5.3501,5.3501,5.3501,5.3501,5.3501,5.3501,5.3501,5.3501,5.3754,5.4482,5.5023,5.57,5.6681,5.7222,0.0,0.0,0.0,0.0,5.7881,5.7881,5.7881,5.7881,5.7881,5.7881,5.7881,5.7881,5.7881,5.7881,5.7881,5.7881,5.7881,5.7881,5.7763,5.7492,5.6765,5.6444,5.6393,5.5666,5.5057,5.4566,5.4329,5.3991,5.3634,5.3517,5.3551,5.3634,5.3534,5.3501,5.3501,5.3501,5.3501,5.3501,5.3501,5.3501,5.3501,5.3501,5.3501,5.3501,5.3501,5.3501,5.345,5.3179,5.3095,5.3044,5.279,5.2334,5.1944,5.1944,5.1555,5.115,5.0896,5.0941,5.0951,5.0714,5.0331,4.993,4.9466,4.9398,4.9381,4.9337,4.9337,4.9337,4.9337,4.9337,4.9367,4.9398,4.9367,4.9367,4.9398,4.9367,4.9337,4.9337,4.9367,4.9398,4.9398,4.956,4.9619,4.9619,4.9772,4.9848,4.9848,4.9848,4.9772,5.3551,5.3584,5.3584,5.3651,5.3685,5.3685,5.3685,5.3618,5.3584,5.3651,5.3584,5.3501,5.3551,5.3534,5.3501,5.3501,5.3721,5.4143,5.4888,5.5632,5.6376,5.7103,5.7594,5.7881,0.0,0.0,0.0,5.7881,5.7881,5.7881,5.7881,5.7881,5.7881,5.7881,5.7881,5.7881,5.7881,5.7881,5.7881,5.7881,5.7881,5.7881,5.7865,5.7408,5.7188,5.7154,5.6427,5.5818,5.5344,5.4803,5.4398,5.4074,5.3703,5.3668,5.3783,5.3701,5.3618,5.3551,5.3534,5.3501,5.3501,5.3501,5.3501,5.3501,5.3501,5.3501,5.3501,5.3501,5.3501,5.3501,5.3501,5.3501,5.3501,5.3501,5.3112,5.2739,5.2739,5.2367,5.1961,5.1739,5.1785,5.1828,5.1636,5.1333,5.0857,5.0091,5.0048,4.9945,4.9552,4.9518,4.9518,4.9518,4.9518,4.9518,4.9577,4.9547,4.9518,4.956,4.9518,4.9518,4.9518,4.9547,4.956,4.956,4.9725,4.9813,4.9813,4.9935,5.0011,5.0011,5.0011,4.9935,5.3651,5.37,5.375,5.3948,5.398,5.398,5.398,5.3849,5.3783,5.3948,5.3751,5.3551,0.0,0.0,5.3501,5.3501,5.4093,5.4803,5.5598,5.6308,5.7036,0.0,0.0,0.0,0.0,0.0,0.0,5.7881,0.0,5.7881,5.7881,5.7881,5.7881,5.7881,5.7881,5.7881,5.7881,5.7881,5.7881,5.7881,5.7881,5.7881,5.7881,5.7881,5.7881,5.7848,5.7154,5.6833,5.6697,5.5277,5.4771,5.472,5.4023,5.3883,5.4013,5.4013,5.3882,5.3717,5.3551,5.3501,5.3501,5.3501,5.3501,5.3501,5.3501,5.3501,5.3501,5.3501,5.3501,5.3501,5.3501,5.3501,5.3501,5.3501,5.3501,5.3501,5.3501,5.3501,5.3348,5.2784,5.268,5.249,5.1962,5.1998,5.1816,5.1077,5.1059,5.072,4.968,4.9518,4.9518,4.9518,4.9518,4.9577,4.9708,4.9607,4.9577,4.9708,4.9607,4.9518,4.9518,4.9649,4.9708,4.9708,4.9889,5.0011,5.0011,5.0011,5.0011,5.0011,5.0011,5.0011,5.3517,5.3634,5.37,5.3766,5.3882,5.398,5.398,5.3948,5.3948,5.398,5.3816,5.3651,0.0,0.0,0.0,5.3501,5.367,0.0,5.553,5.5869,0.0,5.7746,0.0,5.7881,5.7881,5.8044,0.0,0.0,5.7881,5.7881,5.7881,5.7881,5.7881,5.7881,5.7881,5.7881,5.7881,5.7881,5.7881,5.7881,5.7881,5.7881,5.7881,5.7881,5.7881,5.7881,5.7695,5.7306,5.6765,5.6393,5.5755,5.499,5.4635,5.436,5.4143,5.4045,5.398,5.3915,5.3899,5.3718,5.3501,5.3501,5.3501,5.3501,5.3501,5.3501,5.3501,5.3501,5.3501,5.3501,5.3501,5.3501,5.3501,5.3501,5.3501,5.3534,5.3634,5.3651,5.3633,5.3643,5.3722,5.3612,5.308,5.3005,5.2777,5.2002,5.1447,5.0809,4.998,4.9877,4.9877,4.9877,4.9877,4.9877,4.9935,4.9906,4.9906,4.9935,4.9906,4.9877,4.9877,4.9906,4.9935,4.9935,4.9964,5.0011,5.0011,5.0011,5.0011,5.0011,5.0011,5.0011,5.3584,5.3651,5.37,5.3816,5.3915,5.398,5.398,5.398,5.398,5.398,5.3849,5.37,5.37,5.3568,0.0,0.0,0.0,0.0,5.5669,5.6093,5.672,0.0,5.7881,0.0,5.7881,5.808,5.8116,0.0,5.7991,5.7991,5.7881,5.7881,5.7881,5.7881,5.7881,5.7881,5.7881,5.7881,5.7881,5.7881,5.7881,5.7881,5.7881,5.7881,5.7881,5.7881,0.0,5.7734,5.7399,5.7077,5.666,5.6132,5.5364,5.4967,5.4783,5.436,5.4143,5.4078,5.4078,5.3932,5.3718,5.3618,5.3551,5.3501,5.3501,5.3501,5.3501,5.3501,5.3501,5.3501,5.3501,5.3501,5.3501,5.3501,5.3551,5.3601,5.3684,5.3783,5.3882,5.4045,5.4207,5.4247,5.3928,5.3891,5.3632,5.2856,5.2373,5.1839,5.108,5.0407,5.0011,5.0011,5.0011,5.0011,5.0011,5.0011,5.0011,5.0011,5.0011,5.0011,5.0011,5.0011,5.0011,5.0011,5.0011,5.0011,5.0011,5.0011,5.0011,5.0011,5.0011,5.0011,5.3634,5.3684,5.3733,5.3915,5.398,5.398,5.398,5.398,5.398,5.398,5.3849,5.37,5.37,5.3568,5.3551,5.3684,0.0,5.5043,5.5893,5.6641,5.7301,5.7833,5.7918,5.7918,5.7881,5.8116,5.8152,5.7954,5.8116,5.8152,5.7918,5.7881,5.7881,5.7881,5.7881,5.7881,5.7881,5.7881,5.7881,5.7881,5.7881,5.7881,5.7881,5.7881,5.7881,5.7881,0.0,0.0,5.8137,5.7543,5.7413,5.7483,5.6196,5.5659,5.5497,5.4891,5.4453,5.4239,5.4239,5.4143,5.398,5.3816,5.3668,5.3568,5.3568,5.3568,5.3568,5.3534,5.3568,5.3568,5.3534,5.3534,5.3534,5.3568,5.3634,5.37,5.375,5.3915,5.411,5.4207,5.4367,5.4512,5.4512,5.4512,5.4287,5.3649,5.346,5.3149,5.2459,5.108,5.0149,5.0149,5.0062,5.0011,5.0011,5.0011,5.0011,5.0011,5.0011,5.0011,5.0011,5.0011,5.0011,5.0011,5.0011,5.0011,5.0011,5.0011,5.0011,5.0011,5.0011,5.0011,5.3534,5.3601,5.3717,5.3733,5.3882,5.398,5.398,5.398,0.0,5.398,5.3849,5.37,5.37,5.3568,5.3551,5.3684,5.4211,5.494,5.5858,5.6641,5.7301,0.0,5.8044,0.0,0.0,0.0,0.0,0.0,0.0,0.0,5.7918,5.7881,5.7881,5.7881,5.7881,5.7881,5.7881,5.7881,5.7881,5.7881,5.7881,5.7881,5.7881,5.7881,5.7881,5.7918,0.0,0.0,5.8207,5.8247,5.7979,5.7586,5.7329,5.6571,5.5598,5.5477,5.4997,5.4448,5.4448,5.4335,5.4143,5.398,5.3915,5.3932,5.3932,5.3932,5.3899,5.3717,5.38,5.3849,5.3717,5.3651,5.3717,5.3849,5.3816,5.3766,5.4061,5.4271,5.4416,5.4448,5.448,5.4512,5.4512,5.4512,5.4477,5.4339,5.3787,5.3356,5.3218,5.1873,5.0925,5.0925,5.0373,5.0011,5.0011,5.0011,5.0011,5.0011,5.0011,5.0011,5.0011,5.0011,5.0011,5.0011,5.0011,5.0011,5.0011,5.0011,5.0011,5.0011,5.0011,5.0011,5.3501,5.3551,5.3618,5.3618,5.3685,5.3751,5.3751,0.0,0.0,5.3734,5.3734,5.3684,5.3601,5.3551,5.3686,5.4194,5.4517,5.5162,5.649,5.6932,5.7372,5.8139,5.8116,0.0,0.0,0.0,0.0,0.0,0.0,0.0,5.808,5.7971,5.7881,5.7881,5.7881,5.7881,5.7881,5.7881,5.7881,5.7881,5.7881,5.7881,5.7881,5.7881,5.7881,5.7918,0.0,0.0,5.8367,5.8561,5.8513,5.829,5.7912,5.7119,5.6184,5.577,5.515,5.4512,5.4512,5.4448,5.4335,5.4271,5.4143,5.398,5.398,5.398,5.398,5.3882,5.3915,5.398,5.3882,5.3849,5.3882,5.398,5.398,5.4028,5.4303,5.4431,5.4512,5.4512,5.4512,5.4512,5.4512,5.4512,5.4512,5.4512,5.4201,5.3977,5.3977,5.2994,5.1994,5.12,5.0787,5.0424,5.0045,5.0011,5.0011,5.0011,5.0011,5.0011,5.0011,5.0011,5.0011,5.0011,5.0011,5.0011,5.0011,5.0011,5.0011,5.0011,5.0011,5.0011,5.3501,5.3501,5.3501,5.3501,5.3501,5.3501,5.3501,5.3584,5.3634,5.3534,5.3568,5.3634,5.3534,5.3636,5.3974,5.4669,5.5077,5.574,5.7054,5.736,5.7665,0.0,5.8188,0.0,0.0,0.0,0.0,0.0,0.0,0.0,5.8224,5.8007,5.7881,5.7881,5.7881,5.7881,5.7881,5.7881,5.7881,5.7881,5.7881,5.7918,5.7954,5.7918,5.7971,5.8044,0.0,0.0,0.0,5.8771,5.8892,5.8961,5.8374,5.7685,5.6943,5.6167,5.5391,5.4718,5.4563,5.4512,5.4512,5.4512,5.4303,5.4127,5.4127,5.4127,5.4078,5.4045,5.4078,5.4078,5.4045,5.4045,5.4045,5.4045,5.4143,5.4303,5.448,5.4512,5.4512,5.4512,5.4512,5.4512,5.4512,5.4512,5.4512,5.4512,5.4512,5.4512,5.4512,5.3994,5.3115,5.1752,5.1304,5.0873,5.0287,5.0097,5.0011,5.0011,5.0011,5.0011,5.0011,5.0011,5.0011,5.0011,5.0011,5.0011,5.0011,5.0011,5.0011,5.0011,5.0011,5.0011,5.3501,5.3501,5.3501,5.3501,5.3501,5.3501,5.3501,0.0,5.3501,5.3501,5.3501,5.3501,5.3501,5.4042,5.4567,5.4771,5.5961,5.693,5.7118,5.7855,5.8334,5.826,0.0,0.0,0.0,0.0,0.0,0.0,0.0,0.0,0.0,5.8007,5.7881,5.7881,5.7881,5.7881,5.7881,5.7881,5.7881,5.7881,5.7881,5.8007,5.8152,5.7991,5.8116,5.8455,0.0,0.0,0.0,5.8927,5.8978,5.9012,5.8944,5.8461,5.7719,5.696,5.6184,5.5408,5.4736,5.4512,5.4512,5.4512,5.448,5.4448,5.4448,5.4448,5.4416,5.4239,5.4303,5.4399,5.4239,5.4175,5.4175,5.4175,5.4335,5.448,5.4512,5.4512,5.4512,5.4512,5.4512,5.4512,5.4512,5.4512,5.4512,5.4512,5.4512,5.4512,5.4512,5.4443,5.4098,5.3287,5.1942,5.108,5.1011,5.039,5.0011,5.0011,5.0011,5.0011,5.0011,5.0011,5.0011,5.0011,5.0011,5.0011,5.0011,5.0011,5.0011,5.0011,5.0011,5.0011,5.3501,5.3501,5.3501,5.3501,5.3501,5.3501,5.3501,0.0,5.3501,5.3501,5.3501,5.3636,5.4076,5.4397,5.494,5.5994,5.6692,0.0,5.803,5.8337,5.8561,5.8667,5.8579,0.0,0.0,0.0,0.0,0.0,0.0,0.0,0.0,5.826,5.808,5.808,5.808,5.808,5.808,5.7954,5.7881,5.7881,5.7881,5.8007,5.8188,5.8116,5.8224,5.8525,0.0,0.0,0.0,5.8961,5.9012,5.9012,5.9012,5.8564,5.7823,5.7064,5.6305,5.5512,5.477,5.4512,5.4512,5.4512,5.4512,5.4512,5.4512,5.4512,5.448,5.4399,5.4448,5.448,5.4399,5.4367,5.4367,5.4367,5.4448,5.4512,5.4512,5.4512,5.4512,5.4512,5.4512,5.4512,5.4512,5.4512,5.4512,5.4512,5.4512,5.4512,5.4512,5.4512,5.4391,5.4098,5.3132,5.2114,5.1183,5.0838,5.0476,5.0045,5.0011,5.0011,5.0011,5.0011,5.0011,5.0011,5.0011,5.0011,5.0011,5.0011,5.0011,5.0011,5.0011,5.0011,5.3501,5.3501,5.3501,5.3501,5.3501,5.3501,5.3501,0.0,5.3501,5.3501,5.3501,5.3737,5.4448,5.4769,5.5414,5.6861,0.0,5.7787,5.8597,5.8631,5.8666,0.0,0.0,0.0,0.0,0.0,0.0,0.0,0.0,0.0,0.0,5.8525,5.8331,5.8295,5.8224,5.8188,5.8188,5.7991,5.7881,5.7881,5.7954,5.808,5.8295,5.8295,5.8402,0.0,0.0,0.0,0.0,5.8961,5.9012,5.9012,5.9012,5.8564,5.7823,5.7064,5.6401,5.5764,5.5019,5.4759,5.479,5.497,5.479,5.4543,5.4697,5.4652,5.4512,5.4512,5.4512,5.4512,5.4512,5.4512,5.4512,5.4512,5.4512,5.4512,5.4512,5.4512,5.4512,5.4512,5.4512,5.4512,5.4512,5.4512,5.4512,5.4512,5.4512,5.4512,5.4512,5.4512,5.4512,5.4512,5.4046,5.3201,5.189,5.1373,5.089,5.0373,5.0131,5.0011,5.0011,5.0011,5.0011,5.0011,5.0011,5.0011,5.0011,5.0011,5.0011,5.0011,5.0011,5.0011,5.3501,5.3501,5.3501,5.3501,5.3501,5.3501,5.3501,5.3501,5.3501,5.3501,5.3501,5.3737,5.4448,5.5209,5.5988,5.6946,5.7889,0.0,5.849,5.8666,5.8788,0.0,0.0,0.0,0.0,0.0,0.0,0.0,0.0,0.0,0.0,5.8788,5.8701,5.849,5.8295,5.8188,5.8188,5.7991,5.7881,5.7881,5.8116,5.8295,5.849,5.849,0.0,0.0,0.0,0.0,0.0,5.9012,5.9012,5.9012,5.9012,5.8564,5.7823,5.7064,5.6672,5.639,5.5665,5.5385,5.5502,5.6083,5.5473,5.462,5.5194,5.497,5.4512,5.4512,5.4512,5.4512,5.4512,5.4512,5.4512,5.4512,5.4512,5.4512,5.4512,5.4512,5.4512,5.4512,5.4512,5.4512,5.4512,5.4512,5.4512,5.4512,5.4512,5.4512,5.4512,5.4512,5.4512,5.4512,5.4494,5.4201,5.3442,5.1994,5.1114,5.1097,5.0407,5.0011,5.0011,5.0011,5.0011,5.0011,5.0011,5.0011,5.0011,5.0011,5.0011,5.0011,5.0011,5.0011,5.3501,5.3501,5.3501,5.3501,5.3501,5.3501,5.3501,5.3501,5.3501,5.3501,5.3907,5.4482,5.5226,5.6076,5.6946,5.7906,5.8407,0.0,0.0,0.0,0.0,5.8927,0.0,0.0,0.0,0.0,0.0,0.0,0.0,0.0,0.0,0.0,5.8875,5.8718,5.8631,5.8525,5.8419,5.8224,5.8116,5.8116,5.8188,5.8384,5.8718,5.8718,0.0,0.0,0.0,0.0,0.0,5.9012,5.9012,5.9012,5.9012,5.8799,5.8378,5.7211,5.6937,5.6932,5.5795,5.5385,5.5414,5.5601,5.5152,5.4543,5.4728,5.4652,5.4512,5.4512,5.4512,5.4512,5.4512,5.4512,5.4512,5.4512,5.4512,5.4512,5.4512,5.4512,5.4512,5.4512,5.4512,5.4512,5.4512,5.4512,5.4512,5.4512,5.4512,5.4512,5.4512,5.4512,5.4512,5.4512,5.4512,5.4201,5.346,5.2959,5.2235,5.1183,5.089,5.0545,5.0028,5.0011,5.0011,5.0011,5.0011,5.0011,5.0011,5.0011,5.0011,5.0011,5.0011,5.0011,5.3501,5.3501,5.3501,5.3501,5.3501,0.0,5.3501,5.3501,5.3501,5.3501,5.4093,5.4854,5.5669,5.652,5.7444,5.8441,5.8718,5.884,0.0,0.0,0.0,5.9012,0.0,0.0,0.0,0.0,0.0,0.0,0.0,0.0,0.0,0.0,5.8961,5.8875,5.8823,5.8701,5.849,5.8384,5.826,5.8188,5.8331,5.8561,5.8788,0.0,0.0,0.0,0.0,0.0,0.0,5.9012,5.9012,5.9012,5.9267,5.8953,5.8307,5.7709,5.7388,5.7182,5.6308,5.5915,5.5773,5.5981,5.5502,5.4834,5.4834,5.4665,5.4512,5.4512,5.4512,5.4512,5.4512,5.4512,5.4512,5.4512,5.4512,5.4512,5.4512,5.4512,5.4512,5.4512,5.4512,5.4512,5.4512,5.4512,5.4512,5.4512,5.4512,5.4512,5.4512,5.4512,5.4512,5.4512,5.4512,5.4322,5.3856,5.3563,5.2994,5.2028,5.1425,5.0907,5.0442,5.0149,5.0011,5.0011,5.0011,5.0011,5.0011,5.0011,5.0011,5.0011,5.0011,5.0011,0.0,5.3501,5.3501,5.3501,5.3501,5.3501,5.3501,5.3501,0.0,5.3501,5.4126,5.494,5.5842,5.6659,5.7547,5.8633,5.8823,5.884,0.0,5.9012,0.0,0.0,0.0,0.0,0.0,0.0,0.0,0.0,0.0,0.0,0.0,0.0,5.9012,5.9012,5.8875,5.8718,5.8525,5.8525,5.8419,5.826,5.8631,5.8788,5.8823,0.0,0.0,0.0,0.0,0.0,0.0,5.9012,5.9047,5.9132,5.9691,5.905,5.7885,5.8341,5.7918,5.7073,5.7065,5.6731,5.6384,5.6817,5.6258,5.5385,5.5343,5.4939,5.4512,5.4557,5.4543,5.4512,5.4512,5.4512,5.4512,5.4512,5.4512,5.4512,5.4512,5.4512,5.4512,5.4512,5.4512,5.4512,5.4512,5.4512,5.4512,5.4512,5.4512,5.4512,5.4512,5.4512,5.4512,5.4512,5.4512,5.4512,5.4512,5.3873,5.346,5.3408,5.2063,5.1218,5.1114,5.0442,5.0062,5.0011,5.0011,5.0011,5.0011,5.0011,5.0011,5.0011,5.0011,5.0011,5.3501,0.0,5.3501,5.3501,5.3501,5.3501,0.0,5.3501,5.3501,5.3501,5.4549,5.5566,5.5927,5.7189,5.832,5.8719,5.8909,5.8944,5.9012,0.0,0.0,5.9012,0.0,0.0,0.0,0.0,0.0,0.0,0.0,0.0,0.0,0.0,5.9012,5.9012,5.8961,5.8858,5.8753,5.8718,5.8718,5.8666,5.8753,5.884,5.8944,0.0,0.0,0.0,0.0,0.0,5.9012,5.9012,5.93,5.9709,5.9257,5.9088,5.896,5.8037,5.7424,5.704,5.6652,5.6412,5.6248,5.5915,5.5601,5.5313,5.4834,5.462,5.4589,5.5061,5.4865,5.4512,5.4512,5.4512,5.4512,5.4512,5.4512,5.4512,5.4512,5.4512,5.4512,5.4512,5.4512,5.4512,5.4512,5.4512,5.4512,5.4512,5.4512,5.4512,5.4512,5.4512,5.4512,5.4512,5.4512,5.4512,5.4512,5.4339,5.4011,5.3442,5.3063,5.2339,5.1166,5.0942,5.058,5.0011,5.0011,5.0011,5.0011,5.0011,5.0011,5.0011,5.0011,5.0011,5.3501,5.3501,5.3501,5.3501,5.3501,5.3501,5.3501,5.3501,5.3602,5.3923,5.4974,5.6011,5.6524,5.7756,5.8701,5.8875,5.8961,0.0,0.0,0.0,5.9012,0.0,0.0,0.0,0.0,0.0,0.0,0.0,0.0,0.0,0.0,0.0,5.9012,5.9012,5.93,5.925,5.8788,5.8875,5.8875,5.8788,5.8875,5.8927,5.9012,0.0,0.0,0.0,0.0,0.0,5.9012,5.9317,5.9663,5.9963,5.9769,5.9593,5.9408,5.8541,5.7923,5.7425,5.6861,5.6519,5.6248,5.5915,5.5801,5.5801,5.5716,5.5325,5.4926,5.497,5.4759,5.4512,5.4512,5.4512,5.4512,5.4512,5.477,5.5012,5.5012,5.5012,5.5012,5.5012,5.4736,5.4512,5.4512,5.4512,5.4512,5.4512,5.4512,5.4512,5.4512,5.4512,5.4512,5.4512,5.4512,5.4512,5.4512,5.4512,5.4339,5.3942,5.3598,5.2873,5.1636,5.1287,5.0752,5.0011,5.0011,5.0011,5.0011,5.0011,5.0011,5.0011,5.0011,5.0011,5.3501,5.3501,5.3501,5.3501,5.3501,5.3501,5.3501,5.3501,5.3704,5.4448,5.5348,5.6303,5.7225,5.8186,5.884,5.8978,0.0,0.0,5.9012,5.9012,5.9012,0.0,0.0,0.0,0.0,0.0,0.0,0.0,0.0,0.0,0.0,0.0,0.0,5.9012,5.9631,5.9615,5.8857,5.9047,5.9047,5.8806,5.8961,5.9047,5.9132,5.9047,0.0,0.0,0.0,0.0,5.9333,5.9905,6.0121,6.0145,6.0418,6.0076,5.9408,5.9109,5.8537,5.7797,5.7284,5.6739,5.6303,5.6412,5.6438,5.6474,5.6869,5.6231,5.5284,5.479,5.4557,5.4529,5.4649,5.4684,5.4718,5.4822,5.5339,5.5788,5.5788,5.5788,5.5788,5.5788,5.5184,5.4684,5.4684,5.4581,5.4512,5.4512,5.4512,5.4512,5.4512,5.4512,5.4512,5.4512,5.4512,5.4512,5.4512,5.4512,5.4512,5.4512,5.3908,5.3166,5.2222,5.1511,5.0752,5.0011,5.0011,5.0011,5.0011,5.0011,5.0011,5.0011,5.0011,5.0011,5.3501,5.3501,5.3501,5.3501,5.3501,5.3501,5.3501,5.3501,5.3704,5.4448,5.5348,5.6303,5.7225,5.8186,5.884,5.8978,0.0,5.9012,0.0,0.0,0.0,0.0,0.0,0.0,0.0,0.0,0.0,0.0,0.0,0.0,0.0,0.0,0.0,5.9012,5.9631,5.9663,5.8995,5.9549,5.9549,5.8961,5.8978,5.93,5.9826,5.9267,5.9596,0.0,0.0,6.0125,6.0628,6.0718,6.0686,6.0538,5.9907,5.9492,5.9163,5.8469,5.777,5.7216,5.7141,5.6739,5.6384,5.6817,5.6989,5.6912,5.6546,5.5943,5.5385,5.5284,5.4896,5.4649,5.5288,5.5443,5.5615,5.6288,5.6529,5.6615,5.6615,5.6615,5.6615,5.6615,5.5977,5.5443,5.5443,5.4925,5.4512,5.4512,5.4512,5.4512,5.4512,5.4512,5.4512,5.4512,5.4512,5.4512,5.4512,5.4512,5.4512,5.4512,5.4391,5.3701,5.2239,5.1511,5.0752,5.0011,5.0011,5.0011,5.0011,5.0011,5.0011,5.0011,5.0011,5.0011,5.3501,5.3501,5.3501,5.3501,5.3501,5.3501,5.3501,5.3551,5.3923,5.5111,5.5826,5.6662,5.7912,5.8582,5.8927,5.8978,0.0,5.9012,0.0,0.0,0.0,0.0,0.0,0.0,0.0,0.0,0.0,0.0,0.0,0.0,0.0,0.0,0.0,0.0,5.9631,5.9858,5.9549,6.0156,6.0156,5.9549,5.9549,5.9856,6.0481,6.017,6.034,6.0897,0.0,6.0646,6.0891,6.0816,6.0755,6.0611,5.9688,5.9262,5.9069,5.7929,5.7141,5.6713,5.7015,5.6739,5.6438,5.7327,5.7589,5.7522,5.7284,5.6581,5.5975,5.6372,5.5806,5.5184,5.5529,5.5926,5.634,5.6719,5.7098,5.7391,5.7391,5.7391,5.7391,5.7391,5.6771,5.6253,5.6253,5.5615,5.5098,5.5098,5.477,5.4512,5.4512,5.4512,5.4512,5.4512,5.4512,5.4512,5.4512,5.4512,5.4512,5.4512,5.4132,5.3598,5.2891,5.1735,5.0942,5.0614,5.02,5.0011,5.0011,5.0011,5.0011,5.0011,5.0011,5.0011,5.3501,5.3501,5.3501,5.3501,5.3501,5.3501,5.3517,5.3634,5.4091,5.5502,5.6183,5.6917,5.8273,5.8772,0.0,5.9012,5.9012,0.0,0.0,0.0,0.0,0.0,0.0,0.0,0.0,0.0,0.0,0.0,0.0,0.0,0.0,0.0,0.0,0.0,6.0033,6.0362,6.0205,6.0826,6.0826,6.0205,6.0205,6.056,6.112,6.0956,6.1073,6.135,6.1207,6.1189,6.1307,6.1027,6.0814,6.0532,5.9572,5.8985,5.8543,5.7351,5.6554,5.6166,5.6713,5.6634,5.6465,5.7449,5.7886,5.7973,5.7821,5.7083,5.6409,5.7025,5.6562,5.5926,5.6098,5.6598,5.7098,5.7271,5.7754,5.8167,5.8167,5.8167,5.8167,5.8167,5.7564,5.7064,5.7064,5.6408,5.5839,5.565,5.5132,5.4718,5.4529,5.4512,5.4512,5.4512,5.4512,5.4512,5.4512,5.4512,5.4512,5.4512,5.3977,5.358,5.3408,5.227,5.1476,5.1114,5.0562,5.0183,5.0011,5.0011,5.0011,5.0011,5.0011,5.0011,5.3501,5.3501,5.3501,5.3501,5.3501,5.3534,5.3651,5.3667,5.3971,5.4956,5.5891,5.6745,5.7552,5.841,5.9012,5.9012,5.9012,0.0,0.0,0.0,0.0,0.0,0.0,0.0,0.0,0.0,0.0,0.0,0.0,0.0,0.0,0.0,0.0,0.0,0.0,6.1472,6.0838,6.15,6.1482,6.0838,6.0838,6.1178,6.1814,6.1178,6.1548,6.2636,6.2059,6.2157,6.2606,6.185,6.1105,6.0329,5.9533,5.8385,5.7163,5.659,5.5971,5.556,5.6166,5.633,5.6412,5.6989,5.7546,5.7886,5.7333,5.6765,5.6354,5.6505,5.6624,5.6874,5.7564,5.7788,5.7995,5.8685,5.8892,5.8926,5.8926,5.8926,5.8926,5.8926,5.834,5.7823,5.7823,5.7202,5.646,5.5719,5.5531,5.5288,5.4598,5.4512,5.4512,5.4512,5.4512,5.4512,5.4512,5.4512,5.4512,5.4512,5.446,5.4115,5.3442,5.3287,5.2563,5.1132,5.1063,5.0683,5.0011,5.0011,5.0011,5.0011,5.0011,5.0011,5.3501,5.3501,5.3501,5.3501,5.3501,5.3534,5.3684,5.3816,5.4289,5.5686,5.635,5.705,0.0,0.0,5.9012,5.9012,5.9012,0.0,0.0,0.0,0.0,0.0,0.0,0.0,0.0,0.0,0.0,0.0,0.0,0.0,0.0,0.0,0.0,0.0,0.0,6.1368,6.1528,6.1769,6.1978,6.2068,6.1696,6.1851,6.2438,6.2192,6.2342,6.2798,6.2559,6.2585,6.2688,6.1392,6.0676,6.0272,5.8969,5.8137,5.7565,5.6652,5.6166,5.5943,5.5773,5.5999,5.6384,5.6938,5.7498,5.7886,5.7266,5.7046,5.7028,5.7186,5.7358,5.7547,5.784,5.8254,5.8668,5.8944,5.9012,5.9012,5.9012,5.9012,5.9012,5.9012,5.8788,5.8581,5.8581,5.7978,5.7391,5.7081,5.6219,5.548,5.5236,5.4787,5.4512,5.4512,5.4512,5.4512,5.4512,5.4512,5.4512,5.4512,5.4512,5.4374,5.4098,5.3649,5.3132,5.2546,5.1597,5.0976,5.0683,5.0235,5.0011,5.0011,5.0011,5.0011,5.3501,5.3501,5.3501,5.3501,5.3501,5.3551,5.375,5.3915,5.4353,5.5611,5.6362,5.7253,5.8737,0.0,0.0,0.0,0.0,0.0,0.0,0.0,0.0,0.0,0.0,0.0,0.0,0.0,0.0,0.0,0.0,0.0,0.0,0.0,0.0,0.0,0.0,0.0,6.2184,6.2184,6.2386,6.2798,6.2386,6.2412,6.278,6.278,6.278,6.278,6.278,6.2677,6.2328,6.097,6.0107,5.9515,5.8236,5.7726,5.7589,5.6438,5.6027,5.5943,5.5343,5.5647,5.6357,5.6713,5.7376,5.7886,5.7266,5.7244,5.7445,5.7643,5.7811,5.7961,5.8202,5.8633,5.9012,5.9012,5.9012,5.9012,5.9012,5.9012,5.9012,5.9012,5.9012,5.9012,5.9012,5.8581,5.8185,5.7943,5.6805,5.5891,5.5617,5.4977,5.4512,5.4512,5.4512,5.4512,5.4512,5.4512,5.4512,5.4512,5.4512,5.4512,5.4512,5.4029,5.3649,5.3408,5.2373,5.1597,5.1114,5.0597,5.0235,5.0011,5.0011,5.0011,5.3501,5.3501,5.3501,5.3501,5.3501,5.3601,5.3915,5.398,5.4095,5.4465,5.5753,5.7253,5.8737,5.9012,0.0,0.0,0.0,0.0,0.0,0.0,0.0,0.0,0.0,0.0,0.0,0.0,0.0,0.0,0.0,0.0,0.0,0.0,0.0,0.0,0.0,0.0,6.278,6.278,6.278,6.278,6.278,6.278,6.278,6.278,6.278,6.278,6.278,6.2346,6.1539,6.0731,5.9446,5.7932,5.7333,5.7116,5.6971,5.5812,5.5414,5.5313,5.4728,5.5313,5.6303,5.6303,5.7083,5.7886,5.7284,5.7262,5.7463,5.7643,5.7811,5.8081,5.8823,5.9012,5.9012,5.9012,5.9012,5.9012,5.9012,5.9012,5.9012,5.9012,5.9012,5.9012,5.9012,5.9012,5.8754,5.803,5.7288,5.6529,5.5719,5.4977,5.4512,5.4512,5.4512,5.4512,5.4512,5.4512,5.4512,5.4512,5.4512,5.4512,5.4512,5.4512,5.4167,5.3425,5.3408,5.2649,5.1132,5.1132,5.0735,5.0011,5.0011,5.0011,5.3501,5.3501,5.3501,5.3501,5.3584,5.3684,5.3965,5.398,5.4386,5.5826,5.6891,5.7874,5.8823,0.0,0.0,0.0,0.0,0.0,0.0,0.0,0.0,0.0,0.0,0.0,0.0,0.0,0.0,0.0,0.0,0.0,0.0,0.0,0.0,0.0,0.0,0.0,6.278,6.278,6.278,6.278,6.278,6.278,6.278,6.278,6.278,6.278,6.278,6.2346,6.1484,6.0126,5.8951,5.7973,5.7797,5.775,5.7637,5.6869,5.6367,5.5999,5.583,5.5999,5.6357,5.6739,5.7376,5.7995,5.7962,5.8053,5.8234,5.8453,5.8594,5.8737,5.8961,5.9012,5.9012,5.9012,5.9012,5.9012,5.9012,5.9012,5.9012,5.9012,5.9012,5.9012,5.9012,5.9012,5.8944,5.8719,5.8064,5.7098,5.5788,5.4977,5.4512,5.4512,5.4512,5.4512,5.4512,5.4512,5.4512,5.4512,5.4512,5.4512,5.4512,5.4512,5.4408,5.4184,5.3667,5.3166,5.2718,5.2166,5.1481,5.0787,5.0787,5.0511,5.3501,5.3501,5.3501,5.3501,5.3601,5.3783,5.4013,5.4143,5.4686,5.6445,5.715,5.7788,5.8823,5.9012,0.0,0.0,0.0,0.0,0.0,0.0,0.0,0.0,0.0,0.0,0.0,0.0,0.0,0.0,0.0,0.0,0.0,0.0,0.0,0.0,0.0,0.0,6.278,6.278,6.278,6.278,6.278,6.278,6.278,6.278,6.278,6.2743,6.2101,6.1575,6.1006,5.9391,5.8437,5.7997,5.7997,5.7997,5.7932,5.7333,5.6912,5.6554,5.6111,5.6231,5.6652,5.6757,5.7333,5.8097,5.8519,5.8776,5.8944,5.9165,5.9309,5.9317,5.9081,5.9012,5.9012,5.9012,5.9012,5.9012,5.9012,5.9012,5.9012,5.9012,5.9012,5.9012,5.9012,5.9012,5.9012,5.9012,5.8374,5.7357,5.5805,5.5219,5.4839,5.4546,5.4512,5.4512,5.4512,5.4512,5.4512,5.4512,5.4512,5.4512,5.4512,5.4512,5.4512,5.4512,5.4063,5.3701,5.3408,5.2925,5.2287,5.1563,5.1563,5.1149,5.3501,5.3501,5.3501,5.3501,5.3601,5.3816,5.4158,5.4367,5.4943,5.6477,0.0,5.7253,5.8737,0.0,0.0,0.0,0.0,0.0,0.0,0.0,0.0,0.0,0.0,0.0,0.0,0.0,0.0,0.0,0.0,0.0,0.0,0.0,0.0,0.0,0.0,0.0,6.278,6.278,6.278,0.0,6.278,6.278,6.278,6.278,6.2768,6.2622,6.108,6.0364,6.0181,5.8639,5.7997,5.7997,5.7997,5.7997,5.7932,5.7382,5.7141,5.6946,5.5897,5.6231,5.704,5.6528,5.7109,5.8162,5.9038,5.9388,5.9555,5.9756,5.9919,5.9858,5.9165,5.9012,5.9012,5.9012,5.9012,5.9012,5.9012,5.9012,5.9012,5.9012,5.9012,5.9012,5.9012,5.9012,5.9012,5.9012,5.8374,5.7374,5.5908,5.5667,5.5339,5.4581,5.4512,5.4512,5.4512,5.4512,5.4512,5.4512,5.4512,5.4512,5.4512,5.4512,5.4512,5.4512,5.4512,5.4184,5.3494,5.3494,5.3097,5.2321,5.2321,5.1895,5.3501,5.3501,5.3501,5.3501,5.3718,5.4013,5.4353,5.448,5.4943,5.6477,5.6805,5.7253,0.0,0.0,0.0,0.0,0.0,0.0,0.0,0.0,0.0,0.0,0.0,0.0,0.0,0.0,0.0,0.0,0.0,0.0,0.0,0.0,0.0,0.0,0.0,6.278,6.278,6.278,6.278,0.0,6.278,6.278,6.278,6.278,6.2475,6.1796,6.0823,6.0052,5.9368,5.84,5.7997,5.7997,5.7997,5.7997,5.7997,5.7844,5.7498,5.7047,5.6817,5.6894,5.7091,5.6964,5.7425,5.8272,5.9722,5.9826,5.9663,6.0447,6.0326,5.9858,5.9165,5.9012,5.9012,5.9012,5.9012,5.9012,5.9012,5.9012,5.9012,5.9012,5.9012,5.9012,5.9012,5.9012,5.9012,5.9012,5.8374,5.7581,5.6667,5.5995,5.5339,5.4581,5.4512,5.4512,5.4512,5.4512,5.4512,5.4512,5.4512,5.4512,5.4512,5.4512,5.4512,5.4512,5.4512,5.4425,5.427,5.427,5.3891,5.3149,5.3149,5.2735,5.3501,5.3501,5.3534,5.3685,5.3866,5.4078,5.4416,5.4512,5.4839,5.5995,5.6529,5.7253,0.0,0.0,0.0,0.0,0.0,0.0,0.0,0.0,0.0,0.0,0.0,0.0,0.0,0.0,0.0,0.0,0.0,0.0,0.0,0.0,0.0,0.0,6.278,6.278,6.278,6.278,6.278,6.278,6.278,6.278,6.278,6.278,6.2365,6.1557,6.075,5.9942,5.9129,5.8327,5.7997,5.7997,5.7997,5.7997,5.7997,5.7997,5.7797,5.7498,5.7191,5.7284,5.7474,5.7191,5.7498,5.829,5.9924,6.0188,6.0129,6.1106,6.0915,6.0282,5.9663,5.9233,5.9012,5.9012,5.9012,5.9012,5.9012,5.9012,5.9012,5.9012,5.9012,5.9012,5.9012,5.9012,5.9012,5.9012,5.8685,5.8167,5.7426,5.665,5.5891,5.5115,5.4718,5.4512,5.4512,5.4512,5.4512,5.4512,5.4512,5.4512,5.4512,5.4512,5.4512,5.4512,5.4512,5.4512,5.4512,5.4512,5.4305,5.3942,5.3942,5.3511,5.3501,5.3501,5.3568,5.3849,5.398,5.4078,5.4367,5.448,5.4718,5.546,5.6253,0.0,0.0,0.0,0.0,0.0,0.0,0.0,0.0,0.0,0.0,0.0,0.0,0.0,0.0,0.0,0.0,0.0,0.0,0.0,0.0,0.0,6.278,6.278,6.278,6.278,6.278,6.278,6.278,6.278,6.278,6.278,6.278,6.2677,6.2163,6.1355,6.0694,5.9869,5.8927,5.8272,5.7997,5.7997,5.7997,5.7997,5.7997,5.7997,5.7997,5.7909,5.7309,5.7498,5.7909,5.7309,5.7589,5.8474,5.996,6.0511,6.0775,6.166,6.1425,6.0748,6.016,5.9516,5.9012,5.9012,5.9012,5.9012,5.9012,5.9012,5.9012,5.9012,5.9012,5.9012,5.9012,5.9012,5.9012,5.9012,5.9012,5.8771,5.8145,5.7423,5.6665,5.5862,5.5127,5.4649,5.4529,5.4512,5.4512,5.4512,5.4512,5.4512,5.4512,5.4512,5.4512,5.4512,5.4512,5.4512,5.4512,5.4512,5.4512,5.4512,5.4512,5.4184,5.3501,5.3501,5.3534,5.3684,5.3882,5.4045,5.419,5.4367,5.4718,0.0,5.6253,0.0,0.0,0.0,0.0,0.0,0.0,0.0,0.0,0.0,0.0,0.0,0.0,0.0,0.0,0.0,0.0,0.0,0.0,0.0,0.0,6.278,6.278,6.278,6.278,6.278,6.278,6.278,6.278,6.278,6.278,6.278,6.2762,6.2089,6.1318,6.0548,6.0456,5.9557,5.8143,5.8033,5.7997,5.7997,5.7997,5.7997,5.7997,5.7997,5.7997,5.7909,5.7309,5.7498,5.7909,5.7309,5.7972,5.9203,6.0126,6.0896,6.1514,6.1805,6.1425,6.0748,6.016,5.9516,5.9012,5.9012,5.9012,5.9012,5.9012,5.9012,5.9012,5.9012,5.9012,5.9012,5.9012,5.9012,5.9012,5.9012,5.9012,5.8922,5.8811,5.8153,5.7415,5.6567,5.5845,5.5201,5.4563,5.4512,5.4512,5.4512,5.4512,5.4512,5.4512,5.4512,5.4512,5.4512,5.4512,5.4512,5.4512,5.4512,5.4512,5.4512,5.4512,5.446,5.3501,5.3501,5.3534,5.3684,5.3783,5.3915,5.4126,5.4271,5.4471,5.4894,0.0,0.0,0.0,0.0,0.0,0.0,0.0,0.0,0.0,0.0,0.0,0.0,0.0,0.0,0.0,0.0,0.0,0.0,0.0,0.0,6.278,6.278,6.278,6.278,6.278,6.278,6.278,6.278,6.278,6.278,6.278,6.278,6.2762,6.1961,6.1153,6.0382,5.9924,5.9079,5.7997,5.7997,5.7997,5.7997,5.7997,5.7997,5.7997,5.7997,5.7997,5.7955,5.7703,5.7774,5.7973,5.7684,5.8322,5.9349,6.0162,6.097,6.171,6.2245,6.1696,6.0838,6.0555,5.9759,5.9012,5.9012,5.9012,5.9012,5.9012,5.9012,5.9012,5.9012,5.9012,5.9012,5.9012,5.9012,5.9012,5.9012,5.9012,5.9112,5.9467,5.8905,5.8142,5.7316,5.658,5.5699,5.4595,5.4512,5.4512,5.4512,5.4512,5.4512,5.4512,5.4512,5.4512,5.4512,5.4512,5.4512,5.4512,5.4512,5.4512,5.4512,5.4512,5.4512,5.3501,5.3501,5.3534,5.3634,5.3684,5.3766,5.4061,0.0,5.4271,0.0,0.0,0.0,0.0,0.0,0.0,0.0,0.0,0.0,0.0,0.0,0.0,0.0,0.0,0.0,0.0,0.0,0.0,0.0,0.0,0.0,6.278,6.278,6.278,6.278,6.278,6.278,6.278,6.278,6.278,6.278,6.278,6.278,6.2762,6.1759,6.097,6.0364,5.9533,5.8749,5.7997,5.7997,5.7997,5.7997,5.7997,5.7997,5.7997,5.7997,5.7997,5.7997,5.7997,5.7997,5.7997,5.7997,5.8676,5.9606,6.0236,6.1098,6.2034,6.264,6.1888,6.0897,6.0897,5.9949,5.9012,5.9012,5.9012,5.9012,5.9012,5.9012,5.9012,5.9012,5.9012,5.9012,5.9012,5.9012,5.9012,5.9012,5.9149,5.9499,6.0143,5.9743,5.9122,5.8328,5.7402,5.63,5.492,5.4755,5.4728,5.4728,5.4728,5.4728,5.4728,5.4589,5.4512,5.4512,5.4512,5.4512,5.4512,5.4512,5.4512,5.4512,5.4512,5.4512,5.3501,5.3501,5.3501,5.3501,5.3618,5.3733,5.3948,0.0,5.4271,0.0,0.0,0.0,0.0,0.0,0.0,0.0,0.0,0.0,0.0,0.0,0.0,0.0,0.0,0.0,0.0,0.0,0.0,0.0,0.0,6.278,6.278,6.278,6.278,6.278,6.278,6.278,6.278,6.278,6.278,6.278,6.278,6.278,6.2743,6.119,6.0438,6.0364,5.9533,5.8749,5.7997,5.7997,5.7997,5.7997,5.7997,5.7997,5.7997,5.7997,5.7997,5.7997,5.7997,5.7997,5.7997,5.7997,5.9061,6.0346,6.0401,6.1502,6.2743,6.278,6.1888,6.0897,6.0897,5.9949,5.9012,5.9012,5.9012,5.9012,5.9012,5.9012,5.9012,5.9012,5.9012,5.9012,5.9012,5.9012,5.9012,5.9012,5.9549,6.0174,6.0796,6.0802,6.0511,5.9773,5.8449,5.7087,5.5647,5.5449,5.5355,5.5355,5.5355,5.5355,5.5355,5.4803,5.4512,5.4512,5.4512,5.4512,5.4512,5.4512,5.4512,5.4512,5.4512,5.4512,5.3501,5.3501,5.3501,5.3501,5.3534,5.3601,5.3783,5.3948,5.411,0.0,0.0,0.0,0.0,0.0,0.0,0.0,0.0,0.0,0.0,0.0,0.0,0.0,0.0,0.0,0.0,0.0,0.0,0.0,0.0,0.0,6.278,6.278,6.278,6.278,6.278,6.278,6.278,6.278,6.278,6.278,6.278,6.2548,6.1998,6.0896,6.0126,5.957,5.8786,5.8272,5.7997,5.7997,5.7997,5.7997,5.7997,5.7997,5.7997,5.7997,5.7997,5.7997,5.7997,5.7997,5.7997,5.7997,5.9098,6.0401,6.0401,6.152,6.278,6.278,6.1888,6.0897,6.0897,5.9949,5.9012,5.9012,5.9012,5.9012,5.9012,5.9012,5.9012,5.9012,5.9012,5.9012,5.9012,5.9012,5.9132,5.9582,5.9858,6.0362,6.1415,6.1556,6.125,6.052,5.9191,5.7771,5.6357,5.5722,5.5385,5.5385,5.5744,5.5801,5.5414,5.5194,5.4896,5.4512,5.4512,5.4512,5.4512,5.4512,5.4652,5.4944,5.4944,5.5109,5.3501,5.3501,5.3501,5.3501,5.3501,5.3534,5.3684,5.3849,5.4045,0.0,0.0,0.0,0.0,0.0,0.0,0.0,0.0,0.0,0.0,0.0,0.0,0.0,0.0,0.0,0.0,0.0,0.0,0.0,0.0,0.0,6.278,6.278,6.278,6.278,6.278,6.278,6.278,6.278,6.278,6.278,6.2548,6.2126,6.1557,6.0493,5.9698,5.9148,5.8345,5.7997,5.7997,5.7997,5.7997,5.7997,5.7997,5.7997,5.7997,5.7997,5.7997,5.7997,5.7997,5.7997,5.7997,5.7997,5.9098,6.0401,6.0401,6.152,6.2755,6.2559,6.1751,6.0867,6.0646,5.9823,5.9012,5.9012,5.9012,5.9012,5.9012,5.9012,5.9012,5.9012,5.9012,5.9012,5.9012,5.9199,5.9483,5.9923,6.0362,6.095,6.1787,6.2077,6.1931,6.1244,5.9913,5.8512,5.709,5.6417,5.5987,5.5722,5.6248,5.6312,5.5716,5.5502,5.5122,5.4512,5.4512,5.4589,5.4728,5.4494,5.4665,5.5199,5.5122,5.549,0.0,0.0,0.0,5.3501,5.3501,5.3517,5.3651,0.0,5.4045,0.0,0.0,0.0,0.0,0.0,0.0,0.0,0.0,0.0,0.0,0.0,0.0,0.0,0.0,0.0,0.0,0.0,0.0,0.0,0.0,6.278,6.278,6.278,6.278,6.278,6.278,6.278,6.278,6.278,6.278,6.2768,6.1979,6.1575,6.1465,5.9924,5.9184,5.9111,5.8345,5.7997,5.7997,5.7997,5.7997,5.7997,5.7997,5.7997,5.7997,5.7997,5.7997,5.7997,5.7997,5.7997,5.7997,5.8033,5.9116,6.0401,6.0438,6.1557,6.2679,6.2086,6.1425,6.0766,6.0111,5.9483,5.9012,5.9012,5.9012,5.9012,5.9012,5.9012,5.9012,5.9012,5.9012,5.9012,5.9012,5.9582,6.0019,6.0051,6.1098,6.1897,6.1924,6.2438,6.2585,6.1978,6.0668,5.9277,5.7859,5.7557,5.7114,5.6384,5.6835,5.6887,5.6357,5.5762,5.5152,5.4543,5.4512,5.4728,5.5199,5.4523,5.4586,5.5259,5.5044,5.5601,5.3501,0.0,0.0,0.0,0.0,0.0,0.0,0.0,0.0,0.0,0.0,0.0,0.0,0.0,0.0,0.0,0.0,0.0,0.0,0.0,0.0,0.0,0.0,0.0,0.0,0.0,0.0,0.0,6.278,6.278,6.278,6.278,6.278,6.278,6.278,6.278,6.278,6.278,6.2511,6.1924,6.1704,6.0988,5.9869,5.9386,5.8872,5.8327,5.8107,5.7997,5.7997,5.7997,5.7997,5.7997,5.7997,5.7997,5.7997,5.7997,5.7997,5.7997,5.7997,5.7997,5.8107,5.8694,5.9575,6.0511,6.108,6.1998,6.2755,6.2585,6.1733,6.0658,5.9547,5.9132,5.9012,5.9012,5.9012,5.9012,5.9012,5.9012,5.9012,5.9012,5.9012,5.9132,5.9648,5.9891,6.0299,6.1243,6.1658,6.2077,6.249,6.2705,6.273,6.2559,6.1324,6.0151,5.9167,5.8448,5.7716,5.6923,5.7425,5.7474,5.6894,5.6357,5.5716,5.4966,5.497,5.5018,5.4983,5.4939,5.5361,5.6209,5.6447,5.674,0.0,0.0,0.0,0.0,0.0,0.0,5.3501,5.3701,0.0,0.0,0.0,0.0,0.0,0.0,0.0,0.0,0.0,0.0,0.0,0.0,0.0,0.0,0.0,0.0,0.0,0.0,0.0,6.2755,6.278,6.278,6.278,6.278,6.278,6.278,6.2475,6.231,6.231,6.1979,6.1575,6.1098,6.0768,6.0126,5.9184,5.8836,5.8437,5.7997,5.7997,5.7997,5.7997,5.7997,5.7997,5.7997,5.7997,5.7997,5.7997,5.7997,5.7997,5.7997,5.7997,5.7997,5.8125,5.8927,5.9758,6.0548,6.1355,6.2163,6.2755,6.2508,6.1528,6.0357,5.9598,5.9199,5.9012,5.9012,5.9012,5.9012,5.9012,5.9233,5.9317,5.9047,5.9233,5.9549,5.9923,6.0454,6.1039,6.1787,6.2112,6.2412,6.2755,6.278,6.278,6.278,6.1863,6.0801,5.9695,5.909,5.8311,5.7188,5.766,5.7684,5.704,5.6731,5.6203,5.5443,5.5478,5.5537,5.5607,5.5461,5.5751,5.6483,5.6984,5.7188,0.0,0.0,0.0,0.0,0.0,0.0,5.3501,5.3601,5.37,0.0,0.0,0.0,0.0,0.0,0.0,0.0,0.0,0.0,0.0,0.0,0.0,0.0,0.0,0.0,0.0,6.1397,6.2032,6.2636,6.2755,6.278,6.278,6.2732,6.2677,6.2677,6.1887,6.1465,6.1465,6.0768,6.0364,6.0272,5.9533,5.9148,5.9038,5.8327,5.7997,5.7997,5.7997,5.7997,5.7997,5.7997,5.7997,5.7997,5.7997,5.7997,5.7997,5.7997,5.7997,5.7997,5.7997,5.8052,5.8272,5.9056,5.9887,6.0676,6.1484,6.2236,6.2661,6.2059,6.1039,6.0097,6.0019,5.9516,5.9012,5.9012,5.9012,5.9012,5.9012,5.9549,5.9826,5.9233,5.9663,6.0129,6.0192,6.1156,6.1924,6.1978,6.2464,6.278,6.278,6.278,6.278,6.278,6.2334,6.137,5.981,5.9621,5.8914,5.73,5.7684,5.7703,5.7015,5.6938,5.6617,5.5986,5.5957,5.6182,5.668,5.6073,5.5999,5.642,5.6941,5.7188,0.0,0.0,0.0,0.0,0.0,0.0,5.3501,5.3601,5.37,0.0,0.0,0.0,0.0,0.0,0.0,0.0,0.0,0.0,0.0,0.0,0.0,0.0,0.0,0.0,0.0,6.0736,6.1368,6.2032,6.2534,6.278,6.278,6.2199,6.1832,6.1832,6.1043,6.0639,6.0639,6.0493,6.007,5.9423,5.9276,5.8854,5.8235,5.807,5.7997,5.7997,5.7997,5.7997,5.7997,5.7997,5.7997,5.7997,5.7997,5.7997,5.7997,5.7997,5.7997,5.7997,5.7997,5.8419,5.9093,5.9905,6.0713,6.152,6.2328,6.2695,6.2661,6.2059,6.134,6.0615,6.0129,5.9516,5.9012,5.9012,5.9012,5.9012,5.9012,5.9549,5.9955,5.9826,6.0295,6.0885,6.1443,6.1759,6.2059,6.2559,6.273,6.278,6.278,6.278,6.278,6.278,6.2705,6.197,6.0384,6.0237,5.956,5.793,5.7932,5.7886,5.7631,5.7159,5.6731,5.6393,5.6284,5.6519,5.7061,5.6941,5.6941,5.7036,5.7138,5.7188,0.0,0.0,0.0,5.3602,0.0,0.0,0.0,5.3551,5.3601,5.3601,5.3685,0.0,0.0,0.0,0.0,0.0,0.0,0.0,0.0,0.0,0.0,0.0,0.0,0.0,0.0,5.9389,6.0126,6.108,6.1812,6.2034,6.163,6.1227,6.1006,6.1006,6.0236,5.9813,5.9813,5.941,5.9006,5.8602,5.8602,5.84,5.7997,5.7997,5.7997,5.7997,5.7997,5.7997,5.7997,5.7997,5.7997,5.7997,5.7997,5.7997,5.7997,5.7997,5.7997,5.7997,5.7997,5.8529,5.9313,6.0144,6.0933,6.1741,6.2567,6.278,6.273,6.2438,6.165,6.0915,6.095,6.0237,5.9565,5.987,5.9966,5.9966,5.9966,6.0481,6.095,6.095,6.1425,6.186,6.1897,6.2157,6.2438,6.2755,6.278,6.278,6.278,6.278,6.278,6.278,6.278,6.2328,6.1098,6.0639,5.9887,5.8676,5.8217,5.795,5.781,5.7443,5.7127,5.6845,5.6785,5.6889,5.7188,5.7188,5.7188,5.7188,5.7188,5.7188,0.0,0.0,0.0,0.0,0.0,5.3721,0.0,0.0,0.0,5.3501,5.3501,0.0,0.0,0.0,0.0,0.0,0.0,0.0,0.0,0.0,0.0,0.0,0.0,0.0,0.0,5.8266,5.9114,6.0329,6.1006,6.108,6.0438,6.0254,6.0181,6.0181,5.941,5.8964,5.8964,5.8327,5.7997,5.7997,5.7997,5.7997,5.7997,5.7997,5.7997,5.7997,5.7997,5.7997,5.7997,5.7997,5.7997,5.7997,5.7997,5.7997,5.7997,5.7997,5.7997,5.8015,5.818,5.8767,5.9551,6.0382,6.1172,6.1942,6.2603,6.273,6.2636,6.2755,6.1888,6.1044,6.1741,6.1039,6.0299,6.0778,6.0897,6.0897,6.0897,6.1425,6.1897,6.1897,6.2386,6.2654,6.2157,6.2464,6.278,6.278,6.278,6.278,6.278,6.278,6.278,6.278,6.278,6.2475,6.1667,6.086,6.007,5.9239,5.8437,5.7927,5.7768,5.7601,5.7412,5.7188,5.7188,5.7188,5.7188,5.7188,5.7188,5.7188,5.7188,5.7188,0.0,0.0,0.0,0.0,5.4955,0.0,0.0,0.0,5.3501,5.3501,0.0,5.3517,5.3684,0.0,0.0,0.0,0.0,0.0,0.0,0.0,0.0,0.0,0.0,0.0,0.0,0.0,5.9114,6.0329,6.0493,6.0511,6.0401,5.9722,5.9331,5.9331,5.8565,5.8143,5.8143,5.8052,5.7997,5.7997,5.7997,5.7997,5.7997,5.7997,5.7997,5.7997,5.7997,5.7997,5.7997,5.7997,5.7997,5.7997,5.7997,5.7997,5.7997,5.7997,5.7997,5.8107,5.8822,5.9593,6.0401,6.119,6.2016,6.2695,6.2762,6.2412,6.2112,6.2636,6.1888,6.1044,6.1741,6.134,6.0826,6.0897,6.0897,6.0897,6.0897,6.1425,6.1897,6.1897,6.2386,6.278,6.2705,6.2755,6.278,6.278,6.278,6.278,6.278,6.278,6.278,6.278,6.278,6.2475,6.1667,6.086,6.007,5.9239,5.8437,5.7904,5.7625,5.7363,5.7213,5.7188,5.7188,5.7188,5.7188,5.7188,5.7188,5.7188,5.7188,5.7188,0.0,0.0,0.0,0.0,0.0,0.0,5.4685,0.0,5.4008,0.0,0.0,0.0,0.0,0.0,0.0,0.0,0.0,0.0,0.0,0.0,0.0,0.0,0.0,0.0,0.0,0.0,0.0,0.0,0.0,5.9501,5.9024,5.8694,5.851,5.851,5.818,5.7997,5.7997,5.7997,5.7997,5.7997,5.7997,5.7997,5.7997,5.7997,5.7997,5.7997,5.7997,5.7997,5.7997,5.7997,5.7997,5.7997,5.7997,5.7997,5.7997,5.7997,5.7997,5.8125,5.8933,5.9716,6.0621,6.1887,6.253,6.278,6.278,6.261,6.2482,6.273,6.2166,6.164,6.2263,6.196,6.1584,6.1915,6.1996,6.1996,6.1996,6.2219,6.2412,6.2412,6.261,6.278,6.278,6.278,6.278,6.278,6.278,6.278,6.278,6.278,6.278,6.278,6.278,6.2677,6.2328,6.1135,6.0272,5.9924,5.8694,5.7881,5.7625,5.7486,5.7363,5.7188,5.7188,5.7188,5.7188,5.7188,5.7188,5.7188,5.7188,5.7188,5.7239,0.0,0.0,0.0,0.0,0.0,0.0,0.0,0.0,0.0,0.0,0.0,0.0,0.0,5.37,0.0,0.0,0.0,0.0,0.0,0.0,0.0,0.0,0.0,0.0,0.0,0.0,0.0,5.8299,5.8621,5.8033,5.7997,5.7997,5.7997,5.7997,5.7997,5.7997,5.7997,5.7997,5.7997,5.7997,5.7997,5.7997,5.7997,5.7997,5.7997,5.7997,5.7997,5.7997,5.7997,5.7997,5.7997,5.7997,5.7997,5.7997,5.7997,5.8143,5.8437,5.9263,6.0193,6.1263,6.2413,6.278,6.278,6.278,6.2661,6.2585,6.2755,6.236,6.205,6.2636,6.2464,6.2263,6.2705,6.278,6.278,6.278,6.278,6.278,6.278,6.278,6.278,6.278,6.278,6.278,6.278,6.278,6.278,6.278,6.278,6.278,6.278,6.278,6.278,6.278,6.1337,6.0217,5.9777,5.8569,5.7792,5.7601,5.7528,5.7388,5.7188,5.7188,5.7188,5.7188,5.7188,5.7188,5.7188,5.7188,5.7188,0.0,0.0,0.0,5.7831,0.0,0.0,0.0,0.0,5.548,0.0,0.0,0.0,0.0,0.0,0.0,0.0,0.0,0.0,0.0,0.0,0.0,0.0,0.0,0.0,0.0,0.0,0.0,5.7927,5.8015,5.8033,5.7997,5.7997,5.7997,5.7997,5.7997,5.7997,5.7997,5.7997,5.7997,5.7997,5.7997,5.7997,5.7997,5.7997,5.7997,5.7997,5.7997,5.7997,5.7997,5.7997,5.7997,5.7997,5.7997,5.7997,5.7997,5.7997,5.8492,5.9276,6.0089,6.141,6.275,6.2762,6.278,6.278,6.278,6.2386,6.2032,6.2636,6.236,6.205,6.2636,6.2798,6.2798,6.2798,6.278,6.278,6.278,6.278,6.278,6.278,6.278,6.278,6.278,6.278,6.278,6.278,6.278,6.278,6.278,6.278,6.278,6.278,6.278,6.278,6.278,6.1337,5.974,5.818,5.7763,5.7601,5.7601,5.7338,5.7206,5.7188,5.7188,5.7188,5.7188,5.7188,5.7188,5.7188,5.7188,5.7188,0.0,0.0,5.7881,5.7881,0.0,0.0,0.0,0.0,0.0,0.0,0.0,0.0,0.0,0.0,0.0,0.0,0.0,0.0,0.0,0.0,0.0,0.0,0.0,0.0,0.0,0.0,0.0,5.7382,5.7774,5.7997,0.0,5.7997,5.7997,5.7997,5.7997,5.7997,5.7997,5.7997,5.7997,5.7997,5.7997,5.7997,5.7997,5.7997,5.7997,5.7997,5.7997,5.7997,5.7997,5.7997,5.7997,5.7997,5.7997,5.7997,5.7997,5.7997,5.851,5.9386,6.0731,6.1906,6.278,6.278,6.278,6.278,6.278,6.2679,6.2534,6.273,6.2636,6.2534,6.2755,6.278,6.278,6.278,6.278,6.278,6.278,6.278,6.278,6.278,6.278,6.278,6.278,6.278,6.278,6.278,6.278,6.278,6.278,6.278,6.278,6.278,6.278,6.278,6.278,6.1337,5.9703,5.8107,5.7815,5.7697,5.7601,5.7431,5.7313,5.7313,5.7313,5.7313,5.7313,5.7313,5.7307,5.7188,5.7188,5.7188,5.7881,5.7881,0.0,5.7881,5.7881,0.0,5.7289,0.0,0.0,0.0,0.0,0.0,0.0,0.0,0.0,0.0,0.0,0.0,0.0,5.5879,0.0,0.0,0.0,0.0,0.0,0.0,5.7425,5.7425,5.7774,5.7997,0.0,0.0,5.7997,5.7997,5.7997,5.7997,5.7997,5.7997,5.7997,5.7997,5.7997,5.7997,5.7997,5.7997,5.7997,5.7997,5.7997,5.7997,5.7997,5.7997,5.7997,5.7997,5.7997,5.7997,5.8033,5.8327,5.9134,6.0254,6.1575,6.2383,6.278,6.278,6.278,6.278,6.278,6.278,6.2725,6.2456,6.2585,6.275,6.2456,6.2603,6.278,6.278,6.278,6.278,6.278,6.278,6.278,6.278,6.278,6.278,6.278,6.278,6.278,6.278,6.278,6.278,6.278,6.278,6.278,6.278,6.278,6.2695,6.2401,6.1172,5.985,5.851,5.8027,5.7745,5.7601,5.7461,5.766,5.8224,5.7629,5.7629,5.8242,5.7629,5.7264,5.7188,5.7188,5.7188]}]]